[[{"header":{"parameterUnit":"m.s-1","parameterCategory":1,"la1":30.6,"la2":29.2853,"lo1":-89.7004,"lo2":-87.6739,"dx":0.0162,"dy":0.0183,"nx":112,"ny":82,"refTime":"2022-12-15T06:00:00:Z","depth":0,"parameterNumber":2,"parameterNumberName":"U-component_of_WINDS"},"data":[0.0,0.0,0.0,0.0,0.0,0.0,0.0,0.0,0.0,0.0,0.0,0.0,0.0,0.0,0.0,0.0,0.0,0.0,0.0,0.0,0.0,0.0,0.0,0.0,0.0,0.0,0.0,0.0,0.0,0.0,0.0,0.0,0.0,0.0,0.0,0.0,0.0,0.0,0.0,0.0,0.0,0.0,0.0,0.0,0.0,0.0,0.0,0.0,0.0,0.0,0.0,0.0,0.0,0.0,0.0,0.0,0.0,0.0,0.0,0.0,0.0,0.0,0.0,0.0,0.0,0.0,0.0,0.0,0.0,0.0,0.0,0.0,0.0,0.0,0.0,0.0,0.0,0.0,0.0,0.0,0.0,0.0,0.0,0.0,0.0,0.0,0.0,0.0,0.0,0.0,5.0593,5.1882,5.3443,5.4654,5.5241,5.3835,5.1766,4.9189,0.0,0.0,0.0,0.0,0.0,0.0,0.0,0.0,0.0,0.0,0.0,0.0,0.0,0.0,0.0,0.0,0.0,0.0,0.0,0.0,0.0,0.0,0.0,0.0,0.0,0.0,0.0,0.0,0.0,0.0,0.0,0.0,0.0,0.0,0.0,0.0,0.0,0.0,0.0,0.0,0.0,0.0,0.0,0.0,0.0,0.0,0.0,0.0,0.0,0.0,0.0,0.0,0.0,0.0,0.0,0.0,0.0,0.0,0.0,0.0,0.0,0.0,0.0,0.0,0.0,0.0,0.0,0.0,0.0,0.0,0.0,0.0,0.0,0.0,0.0,0.0,0.0,0.0,0.0,0.0,0.0,0.0,0.0,0.0,0.0,0.0,0.0,0.0,0.0,0.0,0.0,0.0,0.0,0.0,0.0,0.0,0.0,0.0,0.0,0.0,0.0,0.0,0.0,0.0,5.1296,5.4381,5.5591,5.5942,5.5358,5.4381,5.2702,5.0085,0.0,0.0,0.0,0.0,0.0,0.0,0.0,0.0,0.0,0.0,0.0,0.0,0.0,0.0,0.0,0.0,0.0,0.0,0.0,0.0,0.0,0.0,0.0,0.0,0.0,0.0,0.0,0.0,0.0,0.0,0.0,0.0,0.0,0.0,0.0,0.0,0.0,0.0,0.0,0.0,0.0,0.0,0.0,0.0,0.0,0.0,0.0,0.0,0.0,0.0,0.0,0.0,0.0,0.0,0.0,0.0,0.0,0.0,0.0,0.0,0.0,0.0,0.0,0.0,0.0,0.0,0.0,0.0,0.0,0.0,0.0,0.0,0.0,0.0,0.0,0.0,0.0,0.0,0.0,0.0,0.0,0.0,0.0,0.0,0.0,0.0,0.0,0.0,0.0,0.0,0.0,0.0,0.0,0.0,0.0,0.0,0.0,0.0,0.0,0.0,0.0,0.0,0.0,5.1219,5.3209,5.5747,5.6371,5.6605,5.6646,5.5005,5.3092,5.0944,4.7978,0.0,0.0,0.0,0.0,0.0,0.0,0.0,0.0,0.0,0.0,0.0,0.0,0.0,0.0,0.0,0.0,0.0,0.0,0.0,0.0,0.0,0.0,0.0,0.0,0.0,0.0,0.0,0.0,0.0,0.0,0.0,0.0,0.0,0.0,0.0,0.0,0.0,0.0,0.0,0.0,0.0,0.0,0.0,0.0,0.0,0.0,0.0,0.0,0.0,0.0,0.0,0.0,0.0,0.0,0.0,0.0,0.0,0.0,0.0,0.0,0.0,0.0,0.0,0.0,0.0,0.0,0.0,0.0,0.0,0.0,0.0,0.0,0.0,0.0,0.0,0.0,0.0,0.0,0.0,0.0,0.0,0.0,0.0,0.0,0.0,0.0,0.0,0.0,0.0,0.0,0.0,0.0,0.0,0.0,0.0,0.0,0.0,0.0,0.0,0.0,0.0,0.0,5.364,5.4966,5.6684,5.6879,5.7113,5.7739,5.5669,5.3483,5.1531,4.8174,0.0,0.0,0.0,0.0,0.0,0.0,0.0,0.0,0.0,0.0,0.0,0.0,0.0,0.0,0.0,0.0,0.0,0.0,0.0,0.0,0.0,0.0,0.0,0.0,0.0,0.0,0.0,0.0,0.0,0.0,0.0,0.0,0.0,0.0,0.0,0.0,0.0,0.0,0.0,0.0,0.0,0.0,0.0,0.0,0.0,0.0,0.0,0.0,0.0,0.0,0.0,0.0,0.0,0.0,0.0,0.0,0.0,0.0,0.0,0.0,0.0,0.0,0.0,0.0,0.0,0.0,0.0,0.0,0.0,0.0,0.0,0.0,0.0,0.0,0.0,0.0,0.0,0.0,0.0,0.0,0.0,0.0,0.0,0.0,0.0,0.0,0.0,0.0,0.0,0.0,0.0,0.0,0.0,0.0,0.0,0.0,0.0,0.0,0.0,0.0,0.0,0.0,5.4187,5.5865,5.7543,5.7739,5.7739,5.7817,5.6217,5.4108,5.157,4.8174,0.0,0.0,0.0,0.0,0.0,0.0,0.0,0.0,0.0,0.0,0.0,0.0,0.0,0.0,0.0,0.0,0.0,0.0,0.0,0.0,0.0,0.0,0.0,0.0,0.0,0.0,0.0,0.0,0.0,0.0,0.0,0.0,0.0,0.0,0.0,0.0,0.0,0.0,0.0,0.0,0.0,0.0,0.0,0.0,0.0,0.0,0.0,0.0,0.0,0.0,0.0,0.0,0.0,0.0,0.0,0.0,0.0,0.0,0.0,0.0,0.0,0.0,0.0,0.0,0.0,0.0,0.0,0.0,0.0,0.0,0.0,0.0,0.0,0.0,0.0,0.0,0.0,0.0,0.0,0.0,0.0,0.0,0.0,0.0,0.0,0.0,0.0,0.0,0.0,0.0,0.0,0.0,0.0,0.0,0.0,0.0,0.0,0.0,0.0,0.0,0.0,0.0,5.5416,5.7298,5.8352,5.8578,5.8596,5.8596,5.7074,5.5005,5.2391,0.0,0.0,0.0,0.0,0.0,0.0,0.0,0.0,0.0,0.0,0.0,0.0,0.0,0.0,0.0,0.0,0.0,0.0,0.0,0.0,0.0,0.0,0.0,0.0,0.0,0.0,0.0,0.0,0.0,0.0,0.0,0.0,0.0,0.0,0.0,0.0,0.0,0.0,0.0,0.0,0.0,0.0,0.0,0.0,0.0,0.0,0.0,0.0,0.0,0.0,0.0,0.0,0.0,0.0,0.0,0.0,0.0,0.0,0.0,0.0,0.0,0.0,0.0,0.0,0.0,0.0,0.0,0.0,0.0,0.0,0.0,0.0,0.0,0.0,0.0,0.0,0.0,0.0,0.0,0.0,0.0,0.0,0.0,0.0,0.0,0.0,0.0,0.0,0.0,0.0,0.0,0.0,0.0,0.0,0.0,0.0,0.0,0.0,0.0,0.0,0.0,0.0,5.3535,5.6279,5.8291,5.8852,5.9245,5.9474,5.9493,5.7972,5.5864,5.3288,0.0,0.0,0.0,0.0,0.0,0.0,0.0,0.0,0.0,0.0,0.0,0.0,0.0,0.0,0.0,0.0,0.0,0.0,0.0,0.0,0.0,0.0,0.0,0.0,0.0,0.0,0.0,0.0,0.0,0.0,0.0,0.0,0.0,0.0,0.0,0.0,0.0,0.0,0.0,0.0,0.0,0.0,0.0,0.0,0.0,0.0,0.0,0.0,0.0,0.0,0.0,0.0,0.0,0.0,0.0,0.0,0.0,0.0,0.0,0.0,0.0,0.0,0.0,0.0,0.0,0.0,0.0,0.0,0.0,0.0,0.0,0.0,0.0,0.0,0.0,0.0,0.0,0.0,0.0,0.0,0.0,0.0,0.0,0.0,0.0,0.0,0.0,0.0,0.0,0.0,0.0,0.0,0.0,0.0,0.0,0.0,0.0,0.0,0.0,0.0,0.0,0.0,5.3496,5.6597,5.8787,5.8915,5.9699,6.0278,6.0388,5.8792,5.6723,0.0,0.0,0.0,0.0,0.0,0.0,0.0,0.0,0.0,0.0,0.0,0.0,0.0,0.0,0.0,0.0,0.0,0.0,0.0,0.0,0.0,0.0,0.0,0.0,0.0,0.0,0.0,0.0,0.0,0.0,0.0,0.0,0.0,0.0,0.0,0.0,0.0,0.0,0.0,0.0,0.0,0.0,0.0,0.0,0.0,0.0,0.0,0.0,0.0,0.0,0.0,0.0,0.0,0.0,0.0,0.0,0.0,0.0,0.0,0.0,0.0,0.0,0.0,0.0,0.0,0.0,0.0,0.0,0.0,0.0,0.0,0.0,0.0,0.0,0.0,0.0,0.0,0.0,0.0,0.0,0.0,0.0,0.0,0.0,0.0,0.0,0.0,0.0,0.0,0.0,0.0,0.0,0.0,0.0,0.0,0.0,0.0,0.0,0.0,0.0,0.0,0.0,0.0,5.4459,5.8126,6.0444,5.9897,6.0691,6.0979,6.0322,5.9232,5.7984,5.661,0.0,0.0,0.0,0.0,0.0,0.0,0.0,0.0,0.0,0.0,0.0,0.0,0.0,0.0,0.0,0.0,0.0,0.0,0.0,0.0,0.0,0.0,0.0,0.0,0.0,0.0,0.0,0.0,0.0,0.0,0.0,0.0,0.0,0.0,0.0,0.0,0.0,0.0,0.0,0.0,0.0,0.0,0.0,0.0,0.0,0.0,0.0,0.0,0.0,0.0,0.0,0.0,0.0,0.0,0.0,0.0,0.0,0.0,0.0,0.0,0.0,0.0,0.0,0.0,0.0,0.0,0.0,0.0,0.0,0.0,0.0,0.0,0.0,0.0,0.0,0.0,0.0,0.0,0.0,0.0,0.0,0.0,0.0,0.0,0.0,0.0,0.0,0.0,0.0,0.0,0.0,0.0,0.0,0.0,0.0,0.0,0.0,0.0,0.0,0.0,0.0,0.0,5.5234,5.859,6.0703,6.0246,6.1034,6.1403,6.084,5.9986,5.8972,5.7757,0.0,0.0,0.0,0.0,0.0,0.0,0.0,0.0,0.0,0.0,0.0,0.0,0.0,0.0,0.0,0.0,0.0,0.0,0.0,0.0,0.0,0.0,0.0,0.0,0.0,0.0,0.0,0.0,0.0,0.0,0.0,0.0,0.0,0.0,0.0,0.0,0.0,0.0,0.0,0.0,0.0,0.0,0.0,0.0,0.0,0.0,0.0,0.0,0.0,0.0,0.0,0.0,0.0,0.0,0.0,0.0,0.0,0.0,0.0,0.0,0.0,0.0,0.0,0.0,0.0,0.0,0.0,0.0,0.0,0.0,0.0,0.0,0.0,0.0,0.0,0.0,0.0,0.0,0.0,0.0,0.0,0.0,0.0,0.0,0.0,0.0,0.0,0.0,0.0,0.0,0.0,0.0,0.0,0.0,0.0,0.0,0.0,0.0,0.0,0.0,0.0,0.0,5.5915,5.8442,6.0129,6.0263,6.1012,6.1512,6.1621,6.0843,5.9713,5.8235,0.0,0.0,0.0,0.0,0.0,0.0,0.0,0.0,0.0,0.0,0.0,0.0,0.0,0.0,0.0,0.0,0.0,0.0,0.0,0.0,0.0,0.0,0.0,0.0,0.0,0.0,0.0,0.0,0.0,0.0,0.0,0.0,0.0,0.0,0.0,0.0,0.0,0.0,0.0,0.0,0.0,0.0,0.0,0.0,0.0,0.0,0.0,0.0,0.0,0.0,0.0,0.0,0.0,0.0,0.0,0.0,0.0,0.0,0.0,0.0,4.7376,4.581,0.0,0.0,0.0,0.0,0.0,0.0,0.0,0.0,0.0,0.0,0.0,0.0,0.0,0.0,0.0,0.0,0.0,0.0,0.0,0.0,0.0,0.0,0.0,0.0,0.0,0.0,0.0,0.0,0.0,0.0,0.0,0.0,0.0,0.0,0.0,0.0,0.0,0.0,0.0,0.0,5.6863,5.9185,6.0822,6.0987,6.1157,6.1285,6.1313,6.0492,6.0193,6.0596,5.8618,0.0,0.0,0.0,0.0,0.0,0.0,0.0,0.0,0.0,0.0,0.0,0.0,0.0,0.0,0.0,0.0,0.0,0.0,0.0,0.0,0.0,0.0,0.0,0.0,0.0,0.0,0.0,0.0,0.0,0.0,0.0,0.0,0.0,0.0,0.0,0.0,0.0,0.0,0.0,0.0,0.0,0.0,0.0,0.0,0.0,0.0,0.0,0.0,0.0,0.0,0.0,0.0,0.0,0.0,0.0,0.0,0.0,0.0,0.0,4.9633,4.8561,0.0,0.0,0.0,0.0,0.0,0.0,0.0,0.0,0.0,0.0,0.0,0.0,0.0,0.0,0.0,0.0,0.0,0.0,0.0,0.0,0.0,0.0,0.0,0.0,0.0,0.0,0.0,0.0,0.0,0.0,0.0,0.0,0.0,0.0,0.0,0.0,0.0,0.0,0.0,0.0,5.8299,5.9618,6.0777,6.1621,6.1361,6.1285,6.1706,6.1028,6.0607,6.0711,5.9765,0.0,0.0,0.0,0.0,0.0,0.0,0.0,0.0,0.0,0.0,0.0,0.0,0.0,0.0,0.0,0.0,0.0,0.0,0.0,0.0,0.0,0.0,0.0,0.0,0.0,0.0,0.0,0.0,0.0,0.0,0.0,0.0,0.0,0.0,0.0,0.0,0.0,0.0,0.0,0.0,0.0,0.0,0.0,0.0,0.0,0.0,0.0,0.0,0.0,0.0,0.0,0.0,0.0,5.2461,5.2884,5.3037,5.3037,5.3113,5.319,5.1926,5.1541,5.1729,5.0891,0.0,0.0,0.0,0.0,0.0,0.0,0.0,0.0,0.0,0.0,0.0,0.0,0.0,0.0,0.0,0.0,0.0,0.0,0.0,0.0,0.0,0.0,5.3689,5.3996,5.4656,5.5096,5.4616,0.0,0.0,0.0,0.0,0.0,0.0,0.0,0.0,0.0,0.0,0.0,5.9487,6.0001,6.0728,6.2079,6.1694,6.1669,6.243,6.1832,6.1121,6.0441,6.0841,6.0174,0.0,0.0,0.0,0.0,0.0,0.0,0.0,0.0,0.0,0.0,0.0,0.0,0.0,0.0,0.0,0.0,0.0,0.0,0.0,0.0,0.0,0.0,0.0,0.0,0.0,0.0,0.0,0.0,0.0,0.0,0.0,0.0,4.3897,4.486,0.0,0.0,0.0,0.0,0.0,0.0,0.0,0.0,0.0,0.0,0.0,0.0,0.0,5.1541,5.2464,5.2467,5.254,5.2655,5.2731,5.319,5.3913,5.3913,5.433,5.5094,5.5559,0.0,5.2578,5.177,0.0,0.0,0.0,0.0,0.0,0.0,0.0,0.0,0.0,0.0,0.0,0.0,0.0,0.0,0.0,0.0,0.0,0.0,0.0,0.0,0.0,0.0,5.6518,5.8033,5.8477,5.8767,5.9479,5.6235,5.3315,5.3741,5.3821,5.4051,0.0,0.0,0.0,0.0,0.0,0.0,5.9394,6.0677,6.1619,6.184,6.2452,6.292,6.3161,6.2381,6.1926,6.192,6.1305,6.0421,5.9205,5.9403,0.0,0.0,0.0,0.0,0.0,0.0,0.0,0.0,0.0,0.0,0.0,0.0,0.0,0.0,0.0,0.0,0.0,0.0,0.0,0.0,0.0,0.0,0.0,0.0,0.0,0.0,0.0,0.0,0.0,4.3962,4.5239,4.6536,4.6271,4.6156,0.0,0.0,0.0,0.0,0.0,0.0,0.0,0.0,0.0,5.2422,5.2346,5.2919,5.4256,5.3798,5.3992,5.4951,5.4951,5.5406,5.6243,5.6243,5.6434,5.6816,5.7164,5.6705,5.5635,5.5288,5.4868,5.4371,0.0,0.0,0.0,0.0,5.3413,5.3754,5.3754,5.3986,5.4256,5.4142,0.0,0.0,0.0,0.0,0.0,0.0,0.0,5.5826,5.7154,5.7428,5.7629,5.8844,5.8846,5.8655,5.9064,5.7453,5.607,5.6491,5.6989,5.7269,5.712,5.7809,0.0,0.0,0.0,6.0088,6.0045,6.1042,6.1974,6.2387,6.2755,6.3229,6.3772,6.3105,6.2494,6.2069,6.1739,6.1158,6.0275,5.9799,5.9183,0.0,0.0,0.0,0.0,0.0,0.0,0.0,0.0,0.0,0.0,0.0,0.0,0.0,0.0,0.0,0.0,0.0,0.0,0.0,0.0,0.0,0.0,0.0,0.0,0.0,0.0,0.0,0.0,4.5908,4.6785,4.846,4.8136,4.814,0.0,0.0,0.0,0.0,0.0,0.0,5.2772,5.2999,5.3416,5.4065,5.3878,5.4412,5.5705,5.5288,5.5712,5.6934,5.6934,5.7278,5.7886,5.7886,5.7886,5.7928,5.8116,5.823,5.8192,5.7963,5.7508,5.6934,5.6934,5.6587,5.6049,5.6049,5.6164,5.6355,5.6355,5.6508,5.6587,5.5938,5.5556,5.525,5.46,0.0,0.0,0.0,0.0,5.7278,5.872,5.8647,5.8421,5.9258,5.8994,5.8616,5.8616,5.8821,5.8923,5.8569,5.9004,5.9291,5.89,5.9332,0.0,6.0514,6.0824,6.093,6.0803,6.1735,6.2634,6.317,6.3423,6.3809,6.4466,6.3845,6.317,6.2522,6.2351,6.1932,6.1097,6.0624,6.0207,5.9893,0.0,0.0,0.0,0.0,0.0,0.0,0.0,0.0,0.0,0.0,0.0,0.0,0.0,0.0,0.0,0.0,0.0,0.0,0.0,0.0,0.0,0.0,0.0,0.0,0.0,0.0,0.0,0.0,0.0,5.074,5.1161,0.0,0.0,0.0,0.0,5.2658,5.2696,5.2772,5.2811,5.3572,5.4065,5.4104,5.5597,5.6441,5.6556,5.7317,5.7734,5.7813,5.7813,5.7851,5.7886,5.7886,5.7886,5.7925,5.8724,5.9026,5.8988,5.823,5.789,5.7813,5.7813,5.781,5.7775,5.7775,5.8265,5.8911,5.8911,5.9453,6.0148,6.0109,5.9529,5.8835,5.8797,5.8265,0.0,0.0,5.781,5.8039,5.8873,5.9064,5.9258,6.0144,6.0304,6.0269,6.0269,6.0929,6.1071,5.9527,5.9275,5.9546,6.0355,0.0,6.0631,6.0591,6.124,6.1715,6.167,6.3061,6.4095,6.4125,6.4806,6.5299,6.5337,6.463,6.414,6.4102,6.3303,6.2462,6.1586,6.248,6.2193,6.0415,6.1387,0.0,0.0,0.0,0.0,0.0,0.0,0.0,0.0,0.0,0.0,0.0,0.0,0.0,0.0,0.0,0.0,0.0,0.0,0.0,0.0,0.0,0.0,0.0,0.0,0.0,0.0,0.0,0.0,5.1402,5.1985,0.0,5.2769,5.3304,5.3648,5.3648,5.4142,5.4715,5.5218,5.5524,5.5979,5.6511,5.7125,5.7431,5.7431,5.7737,5.8154,5.8685,5.8685,5.8956,5.9498,5.9498,5.9498,5.9533,5.98,5.9953,5.9915,5.9609,5.9498,5.9498,5.9498,5.9498,5.9498,5.9498,5.9686,5.9873,5.9293,5.9293,5.9491,5.896,5.8574,5.8341,5.8341,5.8494,5.8685,5.8685,5.9071,5.9571,5.9877,5.9953,5.9991,6.0339,6.0415,6.053,6.1058,6.1419,6.1635,6.1618,6.17,6.183,6.2093,6.2152,6.2333,6.2835,6.271,6.256,6.2476,6.3523,6.425,6.4206,6.4921,6.5413,6.5413,6.515,6.4768,6.4236,6.3927,6.335,6.2468,6.2286,6.2173,6.2205,6.1505,6.1031,0.0,0.0,0.0,0.0,0.0,0.0,0.0,0.0,0.0,0.0,0.0,0.0,0.0,0.0,0.0,0.0,0.0,0.0,0.0,0.0,0.0,0.0,0.0,0.0,0.0,5.085,5.2184,5.1946,5.2455,5.2973,5.3277,5.4209,5.4765,5.4765,5.5691,5.6473,5.7011,5.7049,5.7317,5.7886,5.8154,5.8307,5.8307,5.888,5.9411,5.9943,6.0248,6.0672,6.1252,6.1252,6.1252,6.1252,6.1252,6.1252,6.1252,6.1252,6.1252,6.1176,6.0606,6.0415,6.0415,6.0717,6.0644,6.0377,6.0061,6.0134,6.0286,5.9759,5.9606,5.9529,5.9224,5.9526,5.9908,5.9602,5.9953,6.0415,6.0415,6.0606,6.0794,6.0794,6.1023,6.1405,6.1936,6.228,6.2548,6.285,6.2967,6.3023,6.2978,6.2992,6.3173,6.3671,6.3572,6.3399,6.3361,6.412,6.4632,6.4622,6.5073,6.5413,6.5413,6.5914,6.5761,6.4653,6.5154,6.4806,6.3388,6.335,6.3503,6.3927,6.2574,6.1953,6.2095,0.0,0.0,0.0,0.0,0.0,0.0,0.0,0.0,0.0,0.0,0.0,0.0,0.0,0.0,0.0,0.0,0.0,0.0,0.0,0.0,0.0,0.0,0.0,5.0083,5.0708,5.169,5.2415,5.2845,5.3391,5.4267,5.5436,5.6133,5.6167,5.7239,5.7928,5.7925,5.7966,5.7998,5.7987,5.8793,5.921,5.9203,6.0821,6.1631,6.1669,6.2506,6.2884,6.2884,6.2884,6.2884,6.2884,6.2884,6.2884,6.2884,6.2884,6.2884,6.2735,6.1099,6.0492,6.0568,6.1363,6.1134,6.0606,6.1363,6.22,6.2884,6.2884,6.2884,6.2735,6.1895,6.1631,6.1478,6.0683,6.0492,6.0492,6.0492,6.1061,6.1631,6.1631,6.2277,6.2923,6.2923,6.3579,6.3969,6.3155,6.2961,6.2964,6.2923,6.3029,6.3054,6.2975,6.3756,0.0,6.4286,6.4959,6.5452,6.549,6.549,6.549,6.549,6.6984,6.7213,6.5566,6.6984,6.6797,6.4389,6.5796,6.6212,6.5337,6.4674,6.3559,6.1917,0.0,0.0,0.0,0.0,0.0,0.0,0.0,0.0,0.0,0.0,0.0,0.0,0.0,0.0,0.0,0.0,0.0,0.0,0.0,0.0,0.0,5.1904,5.2942,5.1873,5.3222,5.3982,5.2967,5.3701,5.4632,5.5521,5.6114,5.6709,5.7354,5.7693,5.8154,5.8724,5.938,5.9847,6.0127,6.1274,6.1705,6.1415,6.2155,6.2544,6.2544,6.2773,6.2884,6.2884,6.2884,6.2884,6.2884,6.2884,6.2884,6.2884,6.2884,6.2884,6.2846,6.2391,6.22,6.2239,6.2468,6.2391,6.2239,6.2468,6.2697,6.2884,6.2884,6.2884,6.2846,6.2621,6.2544,6.2506,6.2277,6.22,6.22,6.22,6.2391,6.2544,6.2544,6.2735,6.3079,6.3698,6.4045,6.4313,6.4649,6.4726,6.4535,6.3927,6.4328,6.471,6.4726,6.4932,6.5321,6.5914,6.6216,6.656,6.7137,6.7213,6.7213,6.7213,6.7633,6.7714,6.7251,6.7095,6.6713,6.6025,6.5303,6.4462,6.3614,6.3541,6.3229,0.0,0.0,0.0,0.0,0.0,0.0,0.0,0.0,0.0,0.0,0.0,0.0,0.0,0.0,0.0,0.0,0.0,0.0,0.0,0.0,0.0,0.0,5.3516,5.4511,5.3872,5.4204,5.4433,5.4121,5.4703,5.5339,5.5848,5.7141,5.7871,5.7702,5.8762,5.9513,5.9642,6.0623,6.1296,6.154,6.2448,6.2795,6.2559,6.3142,6.3356,6.3171,6.3522,6.3598,6.3415,6.3606,6.3716,6.372,6.386,6.3958,6.3958,6.3958,6.3767,6.3427,0.0,0.0,0.0,0.0,6.3347,6.3881,6.3541,6.3656,6.3958,6.3958,6.3958,6.3881,6.3541,6.3427,6.3388,6.2999,6.2884,6.2884,6.2884,6.3155,6.3427,6.3427,6.369,6.4076,6.4577,6.4691,6.4959,6.5796,6.5945,0.0,6.5765,6.5872,6.6063,6.6411,6.6449,6.664,6.7133,6.7209,6.7366,6.7867,6.7905,6.7905,6.7905,6.8551,0.0,0.0,0.0,6.8084,6.7744,6.6793,0.0,0.0,0.0,6.4061,6.2884,6.308,0.0,0.0,6.1573,6.1452,0.0,0.0,0.0,0.0,0.0,0.0,0.0,0.0,0.0,0.0,0.0,0.0,0.0,0.0,0.0,0.0,5.5795,5.6712,5.6093,5.4687,5.4247,5.5585,5.5849,5.5956,5.6066,5.836,5.9313,5.7962,6.018,6.1327,6.0652,6.1736,0.0,0.0,0.0,6.3024,6.2986,6.3798,6.3969,6.3597,6.4416,6.4528,6.4063,6.4521,6.4697,6.46,6.5061,6.5261,6.5261,6.5375,6.4997,6.4236,6.3388,6.3041,6.3079,6.3152,6.4111,6.5303,6.4577,0.0,0.0,6.5413,6.5413,6.5261,6.4542,6.4355,6.416,6.3385,6.319,6.319,6.319,6.3847,6.4466,6.4351,6.5035,6.5643,6.5566,6.5605,6.591,6.667,6.6823,6.7091,6.7901,6.7362,6.7095,6.779,6.7905,6.7943,6.802,6.8058,6.8096,6.8168,6.8168,0.0,6.8168,6.954,6.9765,6.8283,6.9502,6.9918,6.9086,6.9043,6.8317,6.6747,6.6594,6.541,6.3041,6.312,6.3533,6.4225,6.2887,6.2469,0.0,0.0,0.0,0.0,0.0,0.0,0.0,0.0,0.0,0.0,0.0,0.0,0.0,0.0,0.0,5.5091,5.6638,5.7923,5.8425,5.7697,5.6969,5.6596,5.7432,5.8281,5.8926,5.9785,6.0426,6.074,6.1291,6.1714,6.1908,6.2452,6.2771,6.2771,6.3493,6.3715,6.3408,6.3865,6.4067,6.399,6.456,0.0,6.3641,6.4095,6.3947,6.3295,6.4092,6.4428,6.4466,6.515,6.5299,6.5073,6.4275,6.3969,6.4045,6.4688,6.5108,6.5375,6.5222,6.5261,6.5413,6.5413,6.5413,6.5375,6.5226,6.5188,0.0,6.4955,6.4917,6.4917,6.4917,6.5566,6.6025,6.5337,6.6334,6.7251,6.6594,6.6942,6.7485,6.7633,6.7672,6.7939,6.8818,6.8245,6.771,6.7863,6.7905,6.813,6.8856,6.8933,6.9196,6.9842,6.9918,6.9918,6.9918,7.022,7.0258,6.9956,6.9616,6.9043,6.8207,6.813,6.7706,6.6709,6.6025,6.5108,6.3969,6.3279,6.3121,6.3447,6.3307,6.3683,0.0,0.0,0.0,0.0,0.0,0.0,0.0,0.0,0.0,0.0,0.0,5.2072,5.2652,0.0,5.5508,5.6439,5.7732,5.8738,5.9034,5.9497,5.9501,5.8688,5.9147,5.9658,6.0075,6.1,6.1424,6.1032,6.1732,6.2139,6.1942,6.2747,6.32,6.32,6.3793,6.399,6.3809,6.3985,6.3985,6.3809,6.3631,6.3648,6.3793,6.3425,6.3455,6.3813,6.4033,6.4168,6.4168,6.4168,6.4508,6.5055,6.4674,6.4626,6.4844,6.5264,6.5413,6.5413,6.5413,6.5413,6.5413,6.5413,6.5413,6.549,6.591,6.6059,6.6139,6.6525,6.664,6.6564,6.6178,6.6674,6.7095,6.6254,6.6984,6.779,6.7404,6.7633,6.802,6.8474,6.8551,6.8818,6.9651,6.9421,6.9158,6.9158,6.9158,6.9311,6.9727,6.9803,6.9956,7.0372,7.0411,7.0411,7.0411,7.0411,7.0411,7.0411,7.0033,6.9425,6.8589,6.8551,6.8168,6.7324,6.6869,6.6449,6.6032,6.5608,6.5432,6.5544,6.5678,6.5178,0.0,0.0,0.0,0.0,0.0,0.0,0.0,5.1586,5.2238,5.1252,5.2183,5.348,5.446,5.5348,5.6421,5.8012,5.9046,5.9626,5.9499,6.083,6.1569,6.0921,6.0854,6.0854,6.0854,6.2022,6.2242,6.0964,6.2059,6.2549,6.2003,6.2859,6.34,6.3496,6.3734,6.3835,6.3835,6.4022,6.3952,6.3613,6.3191,6.3427,6.4186,6.3288,6.3501,6.4543,6.4405,6.4414,6.4532,6.3884,6.4208,6.5117,6.5117,6.5385,6.5775,6.5845,6.5872,6.5872,6.5872,6.5872,6.5872,6.5872,6.5872,6.6025,6.6713,6.6938,6.7056,6.771,6.7905,6.7748,6.7095,6.7553,6.7939,6.7133,6.7668,6.836,6.8207,6.8402,6.886,6.9544,6.9812,7.0151,7.0797,7.0911,7.0835,7.0682,7.0644,7.072,7.0873,7.0911,7.0911,7.0911,7.0911,7.0911,7.0911,7.0911,7.0911,7.0911,7.0759,7.0377,6.9697,6.9502,6.9047,6.8172,6.8321,6.8245,6.7905,6.8054,6.8054,6.7905,6.7905,6.6626,4.9479,4.963,4.9593,4.9775,5.0028,5.0572,0.0,5.2377,5.2877,5.4173,5.5057,5.597,5.7161,5.7941,5.8714,5.9768,6.0707,6.1288,6.1146,6.1914,6.2484,6.2523,6.2536,6.2536,6.2536,6.2683,6.2719,6.2536,6.2683,6.2929,6.3283,6.3037,6.3062,6.3485,6.3146,6.2966,6.2966,6.3714,6.4063,6.405,6.5013,6.5173,6.4558,6.4844,6.4629,6.4126,6.4868,6.5574,6.6217,6.6142,6.6173,6.6295,6.6295,6.6599,6.705,6.748,6.7637,6.7637,6.7637,6.7637,6.7637,6.7637,6.7637,6.7633,6.7748,6.7786,6.7786,6.7863,6.7905,6.7863,6.779,6.8398,6.8856,6.7977,6.8967,6.9918,6.9196,7.0232,7.1306,7.1382,7.2066,7.2601,7.2677,7.2716,7.2448,7.1688,7.1531,7.1837,7.2601,7.2716,7.2716,7.2716,7.2716,7.2716,7.2716,7.2716,7.2716,7.2716,7.199,7.1493,7.1421,7.0686,6.988,6.9086,6.9765,6.9383,6.7905,6.8665,6.8665,6.7905,6.7905,6.7741,5.129,5.2196,5.277,5.2305,5.2884,5.3614,5.3856,5.4581,5.5287,5.5517,5.6544,5.7565,5.8061,5.8832,5.9664,6.0535,6.1057,6.1497,6.183,6.2204,6.2468,6.2449,6.259,6.2711,6.2786,6.2793,6.2793,6.2793,6.2793,6.2892,6.308,6.2917,6.2898,6.3086,6.3395,6.3576,6.3576,6.4383,6.4787,6.4787,6.4831,6.5146,6.5687,6.4946,6.4665,6.479,6.5135,6.548,6.5807,6.6121,6.6661,6.7336,6.757,6.8257,6.8917,6.7863,6.7681,6.7905,6.7905,6.7905,6.7981,6.8474,6.8665,6.8856,6.9816,7.0121,7.0236,7.0729,7.0499,7.0003,6.9502,6.9616,6.9803,6.9421,7.0266,7.1183,7.1374,7.1951,7.2452,7.2452,7.2754,7.2983,7.2983,7.2983,7.3059,7.3132,7.2754,7.2601,7.2945,7.2983,7.2983,7.2983,7.2983,7.2983,7.2983,7.2983,7.2983,7.2983,7.2677,7.2452,7.2452,7.21,7.1756,7.1416,7.1756,7.1565,7.0881,7.1225,7.1225,7.0881,7.0881,7.0898,5.2987,5.4001,5.4756,5.4176,5.487,5.5595,5.5269,5.6247,5.7086,5.6724,5.7768,5.8795,5.9051,5.9679,6.0398,6.121,6.1431,6.1688,6.2132,6.2265,6.2324,6.2305,6.2416,6.2558,6.2724,6.2736,6.2755,6.2786,6.2761,6.2755,6.2793,6.2975,6.3085,6.3166,6.3942,6.4388,6.4427,6.5182,6.5586,6.5625,6.5232,6.5679,6.6769,6.5601,6.5418,6.5955,6.5955,6.6102,6.6319,6.6661,6.7489,6.8547,6.8822,6.959,7.0313,6.8787,6.8526,6.8975,6.9204,6.9319,6.9391,7.0041,7.027,7.0457,7.1684,7.207,7.2185,7.283,7.2563,7.1913,7.1298,7.1102,7.1102,7.1102,7.1603,7.2181,7.2563,7.2983,7.3284,7.3059,7.3365,7.3671,7.3671,7.3671,7.39,7.4469,7.4053,7.3671,7.3671,7.3671,7.3671,7.3671,7.3671,7.3671,7.3671,7.3671,7.3671,7.3671,7.348,7.3323,7.3323,7.3136,7.2983,7.2983,7.3212,7.3208,7.2983,7.3208,7.3212,7.2983,7.2983,7.2983,5.4828,5.4864,5.49,5.4864,5.49,5.5118,5.5818,5.6615,5.7406,5.8166,5.8999,5.9835,6.0742,6.0956,6.1247,6.204,6.2298,6.2338,6.2205,6.2192,6.2291,6.2558,6.2364,6.2311,6.2584,6.261,6.266,6.2786,6.2679,6.2667,6.2786,6.3436,6.3869,6.4059,6.4658,6.5054,6.5251,6.5883,6.6256,6.6476,6.7112,6.7492,6.7664,6.7627,6.759,6.7627,6.7627,6.8061,6.8781,6.8802,6.93,7.0018,7.0039,7.0346,7.0772,7.0723,7.1089,7.1726,7.2563,7.2868,7.2868,7.2868,7.2868,7.2907,7.2945,7.2945,7.2983,7.2983,7.2983,7.2945,7.2945,7.2907,7.2907,7.2907,7.2945,7.2754,7.1917,7.3017,7.393,7.3132,7.4325,7.5433,7.5433,7.5433,7.5433,7.5471,7.5433,7.5433,7.5433,7.5433,7.5433,7.5433,7.5433,7.5433,7.5433,7.5433,7.5433,7.5433,7.4622,7.4159,7.4159,7.3399,7.2983,7.2983,7.3781,7.3781,7.2983,7.3777,7.3777,7.2983,7.2983,7.2983,5.6283,5.6428,5.6428,5.6428,5.6428,5.6645,5.7406,5.7804,5.8383,5.9717,6.0224,6.0672,6.1516,6.1668,6.174,6.203,6.2107,6.2121,6.2073,6.2067,6.21,6.2201,6.2185,6.2225,6.2324,6.2494,6.2584,6.2526,6.3077,6.3382,6.3337,6.415,6.4589,6.4579,6.5387,6.5789,6.5772,6.6498,6.6955,6.7185,6.7496,6.7653,6.7737,6.8244,6.8495,6.8531,6.9052,6.9456,6.9734,7.0031,7.033,7.0591,7.0902,7.1134,7.132,7.1843,7.2203,7.2386,7.2452,7.2472,7.2632,7.3508,7.3815,7.3892,7.4473,7.4669,7.4669,7.4669,7.424,7.3815,7.3815,7.3399,7.3136,7.3662,7.3815,7.3858,7.4172,7.4664,7.497,7.4707,7.5127,7.5509,7.5509,7.5509,7.5509,7.5509,7.5509,7.5509,7.5509,7.5509,7.5509,7.5509,7.5509,7.5509,7.5509,7.5509,7.5509,7.5509,7.5237,7.5046,7.5046,7.4817,7.4898,7.5424,7.573,7.5997,7.6303,7.5997,7.573,7.5424,7.4898,7.4669,5.705,5.7195,5.7195,5.7195,5.7412,5.7768,5.8275,5.8848,5.9536,6.0579,6.1014,6.1376,6.1912,6.1985,6.1985,6.1985,6.2245,6.2324,6.2028,6.2252,6.2345,6.2103,6.2114,6.227,6.2615,6.2781,6.2874,6.2828,6.3335,6.3779,6.4001,6.4837,6.5275,6.5227,6.6035,6.6472,6.6431,6.6892,6.7356,6.781,6.8039,6.8254,6.85,6.9061,6.9304,6.93,6.9869,7.0257,7.0541,7.086,7.1154,7.1446,7.1751,7.1876,7.192,7.2447,7.264,7.2665,7.2789,7.282,7.2986,7.3842,7.4258,7.4493,7.5036,7.5365,7.5509,7.5509,7.5085,7.466,7.466,7.4507,7.4431,7.4961,7.5343,7.5534,7.5509,7.5739,7.5734,7.5161,7.5505,7.5925,7.5925,7.6193,7.6384,7.6384,7.6384,7.6193,7.5586,7.5509,7.5509,7.5509,7.5509,7.5509,7.5509,7.5509,7.5509,7.5509,7.5509,7.5509,7.5509,7.5777,7.6155,7.6685,7.7029,7.7449,7.8018,7.7449,7.7144,7.7144,7.6613,7.6384,5.7195,5.7231,5.7261,5.7261,5.7876,5.8456,5.8522,5.9717,6.0797,6.0833,6.1485,6.1985,6.1985,6.1985,6.1985,6.1985,6.2657,6.2881,6.21,6.2657,6.2937,6.2304,6.2153,6.2445,6.335,6.3437,6.3534,6.3683,6.3598,6.3905,6.4806,6.5476,6.5935,6.6031,6.664,6.7047,6.7189,6.7084,6.7535,6.8457,6.8776,6.9279,6.9899,7.0077,7.0106,6.9986,7.0164,7.0653,7.1344,7.1344,7.1821,7.2488,7.2488,7.2488,7.2488,7.2488,7.2488,7.266,7.3597,7.3951,7.398,7.4004,7.4287,7.468,7.4705,7.5071,7.5449,7.5505,7.5548,7.5548,7.5548,7.6155,7.6761,7.6761,7.7411,7.7559,7.5968,7.6231,7.6303,7.4694,7.5687,7.6761,7.6761,7.7449,7.798,7.7941,7.7941,7.7373,7.5815,7.5624,7.5624,7.5624,7.5624,7.5624,7.5624,7.5624,7.5624,7.5624,7.5624,7.5624,7.5624,7.6346,7.68,7.6838,7.764,7.8094,7.8132,7.8094,7.8056,7.8056,7.8018,7.8018,5.7195,5.7623,5.8094,5.8094,5.8709,5.9463,6.0043,6.0507,6.0978,6.1557,6.1847,6.1985,6.1985,6.1985,6.1985,6.1985,6.2173,6.2245,6.2028,6.2173,6.2447,6.2894,6.2902,6.3221,6.4054,6.4162,6.4394,6.5053,6.5146,6.5262,6.5379,6.6213,6.6649,6.6606,6.6867,6.6983,6.6903,6.7557,6.8298,6.9142,6.9333,6.9579,6.9935,7.0549,7.0892,7.0964,7.1593,7.2011,7.2195,7.2195,7.2305,7.2488,7.2488,7.2488,7.2488,7.2488,7.2488,7.2539,7.2775,7.3123,7.3541,7.3893,7.4064,7.4232,7.4575,7.4791,7.4976,7.5392,7.5925,7.6384,7.6384,7.7029,7.7678,7.7678,7.7827,7.7865,7.7449,7.7521,7.7521,7.7101,7.7368,7.7678,7.7678,7.7865,7.7789,7.7144,7.7029,7.7105,7.7335,7.7373,7.7373,7.7373,7.7373,7.7373,7.7373,7.7373,7.7373,7.7373,7.7373,7.7373,7.7373,7.7559,7.7984,7.8605,7.8872,7.925,7.9856,7.925,7.8987,7.8944,7.829,7.8018,5.7623,5.8058,5.8486,5.8854,5.9536,6.0254,6.0688,6.1086,6.1448,6.1919,6.1985,6.1985,6.1985,6.1985,6.1985,6.1985,6.2288,6.2397,6.2057,6.2607,6.3092,6.3178,6.3497,6.4041,6.4837,6.4946,6.5265,6.6062,6.588,6.5815,6.6098,6.6613,6.6874,6.6786,6.7229,6.7563,6.7844,6.842,6.9112,6.9919,7.0068,7.0383,7.0858,7.1392,7.1655,7.1771,7.2276,7.2488,7.2488,7.2488,7.2488,7.2488,7.2488,7.2488,7.2488,7.2488,7.2488,7.2562,7.2899,7.3232,7.3461,7.3372,7.3646,7.4105,7.4756,7.5263,7.5718,7.6402,7.6914,7.7258,7.7258,7.7908,7.8557,7.8557,7.8825,7.9016,7.8634,7.8557,7.8443,7.8056,7.7674,7.7559,7.7941,7.8018,7.7827,7.7335,7.7258,7.7449,7.7941,7.7373,7.6914,7.6914,7.6914,7.7067,7.7411,7.7445,7.7598,7.798,7.8018,7.8018,7.8018,7.8366,7.8791,7.9292,7.9636,8.0052,8.0506,8.0052,7.9827,7.9827,7.9326,7.9092,5.8202,5.8565,5.8891,5.9572,6.0362,6.0978,6.0978,6.1485,6.1985,6.1985,6.1985,6.1985,6.1985,6.1985,6.1985,6.1985,6.2578,6.2802,6.21,6.3309,6.4004,6.3425,6.4077,6.4874,6.5663,6.5772,6.6062,6.6742,6.6134,6.6062,6.675,6.6887,6.7003,6.7112,6.78,6.8561,6.9344,6.9458,6.9918,7.0732,7.0832,7.1279,7.1973,7.2144,7.2255,7.2284,7.2402,7.246,7.246,7.2481,7.2488,7.2488,7.2488,7.2569,7.2679,7.2679,7.2716,7.2936,7.3634,7.3861,7.3744,7.3039,7.3411,7.4271,7.5104,7.5934,7.6722,7.7575,7.7856,7.797,7.797,7.859,7.9262,7.9352,7.9896,8.0178,7.9474,7.9216,7.8906,7.8137,7.7373,7.7105,7.7865,7.8099,7.8094,7.7865,7.7941,7.7903,7.7712,7.6575,7.5815,7.5815,7.5815,7.6116,7.68,7.6876,7.7258,7.8137,7.8171,7.8209,7.8324,7.9059,7.9445,7.9445,8.0128,8.0506,8.0506,8.0506,8.0506,8.0506,8.0506,8.0506,5.8347,5.9355,6.0441,6.0543,6.1195,6.1774,6.1774,6.1912,6.1985,6.1985,6.1985,6.1985,6.1985,6.1985,6.1985,6.1985,6.2136,6.2173,6.2021,6.2802,6.3606,6.4113,6.491,6.57,6.6496,6.6605,6.6634,6.6779,6.667,6.6634,6.6779,6.7431,6.809,6.8757,6.8902,6.9373,7.017,7.0229,7.0599,7.1353,7.1384,7.1542,7.1855,7.1886,7.1941,7.2048,7.224,7.2343,7.2358,7.2438,7.2488,7.2488,7.2488,7.2899,7.3494,7.3494,7.3927,7.4507,7.4654,7.4691,7.4691,7.4544,7.461,7.4839,7.5439,7.5747,7.5982,7.6519,7.72,7.7739,7.7739,7.8354,7.9079,7.9546,7.9745,7.9735,7.9371,7.8715,7.8171,7.8018,7.7865,7.7827,7.798,7.86,7.8605,7.7144,7.7526,7.7487,7.6116,7.6881,7.7559,7.7559,7.7559,7.7636,7.775,7.775,7.8137,7.9025,7.9063,7.9364,8.0047,8.02,8.0281,8.0281,8.0434,8.0506,8.0506,8.0506,8.0506,8.0506,8.0506,8.0506,5.9427,6.0217,6.0905,6.134,6.1702,6.1985,6.1985,6.1985,6.1985,6.1985,6.1666,6.1485,6.1912,6.1666,6.1521,6.1919,6.1985,6.1985,6.1985,6.3056,6.3968,6.4367,6.5482,6.6388,6.675,6.6779,6.696,6.7394,6.7431,6.7431,6.7431,6.8199,6.9003,6.9808,6.9808,7.0206,7.0951,7.0959,7.1132,7.1487,7.1487,7.1617,7.1809,7.1809,7.1872,7.2003,7.2114,7.2371,7.2765,7.284,7.3178,7.3618,7.3618,7.3927,7.4331,7.4331,7.4581,7.494,7.5388,7.5535,7.5608,7.6004,7.578,7.5432,7.6131,7.6532,7.6885,7.7523,7.8009,7.8315,7.8315,7.8822,7.9386,7.9648,7.9927,8.0075,7.9934,7.925,7.8676,7.8676,7.7946,7.7335,7.7335,7.7678,7.753,7.6269,7.68,7.7029,7.6231,7.646,7.669,7.669,7.669,7.6876,7.7296,7.775,7.8366,7.9254,7.9675,8.009,8.0468,8.0506,8.0506,8.0506,8.0506,8.0506,8.0506,8.0506,8.0506,8.0506,8.0506,8.0506,6.0398,6.0942,6.1195,6.1847,6.1985,6.1985,6.1985,6.1985,6.1949,6.1768,6.1376,6.1154,6.1465,6.1155,6.1047,6.169,6.1805,6.189,6.2195,6.349,6.4475,6.4656,6.5917,6.6779,6.6779,6.6967,6.7322,6.7938,6.8336,6.8525,6.8525,6.9112,6.9808,7.0597,7.0633,7.0923,7.1487,7.1487,7.1487,7.1487,7.1487,7.1593,7.1718,7.1718,7.1905,7.2144,7.2182,7.2671,7.3437,7.3467,7.3925,7.4632,7.4632,7.4833,7.5108,7.5108,7.524,7.5491,7.6122,7.6342,7.6452,7.7105,7.6729,7.6162,7.6806,7.727,7.7769,7.8387,7.8543,7.8543,7.8543,7.886,7.9247,7.9466,7.9906,8.0243,8.0243,7.9594,7.9025,7.9025,7.7912,7.6991,7.6991,7.7144,7.6995,7.6155,7.6728,7.711,7.6761,7.6155,7.57,7.5509,7.5662,7.6002,7.6647,7.7487,7.8366,7.9254,7.9899,8.032,8.0506,8.0506,8.0506,8.0506,8.0506,8.0506,8.0506,8.0506,8.0506,8.0506,8.0506,8.0506,6.0543,6.134,6.1919,6.1992,6.1985,6.1985,6.1985,6.1985,6.1774,6.105,6.1448,6.1501,6.0225,6.0531,6.1011,6.1096,6.1075,6.1573,6.2884,6.3859,6.4656,6.541,6.6279,6.6779,6.6779,6.7467,6.7938,6.801,6.9358,7.017,7.017,7.0242,7.0633,7.1386,7.1386,7.1422,7.1487,7.1487,7.1487,7.1487,7.1487,7.1502,7.1518,7.1518,7.1917,7.2665,7.2815,7.3359,7.411,7.4251,7.435,7.4439,7.4439,7.4986,7.5827,7.5827,7.6359,7.7098,7.7171,7.7179,7.7208,7.7281,7.7209,7.7189,7.7226,7.7301,7.7346,7.7427,7.7464,7.7464,7.7464,7.7472,7.7768,7.8735,7.9193,7.9407,7.9407,7.8715,7.8132,7.8132,7.798,7.7865,7.7865,7.8524,7.8753,7.7903,7.8524,7.849,7.6914,7.6647,7.6307,7.5586,7.6155,7.6609,7.6685,7.7487,7.8366,7.9254,7.9369,7.9751,8.0472,8.0506,8.0506,8.0506,8.0506,8.0506,8.0506,8.0506,8.0506,8.0506,8.0506,8.0506,6.0579,6.1376,6.1985,6.1985,6.1985,6.1902,6.148,6.1706,6.178,6.1077,6.0776,6.0769,6.1069,6.0655,6.0568,6.1465,6.1271,6.1515,6.2986,6.3553,6.4258,6.5446,6.6315,6.6996,6.7467,6.7793,6.8408,6.9365,7.0452,7.106,7.106,7.106,7.1205,7.1487,7.1487,7.1487,7.1487,7.1487,7.1487,7.1487,7.1487,7.174,7.2211,7.2211,7.2645,7.3442,7.3507,7.401,7.4744,7.4809,7.5188,7.5722,7.5722,7.6008,7.6467,7.6578,7.7168,7.7854,7.7434,7.7656,7.7994,7.7472,7.7281,7.7281,7.7281,7.7281,7.7281,7.7281,7.7281,7.7281,7.7281,7.754,7.7974,7.8716,7.8983,7.9079,7.9079,7.8809,7.8658,7.8965,7.8636,7.8416,7.875,7.9063,7.8987,7.8132,7.8753,7.9063,7.8337,7.7793,7.7564,7.7764,7.7148,7.6685,7.6685,7.7989,7.8949,7.9292,7.9751,8.0167,8.0506,8.0506,8.0506,8.0506,8.0506,8.0506,8.0506,8.0506,8.0506,8.0506,8.0506,8.0506,6.0539,6.1376,6.1985,6.1985,6.1804,6.1592,6.1329,6.1307,6.1213,6.0725,6.0225,6.0058,6.063,6.0062,5.9868,6.0901,6.106,6.1563,6.3048,6.3716,6.4507,6.5793,6.6677,6.7394,6.7938,6.8445,6.9285,7.0633,7.1205,7.1487,7.1487,7.1487,7.1487,7.1487,7.1487,7.1487,7.1487,7.1487,7.1631,7.1849,7.1849,7.2283,7.3036,7.3036,7.347,7.4267,7.4267,7.4701,7.5462,7.5462,7.5871,7.6495,7.6495,7.6602,7.681,7.7158,7.7736,7.8271,7.8016,7.8395,7.8846,7.8251,7.8031,7.8031,7.8031,7.7876,7.7693,7.7693,7.7509,7.7281,7.7281,7.7695,7.8187,7.8562,7.8779,7.8897,7.8897,7.8897,7.9007,7.9392,7.9006,7.8777,7.9341,7.9414,7.9262,7.8806,7.925,7.956,7.9331,7.8753,7.8519,7.8872,7.8065,7.7454,7.7454,7.8791,7.9636,7.9636,8.0205,8.0506,8.0506,8.0506,8.0506,8.0506,8.0506,8.0506,8.0506,8.0506,8.0506,8.0506,8.0506,8.0506,6.0402,6.1376,6.1985,6.1985,6.1412,6.1014,6.1804,6.0876,5.9822,5.9815,5.9906,5.9529,5.8035,5.8383,5.8909,5.8917,6.0198,6.1713,6.3204,6.464,6.5873,6.667,6.7503,6.801,6.801,6.9438,7.0669,7.1422,7.1487,7.1487,7.1487,7.1487,7.1487,7.1487,7.1487,7.1487,7.1487,7.1487,7.1885,7.2682,7.2682,7.3116,7.3868,7.3868,7.4339,7.51,7.51,7.5542,7.6284,7.6284,7.6284,7.6292,7.6292,7.6429,7.6687,7.7503,7.8009,7.8402,7.9178,7.9599,7.9779,7.9779,7.9779,7.9779,7.9779,7.9221,7.8589,7.8589,7.7957,7.7281,7.7281,7.7695,7.8084,7.8128,7.8497,7.8897,7.8897,7.8897,7.8897,7.8903,7.8903,7.9067,7.9594,7.9708,7.9863,8.0411,8.0468,8.0205,7.9407,7.9292,7.8944,7.8094,7.8753,7.9259,7.9259,8.0014,8.0506,8.0506,8.0506,8.0506,8.0506,8.0506,8.0506,8.0506,8.0506,8.0506,8.0506,8.0506,8.0506,8.0506,8.0506,8.0506,5.8397,5.8853,5.9433,6.0941,6.0372,5.9655,6.0463,6.0268,5.9804,5.9292,5.9231,5.9235,5.9273,5.9074,5.9087,5.9578,6.0091,6.0976,6.2424,6.3528,6.4844,6.6662,6.8525,6.9655,6.9655,7.0553,7.1241,7.1494,7.1487,7.174,7.2283,7.2319,7.2066,7.1523,7.203,7.2319,7.2319,7.2863,7.3253,7.3506,7.3506,7.3941,7.4738,7.4738,7.518,7.5913,7.5913,7.6058,7.6284,7.6284,7.6284,7.6284,7.6284,7.6353,7.6521,7.7453,7.8262,7.8979,7.9365,7.9995,8.0534,8.0,7.9816,7.989,8.0461,7.9653,7.8479,7.7884,7.7509,7.7281,7.7281,7.7441,7.7555,7.7555,7.7673,7.7818,7.7818,7.7818,7.791,7.8289,7.8363,7.851,7.9049,7.9454,7.9751,7.9937,8.0253,8.0396,8.0167,8.0128,8.0014,7.9742,7.9976,7.9899,7.9331,8.0052,8.0506,8.0506,8.0506,8.0506,8.0506,8.0506,8.0506,8.0506,8.0506,8.0506,8.0506,8.0506,8.0506,8.0506,8.0506,8.0506,5.7288,5.789,5.8533,6.0195,5.9689,5.9026,5.9815,5.9564,5.909,5.8934,5.8694,5.8642,5.9113,5.8815,5.8754,5.9485,6.0125,6.0929,6.2169,6.3491,6.5172,6.7495,6.9337,7.0496,7.0778,7.1241,7.1639,7.1921,7.1957,7.2283,7.3116,7.3144,7.2935,7.2428,7.2899,7.3144,7.3144,7.3651,7.405,7.4339,7.4339,7.4774,7.5542,7.5542,7.5841,7.6284,7.6284,7.6284,0.0,7.6284,7.6284,7.6284,7.6284,7.6501,7.688,7.7788,7.8781,7.9699,8.0144,8.0817,8.1379,8.0873,8.0689,8.0726,8.0938,8.0306,7.9323,7.8471,7.8031,7.7693,7.7391,7.7281,7.7281,7.7281,7.7281,7.7281,7.7281,7.7281,7.7403,7.7739,7.7967,7.8275,7.8804,7.9352,7.9762,7.9974,8.0306,8.0506,8.0506,8.0773,8.085,8.0544,8.0773,8.0663,7.9827,8.0205,8.0506,8.0506,8.0506,8.0506,8.0506,8.0506,8.0506,8.0506,8.0506,8.0506,8.0506,8.0506,8.0506,8.0506,8.0506,8.0506,0.0,5.8024,5.8749,5.9692,5.9286,5.8888,5.9719,5.8767,0.0,5.8617,5.8292,5.7857,5.7755,5.7857,5.8195,5.8819,6.02,6.1502,6.2304,6.4382,6.6724,6.9007,7.0001,7.0742,7.1422,7.1559,7.1893,7.2645,7.2754,7.3152,7.3941,7.3977,7.4013,7.4058,7.4058,7.405,7.3977,7.405,7.4448,7.5208,7.5208,7.5579,7.6284,7.6284,7.6284,7.6284,7.6284,7.6284,7.6284,7.6284,7.6284,7.632,7.6356,7.6827,7.7588,7.8484,7.9479,8.0513,8.1323,8.186,8.2194,8.2194,8.2194,8.2048,8.1305,8.104,8.0828,8.0036,7.9221,7.8405,7.7582,7.7362,7.7281,7.7281,7.7281,7.7281,7.7281,7.7281,7.7281,7.7281,7.7695,7.8194,7.8697,7.9277,7.9799,8.0325,8.0511,8.0582,8.0511,8.1308,8.1538,8.0587,8.127,8.1461,8.0659,8.0544,8.0506,8.0506,8.0506,8.0506,8.0506,8.0506,8.0506,8.0506,8.0506,8.0506,8.0506,8.0506,8.0506,8.0506,8.0506,8.0506,5.569,0.0,5.6165,5.8561,5.8196,5.7612,0.0,5.8487,5.7736,5.7371,5.7611,5.7552,5.6418,5.7602,5.8616,5.8229,5.9901,6.1552,6.2275,6.5359,6.8186,6.9901,7.0785,7.1313,7.1494,7.2066,7.2501,7.2682,7.3253,7.3977,7.4774,7.481,7.51,7.574,7.5732,7.5442,7.481,7.5434,7.5841,7.6022,7.6022,7.6139,7.6284,7.6284,7.6284,7.6284,7.6284,7.6284,7.6284,7.6284,7.6284,7.6356,7.6972,7.7334,7.7651,7.91,7.9942,8.0513,8.1323,8.186,8.2194,8.2194,8.2194,8.2158,8.1966,8.1489,8.0828,8.0036,7.9221,7.8552,7.8369,7.781,7.7281,7.7281,7.7281,7.7281,7.7281,7.7281,7.7281,7.7281,7.7411,7.7525,7.7644,7.8475,7.9115,7.9277,8.0554,8.1232,8.0582,8.181,8.2154,8.0663,8.127,8.1729,8.1499,8.0888,8.0506,8.0506,8.0506,8.0506,8.0506,8.0506,8.0506,8.0506,8.0506,8.0506,8.0506,8.0506,8.0506,8.0506,8.0506,8.0506,5.5293,5.5403,5.5652,5.7865,5.7858,5.7491,5.8284,5.7883,5.7282,5.6867,5.7103,5.7239,5.679,5.7974,5.909,5.9404,6.08,6.2279,6.371,6.6021,6.8127,6.9659,7.0831,7.1691,7.2006,7.279,7.3406,7.376,7.4194,7.481,7.5615,7.5651,7.5841,7.6284,7.6284,7.6102,7.5651,7.6094,7.6284,7.6284,7.6284,7.6284,7.6284,7.6284,7.6284,7.6284,7.6284,7.6284,7.6284,7.6284,7.6537,7.6899,7.7334,7.7941,7.8702,7.9562,8.0298,8.0921,8.1416,8.186,8.2194,8.2194,8.2194,8.2194,8.2194,8.1893,8.1379,8.0571,7.9771,7.9074,7.8707,7.7957,7.7281,7.7281,7.7281,7.7281,7.7281,7.7281,7.7281,7.7281,7.7495,7.7658,7.7658,7.8574,7.9282,7.9282,8.0701,8.1614,8.1156,8.2574,8.3109,8.1772,8.2416,8.2798,8.2378,8.1924,8.1657,8.1657,8.1657,8.1466,8.1117,8.1117,8.0926,8.0511,8.0506,8.0506,8.0506,8.0506,8.0506,8.0506,8.0506,8.0506,5.5293,5.5699,5.6046,5.7518,5.7891,5.7857,5.7755,5.7248,5.6765,5.6664,5.679,5.7137,5.7654,5.8626,5.9733,6.0926,6.2018,6.3455,6.5586,6.6582,6.7711,6.9362,7.0762,7.193,7.2798,7.3615,7.4375,7.5063,7.5208,7.5579,7.6247,7.6284,7.6284,7.6284,7.6284,7.6284,7.6284,7.6284,7.6284,7.6284,7.6284,7.6284,7.6284,7.6284,7.6284,7.6284,7.6284,7.6284,7.632,7.6428,7.6863,7.7507,7.776,7.8702,7.9924,8.0033,8.0636,8.1427,8.1598,8.1885,8.2194,8.2194,8.2194,8.2194,8.2194,8.2194,8.2048,8.1379,8.0506,7.9625,7.8964,7.8067,7.7281,7.7281,7.7281,7.7281,7.7281,7.7281,7.7281,7.7281,7.7658,7.8018,7.8129,7.8891,7.9556,7.9815,8.101,8.1862,8.1857,8.3409,8.4102,8.3114,8.3797,8.3988,8.3267,8.3185,8.3262,8.3376,8.3152,8.2689,8.1996,8.1881,8.1461,8.0697,8.0582,8.0506,8.0506,8.0506,8.0506,8.0506,8.0506,8.0506,5.5293,5.5699,5.6046,5.7518,5.7891,5.7721,5.7103,5.6867,5.6621,5.6012,5.6867,5.7586,5.707,5.9167,6.0791,6.0351,6.2516,6.4852,6.6475,6.735,6.8701,7.0957,7.1434,7.2145,7.3594,7.4448,7.4955,7.5091,7.5724,7.6175,7.6284,7.6284,7.6284,7.6284,7.6284,7.6284,7.6284,7.6284,7.6284,7.6284,7.6284,7.6284,7.6284,7.6284,7.6284,7.6284,7.6284,7.6284,7.6356,7.7036,7.7406,7.7651,7.8992,7.9671,7.9961,8.0649,8.1108,8.1445,8.1743,8.2022,8.2194,8.2194,8.2194,8.2194,8.2194,8.2194,8.2158,8.2048,8.0946,7.9779,7.9669,7.8471,7.7281,7.7281,7.7281,7.7281,7.7281,7.7281,7.7281,7.7281,7.7365,7.7662,7.8405,7.842,7.8827,8.0267,8.1429,8.2136,8.2147,8.3981,8.4709,8.319,8.3797,8.4255,8.4102,8.4102,8.4403,8.5086,8.3797,8.2923,8.2803,8.2149,8.1724,8.1614,8.0888,8.0506,8.0506,8.0506,8.0506,8.0506,8.0506,8.0506,5.5289,5.5908,5.6553,5.762,5.7891,5.7823,5.7476,5.7103,5.6833,5.6867,5.7417,5.8026,5.849,6.008,6.1569,6.2415,6.4038,6.5569,6.6681,6.7482,6.8532,7.0053,7.0966,7.2133,7.3728,7.4631,7.5263,7.5735,7.6102,7.6284,7.6284,7.6284,7.6284,7.6284,7.6284,7.6284,7.6284,7.6284,7.6284,7.6284,7.6284,7.6284,7.6284,7.6284,7.6284,7.6284,7.6284,7.6537,7.6972,7.7362,7.8014,7.8883,7.9598,8.0178,8.0576,8.0975,8.1217,8.1419,8.1583,8.1726,8.1869,8.1869,8.1869,8.1885,8.1985,8.2047,8.2071,8.217,8.1056,7.9816,7.9816,7.8552,7.7281,7.7281,7.7281,7.7281,7.7281,7.7281,7.7281,7.7281,7.7281,7.7436,7.7847,7.8012,7.8529,7.9704,8.0972,8.203,8.2771,8.4144,8.4869,8.4417,8.4709,8.4938,8.4938,8.4938,8.5129,8.5468,8.437,8.3682,8.3682,8.2918,8.2459,8.2459,8.1614,8.1194,8.1194,8.0735,8.0506,8.0506,8.0506,8.0506,5.526,5.5947,5.6765,5.7688,5.7891,5.7891,5.7891,5.7451,5.7273,5.8026,5.8297,5.8872,6.0351,6.1434,6.2675,6.4546,6.5469,6.6214,6.6937,6.7726,6.854,6.9524,7.068,7.2141,7.4009,7.4734,7.5415,7.6233,7.6284,7.6284,7.6284,7.6284,7.6284,7.6284,7.6284,7.6284,7.6284,7.6284,7.6284,7.6284,7.6284,7.6284,7.6284,7.6284,7.6284,7.632,7.6501,7.6936,7.7551,7.7905,7.8774,7.9924,8.0105,8.0576,8.1119,8.1119,8.1217,8.1401,8.1401,8.1478,8.1587,8.1587,8.1587,8.1621,8.1835,8.1894,8.1927,8.2145,8.1166,8.0028,7.9853,7.8699,7.7546,7.7362,7.7281,7.7281,7.7281,7.7472,7.7582,7.7582,7.7766,7.7949,7.8133,7.8367,7.8836,7.9829,8.0851,8.1938,8.3167,8.401,8.4734,8.527,8.5316,8.5363,8.5496,8.5506,8.5506,8.5506,8.4938,8.4594,8.4594,8.3759,8.3305,8.3305,8.2498,8.1996,8.18,8.1117,8.0697,8.0506,8.0506,8.0506,5.526,5.56,5.6114,5.7552,5.7891,5.7891,5.7891,5.7857,5.8026,5.8786,5.9462,6.0419,6.1951,6.3396,6.4647,6.5469,6.6237,6.6971,6.7726,6.8504,6.9571,7.107,7.1312,7.235,7.4766,7.5055,7.5415,7.6233,7.6284,7.6284,7.6284,7.6284,7.6284,7.6284,7.6284,7.6284,7.6284,7.6284,7.6284,7.6284,7.6284,7.6284,7.6284,7.6284,7.6284,7.6356,7.708,7.7434,7.7615,7.91,7.978,7.9961,8.0721,8.1047,8.1119,8.1119,8.1217,8.1401,8.1401,8.1478,8.1587,8.1587,8.1587,8.1621,8.1835,8.1894,8.1927,8.2145,8.1562,8.0755,7.9992,7.9147,7.8295,7.7509,7.7281,7.7281,7.7281,7.7957,7.8516,7.8516,7.9111,7.9845,8.0608,8.0134,8.021,8.1745,8.1888,8.2085,8.2932,8.3587,8.4167,8.4717,8.4768,8.4948,8.5471,8.5506,8.5506,8.5506,8.5468,8.5392,8.5392,8.4632,8.4217,8.4217,8.3376,8.2536,8.18,8.1724,8.1308,8.0506,8.0506,8.0506,5.5745,5.6455,5.7306,5.8312,5.8583,5.8583,5.8583,5.893,5.9471,6.0274,6.1028,6.1985,6.3497,6.459,6.5537,6.6271,6.7015,6.776,6.8538,6.9282,7.0,7.0596,7.1071,7.1897,7.3337,7.3482,7.4062,7.5433,7.5567,7.5768,7.6258,7.6284,7.6284,7.6284,7.6284,7.6284,7.6284,7.6284,7.6284,7.6284,7.6284,7.6284,7.6284,7.6284,7.6573,7.708,7.737,7.8086,7.9028,7.9635,8.0178,8.0685,8.0975,8.1119,8.1119,8.1119,8.1137,8.1199,8.1199,8.1243,8.1305,8.1305,8.1305,8.1321,8.1632,8.1726,8.1785,8.2113,8.1966,8.146,8.0147,7.9184,7.8516,7.8185,7.8104,7.8259,7.8736,7.9111,7.9331,7.9331,7.9596,7.989,8.0212,8.0,8.0175,8.1305,8.1382,8.1692,8.2861,8.3198,8.3577,8.4149,8.4492,8.4791,8.5007,8.5316,8.5506,8.5506,8.5506,8.5506,8.5506,8.5201,8.5053,8.5053,8.4217,8.3644,8.3333,8.2798,8.2383,8.2039,8.1538,8.1308,5.613,5.7049,5.8094,5.8819,5.9013,5.9182,5.9902,6.0452,6.1061,6.183,6.2753,6.3744,6.4749,6.574,6.6542,6.7072,6.7996,6.8819,6.935,7.006,7.0534,7.0534,7.0996,7.1634,7.2427,7.2512,7.3221,7.4981,7.5091,7.5469,7.625,7.6284,7.6284,7.6284,7.6284,7.6284,7.6284,7.6284,7.6284,7.6284,7.6284,7.6284,7.632,7.6573,7.6972,7.7551,7.805,7.8883,7.9924,8.0178,8.0612,8.1119,8.1119,8.1119,8.1119,8.1119,8.1119,8.1119,8.1119,8.1119,8.1119,8.1119,8.1119,8.1155,8.1512,8.1587,8.1664,8.2096,8.2194,8.1901,8.0542,7.9771,7.9286,7.9037,7.9001,7.9147,7.9669,8.0,8.0175,8.0175,8.0579,8.0873,8.0579,8.0763,8.1056,8.1342,8.1379,8.1694,8.2634,8.2762,8.2972,8.3556,8.4123,8.451,8.4705,8.5051,8.5327,8.5496,8.5506,8.5506,8.5506,8.5506,8.5506,8.5506,8.4976,8.4556,8.4293,8.3682,8.3147,8.2612,8.2073,8.1647,5.6264,5.704,5.8094,5.8819,5.9013,5.9631,6.1883,6.2424,6.2627,6.3386,6.4681,6.5706,6.5706,6.6914,6.7895,6.7929,6.9191,7.0206,7.0206,7.0838,7.13,7.13,7.13,7.16,7.2417,7.2501,7.32,7.4954,7.5082,7.5424,7.6233,7.632,7.6284,7.6284,7.6284,7.6284,7.6284,7.6284,7.6284,7.6284,7.632,7.632,7.6356,7.7153,7.7515,7.7615,7.9209,7.9888,7.9961,8.0757,8.1119,8.1119,8.1119,8.1119,8.1119,8.1119,8.1119,8.1119,8.1119,8.1119,8.1119,8.1119,8.1119,8.1155,8.1504,8.1587,8.17,8.2088,8.2186,8.2003,8.1224,8.1004,8.0783,7.9992,7.9816,7.9816,7.9816,8.0461,8.1004,8.1004,8.2288,8.3132,8.2341,8.2875,8.3132,8.2341,8.2194,8.2194,8.2194,8.2194,8.2415,8.295,8.3535,8.4111,8.4621,8.4705,8.4909,8.5466,8.5496,8.5501,8.5506,8.5506,8.5506,8.5506,8.5506,8.5129,8.4293,8.4293,8.3448,8.1839,8.1839,8.1347,5.6881,5.7925,5.8853,5.9597,6.0588,6.1704,6.2912,6.3183,6.3531,6.4783,6.5402,6.6011,6.706,6.7624,6.8267,6.9327,6.9902,7.0375,7.0894,7.1165,7.13,7.13,7.13,7.1401,7.1622,7.1644,7.2122,7.318,7.3838,7.4565,7.5397,7.6003,7.6284,7.6284,7.6284,7.6284,7.6284,7.6284,7.6284,7.632,7.6863,7.7153,7.7144,7.7406,7.8122,7.9209,7.9671,8.0214,8.0757,8.1011,8.1119,8.1119,8.1119,8.1119,8.1119,8.1119,8.1119,8.1119,8.1119,8.1119,8.1119,8.1119,8.1119,8.1128,8.1392,8.1479,8.1486,8.1717,8.1785,8.1712,8.1484,8.1411,8.1295,8.0772,8.0645,8.0791,8.1387,8.168,8.1819,8.1819,8.2692,8.3308,8.3096,8.3242,8.3308,8.3096,8.2553,8.2194,8.2194,8.2194,8.2267,8.2431,8.2935,8.334,8.3477,8.3874,8.4211,8.4365,8.474,8.511,8.5491,8.5506,8.5506,8.5506,8.5506,8.5392,8.5124,8.5124,8.4895,8.4398,8.383,8.341,5.7694,5.895,6.0003,6.0486,6.1511,6.2763,6.4072,6.4367,6.4783,6.6271,6.6586,6.6958,6.8166,6.8605,6.9124,7.0037,7.0443,7.0804,7.1233,7.13,7.13,7.13,7.13,7.13,7.13,7.13,7.1622,7.2448,7.2986,7.3809,7.5036,7.5575,7.5986,7.6275,7.6284,7.6284,7.6284,7.6284,7.6465,7.6791,7.6936,7.737,7.7977,7.8303,7.8992,7.9924,8.025,8.0649,8.1119,8.1119,8.1119,8.1119,8.1119,8.1119,8.1119,8.1119,8.1119,8.1119,8.1119,8.1119,8.1119,8.1119,8.1119,8.1155,8.1331,8.1401,8.1436,8.1572,8.1587,8.1587,8.1587,8.1587,8.1546,8.1391,8.1346,8.1518,8.2068,8.2194,8.2194,8.2194,8.3104,8.3793,8.3454,8.394,8.4123,8.3499,8.2737,8.2194,8.2194,8.2194,8.2194,8.2194,8.2481,8.2784,8.2965,8.3333,8.3652,8.3885,8.4205,8.4516,8.4853,8.5285,8.5506,8.5506,8.5506,8.5506,8.5506,8.5506,8.5354,8.5015,8.4518,8.4102,5.8506,6.0005,6.1332,6.139,6.211,6.3338,6.5436,6.5943,6.6383,6.7624,6.7963,6.8267,6.9045,6.9766,7.0206,7.0308,7.0872,7.13,7.13,7.13,7.13,7.13,7.13,7.13,7.13,7.13,7.1589,7.2321,7.2469,7.3221,7.4908,7.5054,7.5487,7.6258,7.6284,7.632,7.6428,7.6356,7.6718,7.747,7.6827,7.7298,7.8738,7.939,7.9707,7.9816,8.0576,8.0938,8.0975,8.0975,8.1047,8.1119,8.1119,8.1119,8.1119,8.1119,8.1119,8.1119,8.1119,8.1119,8.1119,8.1119,8.1119,8.1119,8.1314,8.1366,8.1401,8.1529,8.1536,8.1536,8.1536,8.1536,8.1624,8.1818,8.1885,8.1972,8.2247,8.2288,8.2341,8.2406,8.3654,8.4499,8.3756,8.4829,8.5233,8.3646,8.2737,8.2194,8.2194,8.2194,8.2194,8.2194,8.2194,8.2407,8.2891,8.2935,8.3155,8.3712,8.3792,8.3826,8.3826,8.4814,8.5368,8.5446,8.5413,8.5466,8.5506,8.5506,8.5124,8.4403,8.4403,8.3988,5.8477,6.011,6.1434,6.2018,6.4005,6.6125,6.7184,6.7929,6.8267,6.7963,6.8402,6.9079,6.9834,7.0105,7.0409,7.0962,7.1199,7.13,7.13,7.13,7.13,7.13,7.13,7.13,7.13,7.13,7.1379,7.1557,7.2142,7.2955,7.4014,7.4724,7.5487,7.6258,7.6284,7.661,7.7225,7.661,7.6718,7.7515,7.7941,7.8376,7.8666,7.8231,7.8376,7.8955,7.9136,7.9571,8.0142,8.0142,8.054,8.1119,8.1119,8.1119,8.1119,8.1119,8.1119,8.1119,8.1119,8.1119,8.1119,8.1119,8.1119,8.1128,8.1137,8.1146,8.1155,8.1199,8.1208,8.1208,8.1208,8.1208,8.1296,8.1598,8.1793,8.2085,8.2769,8.3033,8.3316,8.3948,8.4866,8.5498,8.5306,8.5572,8.5233,8.3646,8.2737,8.2194,8.2194,8.2194,8.2194,8.2194,8.2194,8.2251,8.2359,8.2375,8.2439,8.2552,8.2958,8.3191,8.3191,8.3885,8.4438,8.4859,8.487,8.5083,8.5506,8.5506,8.5392,8.5239,8.5239,8.5124,5.8348,5.9811,6.1163,6.3,6.5392,6.7421,6.7793,6.8808,6.9519,6.909,6.9316,6.9857,7.0601,7.0737,7.0861,7.1233,7.13,7.13,7.13,7.13,7.13,7.13,7.13,7.13,7.13,7.13,7.13,7.13,7.1688,7.2302,7.3129,7.3612,7.4416,7.569,7.6085,7.6692,7.7507,7.747,7.7833,7.8666,7.8666,7.8702,7.8702,7.9064,7.9462,7.9852,7.9852,8.0105,8.0468,8.0468,8.0721,8.1119,8.1119,8.1119,8.1119,8.1119,8.1119,8.1119,8.1119,8.1119,8.1119,8.1119,8.1119,8.1119,8.1119,8.1119,8.1119,8.1119,8.1119,8.1119,8.1119,8.1119,8.1128,8.1304,8.1564,8.192,8.2526,8.2744,8.3059,8.3866,8.4682,8.5351,8.5719,8.5498,8.4939,8.4087,8.2957,8.2194,8.2194,8.2194,8.2194,8.2194,8.2194,8.2194,8.2194,8.2194,8.2194,8.2194,8.245,8.26,8.26,8.2906,8.3466,8.4304,8.4317,8.445,8.4746,8.4746,8.4746,8.4751,8.5018,8.5121,5.8197,5.9822,6.1467,6.3971,6.6373,6.8098,6.8098,6.9282,7.0409,7.0409,7.0409,7.0567,7.1199,7.13,7.13,7.13,7.13,7.13,7.13,7.13,7.13,7.13,7.13,7.13,7.13,7.13,7.13,7.13,7.13,7.1644,7.2469,7.2615,7.344,7.5021,7.599,7.6876,7.767,7.8343,7.91,7.9888,7.9245,7.8992,7.9173,8.0504,8.0938,8.0685,8.0685,8.0757,8.0902,8.0902,8.0975,8.1119,8.1119,8.1119,8.1119,8.1119,8.1119,8.1119,8.1119,8.1119,8.1119,8.1119,8.1119,8.1119,8.1119,8.1119,8.1119,8.1119,8.1119,8.1119,8.1119,8.1119,8.1128,8.1128,8.1347,8.1703,8.2213,8.2341,8.2586,8.3454,8.4123,8.4792,8.5498,8.4939,8.438,8.438,8.3141,8.2194,8.2194,8.2194,8.2194,8.2194,8.2194,8.2194,8.2194,8.2194,8.2194,8.2194,8.2194,8.2194,8.2194,8.2194,8.2653,8.3583,8.3699,8.3799,8.3898,8.3898,8.3898,8.3911,8.4353,8.4551,5.8257,6.1341,6.4106,6.4512,6.6779,6.8944,6.8944,7.0083,7.1165,7.1165,7.1165,7.1199,7.13,7.13,7.13,7.13,7.13,7.13,7.13,7.13,7.13,7.13,7.13,7.13,7.13,7.13,7.13,7.13,7.13,7.1644,7.2469,7.3177,7.3962,7.4901,7.6453,7.7627,7.8445,7.8621,7.91,7.9888,7.978,8.0105,8.0794,8.1011,8.0323,7.9028,7.9028,7.9426,8.0069,8.0069,8.0468,8.1119,8.1119,8.1119,8.1119,8.1119,8.1119,8.1119,8.1119,8.1119,8.1119,8.1119,8.1119,8.1119,8.1119,8.1119,8.1119,8.1119,8.1119,8.1119,8.1119,8.1119,8.1128,8.1314,8.1392,8.167,8.2516,8.2862,8.3279,8.4245,8.4527,8.4646,8.4756,8.4087,8.3573,8.3573,8.2774,8.2194,8.2194,8.2194,8.2194,8.2194,8.2194,8.2194,8.2194,8.2194,8.2194,8.2194,8.2194,8.2194,8.2194,8.2194,8.2284,8.2431,8.2876,8.3382,8.3898,8.3898,8.3898,8.3905,8.3976,8.4008,5.7936,6.096,6.3536,6.4864,6.6508,6.8053,6.891,6.9925,7.0804,7.1199,7.13,7.13,7.13,7.13,7.13,7.13,7.13,7.13,7.13,7.13,7.13,7.13,7.13,7.13,7.13,7.13,7.147,7.1875,7.1909,7.2237,7.3025,7.3872,7.4474,7.4834,7.6942,7.8232,7.8615,7.9549,8.0214,8.0576,8.0576,8.0757,8.1119,8.1119,8.0721,8.0033,8.0033,8.025,8.0576,8.0576,8.0794,8.1119,8.1119,8.1119,8.1119,8.1119,8.1119,8.1119,8.1119,8.1119,8.1119,8.1119,8.1119,8.1119,8.1119,8.1119,8.1119,8.1119,8.1119,8.1119,8.1119,8.1119,8.1101,8.1199,8.1217,8.1387,8.1907,8.2239,8.2741,8.3723,8.427,8.4609,8.4609,8.394,8.3381,8.3381,8.2737,8.2194,8.2194,8.2194,8.2194,8.2194,8.2194,8.2194,8.2194,8.2194,8.2194,8.2194,8.2194,8.2194,8.2194,8.2194,8.2194,8.2194,8.2447,8.267,8.2965,8.2965,8.2965,8.2935,8.3241,8.3403,5.7402,6.0049,6.238,6.4748,6.606,6.7242,6.8977,6.98,7.0409,7.1131,7.13,7.13,7.13,7.13,7.13,7.13,7.13,7.13,7.13,7.13,7.13,7.13,7.13,7.13,7.13,7.147,7.1808,7.236,7.2563,7.2913,7.3454,7.4286,7.4757,7.4747,7.7015,7.8204,7.822,7.9699,8.052,8.0758,8.0758,8.0894,8.1119,8.1119,8.1119,8.1119,8.1119,8.1119,8.1119,8.1119,8.1119,8.1119,8.1119,8.1119,8.1119,8.1119,8.1119,8.1119,8.1119,8.1119,8.1119,8.1119,8.1119,8.1119,8.1119,8.1119,8.1119,8.1119,8.1119,8.1119,8.1119,8.1119,8.1119,8.1119,8.1119,8.1155,8.141,8.1675,8.2127,8.2952,8.3581,8.3985,8.3985,8.3499,8.3096,8.3096,8.259,8.2194,8.2194,8.2194,8.2194,8.2194,8.2194,8.2194,8.2194,8.2194,8.2194,8.2194,8.2194,8.2194,8.2194,8.2194,8.2304,8.2517,8.2517,8.2517,8.2517,8.2517,8.259,8.2827,8.3221,8.3407,5.6668,5.9012,6.1585,6.3832,6.5584,6.7377,6.9631,7.0172,7.0409,7.1131,7.13,7.13,7.13,7.13,7.13,7.13,7.13,7.13,7.13,7.13,7.13,7.13,7.13,7.13,7.13,7.1921,7.236,7.2394,7.3048,7.3454,7.3488,7.42,7.4618,7.4618,7.629,7.7161,7.7196,7.8094,7.8999,7.987,7.987,8.0305,8.1119,8.1119,8.1119,8.1119,8.1119,8.1119,8.1119,8.1119,8.1119,8.1119,8.1119,8.1119,8.1119,8.1119,8.1119,8.1119,8.1119,8.1119,8.1119,8.1119,8.1119,8.1119,8.1119,8.1119,8.1119,8.1119,8.1119,8.1119,8.1119,8.1119,8.1119,8.1119,8.1119,8.119,8.1529,8.176,8.198,8.2235,8.2304,8.2333,8.2333,8.2296,8.226,8.226,8.2231,8.2194,8.2194,8.2194,8.2194,8.2194,8.2194,8.2194,8.2194,8.2194,8.2194,8.2194,8.2194,8.2194,8.2194,8.2194,8.2553,8.3308,8.3353,8.3353,8.3353,8.3353,8.372,8.4499,8.4496,8.4512,5.7063,5.8441,5.9939,6.3263,6.4995,6.623,6.7533,6.9059,7.0274,7.0534,7.0962,7.13,7.13,7.13,7.13,7.13,7.13,7.13,7.13,7.13,7.13,7.13,7.1706,7.2011,7.2011,7.2665,7.3308,7.3781,7.4052,7.4424,7.4909,7.5708,7.5936,7.5327,7.7013,7.7923,7.7923,7.8252,7.8575,7.8882,7.8882,7.9044,7.9388,7.9994,8.0232,8.025,8.0831,8.1119,8.1119,8.1119,8.1119,8.1119,8.1119,8.1119,8.1119,8.1119,8.1119,8.1119,8.1119,8.1119,8.1119,8.1119,8.1119,8.1119,8.1119,8.1119,8.1119,8.1119,8.1119,8.1119,8.1119,8.1119,8.1119,8.1119,8.1119,8.1155,8.1436,8.1598,8.1776,8.1952,8.2022,8.2063,8.217,8.2194,8.2194,8.2194,8.2194,8.2194,8.2194,8.2194,8.2194,8.2194,8.2194,8.2194,8.2194,8.2194,8.2194,8.2194,8.2194,8.2443,8.2949,8.2986,8.3353,8.416,8.416,8.416,8.416,8.416,8.4307,8.4609,8.4609,8.4609,5.6616,5.7524,5.8534,6.1932,6.3835,6.5245,6.6562,6.8343,6.9847,7.0455,7.0973,7.13,7.13,7.13,7.13,7.13,7.13,7.13,7.13,7.13,7.1402,7.1639,7.209,7.2496,7.2732,7.3443,7.4052,7.4547,7.4818,7.519,7.5676,7.6277,7.6335,7.5733,7.686,7.7491,7.7491,7.7491,7.7644,7.7955,7.7955,7.8273,7.8872,7.9513,7.9947,8.0186,8.0822,8.1119,8.1119,8.1119,8.1119,8.1119,8.1119,8.1119,8.1119,8.1119,8.1119,8.1119,8.1119,8.1119,8.1119,8.1119,8.1119,8.1119,8.1119,8.1119,8.1119,8.1119,8.1119,8.1119,8.1119,8.1119,8.1156,8.1454,8.1491,8.1599,8.2032,8.18,8.159,8.1768,8.1802,8.186,8.2071,8.2104,8.2121,8.2186,8.2194,8.2194,8.2194,8.2194,8.2194,8.2194,8.2194,8.2194,8.2194,8.2194,8.2194,8.2194,8.2443,8.2839,8.3381,8.3638,8.416,8.4976,8.5013,8.5123,8.5408,8.5123,8.5123,8.5408,8.5408,8.5408,0.0,0.0,0.0,5.9815,6.2169,6.4552,6.6957,6.8111,6.921,7.0872,7.1255,7.1289,7.13,7.13,7.13,7.13,7.13,7.13,7.13,7.1334,7.1605,7.2326,7.2428,7.2732,7.3454,7.4187,7.4649,7.4649,7.5303,7.5709,7.5709,7.5709,7.5709,7.5709,7.5709,7.5709,7.5709,7.5709,7.6171,7.7075,7.7097,7.8001,7.9643,7.9737,8.0268,8.1047,8.1074,8.1119,8.1119,8.1119,8.1119,8.1119,8.1119,8.1119,8.1119,8.1119,8.1119,8.1119,8.1119,8.1119,8.1119,8.1119,8.1119,8.1119,8.1119,8.1119,8.1119,8.1119,8.1156,8.1156,8.1156,8.1156,8.1373,8.2161,8.2342,8.2559,8.3311,8.2413,8.1517,8.1654,8.1652,8.1748,8.1925,8.1959,8.2025,8.2227,8.226,8.2268,8.2268,8.2268,8.2268,8.2268,8.2268,8.2268,8.2268,8.2268,8.2268,8.2268,8.2986,8.3454,8.3454,8.4233,8.5013,8.5829,8.5829,8.6224,8.6986,8.6224,8.6224,8.6986,8.6986,8.6986,5.5327,0.0,0.0,0.0,0.0,0.0,6.4663,6.7066,6.9301,6.9401,7.0277,7.1086,7.1267,7.13,7.13,7.13,7.13,7.13,7.13,7.174,7.2191,7.2394,7.333,7.4074,7.4277,7.4965,7.5405,7.5405,7.5574,7.5709,7.5709,7.5709,7.5709,7.5709,7.5709,7.5709,7.5709,7.5709,7.5818,7.6101,7.6782,7.7352,7.7873,7.9205,7.9918,8.012,8.0804,8.1119,8.1119,8.1119,8.1119,8.1119,8.1119,8.1119,8.1119,8.1119,8.1119,8.1119,8.1119,8.1119,8.1119,8.1119,8.1119,8.1119,8.1119,8.1119,8.1228,8.1789,8.197,8.2115,8.2695,8.284,8.2876,8.3139,8.3175,8.3238,8.3456,8.3175,8.294,8.3082,8.3118,8.318,8.34,8.3548,8.3667,8.371,8.3828,8.3948,8.3948,8.3948,8.3948,8.3948,8.3948,8.3948,8.3948,8.3948,8.3948,8.3948,8.4123,8.4527,8.5123,8.5351,8.5857,8.6656,8.6656,8.6766,8.6986,8.6766,8.6766,8.6986,8.6986,8.6986,5.5875,5.668,5.7617,5.88,0.0,0.0,6.3665,6.6177,6.8573,6.9054,7.031,7.1354,7.1422,7.1593,7.1706,7.1626,7.1424,7.13,7.13,7.1672,7.2157,7.2812,7.3612,7.439,7.4987,7.5439,7.5709,7.5709,7.5709,7.5709,7.5709,7.5709,7.5709,7.5709,7.5709,7.5709,7.5709,7.5709,7.5709,7.5721,7.6242,7.6725,7.7164,7.8931,7.9906,8.0269,8.1551,8.2106,8.2106,8.2106,8.1699,8.1119,8.1119,8.1119,8.1156,8.1491,8.1599,8.1635,8.1998,8.2106,8.2106,8.2106,8.2106,8.2106,8.2106,8.2106,8.2215,8.2668,8.2813,8.2921,8.3383,8.3492,8.3564,8.3926,8.3999,8.4108,8.4434,8.4506,8.4326,8.3738,8.362,8.3674,8.3863,8.395,8.4127,8.4283,8.4394,8.4525,8.4592,8.4609,8.4609,8.4609,8.4609,8.4609,8.4609,8.4609,8.4609,8.4609,8.4903,8.5306,8.5792,8.6122,8.6518,8.6986,8.6986,8.6986,8.6986,8.6986,8.6986,8.6986,8.6986,8.6986,5.6481,5.669,5.6988,5.765,5.9396,0.0,6.3279,6.5154,6.7035,6.8965,7.0478,7.1417,7.1364,7.1768,7.2032,7.1857,7.1592,7.1368,7.1289,7.1368,7.1921,7.3218,7.3454,7.4063,7.5439,7.5574,7.5608,7.5676,7.5709,7.5709,7.5709,7.5709,7.5709,7.5709,7.5709,7.5709,7.5709,7.5709,7.5743,7.5845,7.593,7.6447,7.7384,7.8987,8.0175,8.1126,8.2657,8.3409,8.3492,8.3492,8.2659,8.1373,8.1373,8.1373,8.1445,8.2152,8.245,8.2559,8.3238,8.3492,8.3492,8.3492,8.3492,8.3492,8.3492,8.3492,8.3528,8.36,8.3709,8.3782,8.3782,8.3782,8.3963,8.4651,8.4832,8.5049,8.5764,8.5909,8.5484,8.4035,8.3782,8.3801,8.3919,8.3965,8.41,8.4453,8.4513,8.4591,8.4807,8.4815,8.4815,8.4857,8.484,8.484,8.4857,8.4866,8.4866,8.4866,8.5535,8.5939,8.5939,8.6628,8.6986,8.6986,8.6986,8.6986,8.6986,8.6986,8.6986,8.6986,8.6986,8.6986,5.6263,5.667,5.7617,5.775,5.9032,0.0,6.1432,6.2893,6.4496,6.6212,6.7291,6.8304,6.9667,7.0015,7.0229,7.0719,7.1396,7.1727,7.1334,7.1808,7.2293,7.2563,7.315,7.386,7.4717,7.4818,7.5055,7.5676,7.5709,7.5709,7.5709,7.5709,7.5709,7.5709,7.5709,7.5709,7.5709,7.5709,7.6014,7.6669,7.7385,7.8122,7.8902,7.9934,8.0925,8.1888,8.2245,8.2809,8.3492,8.3492,8.3311,8.3021,8.3021,8.3021,8.3057,8.3202,8.3284,8.3284,8.3456,8.3492,8.3492,8.3492,8.3492,8.3492,8.3492,8.3492,8.3637,8.4289,8.4941,8.5448,8.5448,8.5448,8.5475,8.5619,8.5656,8.5692,8.5873,8.5909,8.5801,8.5475,8.5448,8.5448,8.5458,8.5562,8.5655,8.5737,8.591,8.6071,8.6266,8.616,8.6169,8.6511,8.6379,8.6353,8.6528,8.6546,8.6546,8.6546,8.6693,8.6766,8.6766,8.6913,8.6986,8.6986,8.6986,8.6986,8.6986,8.6986,8.6986,8.6986,8.6986,8.6986,5.8095,5.7806,5.7982,5.8701,5.8899,0.0,0.0,6.2307,6.3236,6.4914,6.6424,6.7656,6.8422,6.9062,6.9566,6.9752,7.0721,7.1197,7.049,7.157,7.2394,7.2394,7.2732,7.3251,7.3984,7.4052,7.4356,7.51,7.5506,7.5709,7.5709,7.5709,7.5709,7.5709,7.5709,7.5879,7.6284,7.6284,7.669,7.7447,7.7885,7.8294,7.8693,7.9959,8.0842,8.1359,8.2206,8.3081,8.395,8.395,8.4237,8.4615,8.3818,8.3492,8.3564,8.3963,8.4108,8.4144,8.4578,8.4687,8.4687,8.4687,8.4687,8.4687,8.4687,8.4687,8.4796,8.5194,8.5583,8.5909,8.5909,8.5909,8.5909,8.5909,8.5909,8.5909,8.5909,8.5909,8.5909,8.5909,8.5909,8.5909,8.5909,8.5958,8.6025,8.6091,8.6183,8.6311,8.6509,8.6536,8.6644,8.6838,8.6856,8.6891,8.6978,8.6986,8.6986,8.6986,8.6986,8.6986,8.6986,8.6986,8.6986,8.6986,8.6986,8.6986,8.6986,8.6986,8.6986,8.6986,8.6986,8.6986,6.0158,5.9131,5.8479,5.9529,5.8899,5.8717,0.0,0.0,0.0,6.3873,6.5647,6.6933,6.7138,6.801,6.8627,6.8421,6.9477,6.9939,6.8729,7.0343,7.1739,7.2078,7.2292,7.2631,7.3218,7.3556,7.3894,7.4345,7.5202,7.5709,7.5709,7.5709,7.5777,7.5912,7.5912,7.6318,7.7096,7.7096,7.7468,7.8225,7.8225,7.8293,7.8453,7.9837,8.0625,8.1078,8.2419,8.3628,8.4676,8.4676,8.5156,8.5764,8.447,8.3963,8.4035,8.4687,8.4941,8.5013,8.5656,8.5909,8.5909,8.5909,8.5909,8.5909,8.5909,8.5909,8.5909,8.5909,8.5909,8.5909,8.5909,8.5909,8.5909,8.5909,8.5909,8.5909,8.5909,8.5909,8.5909,8.5909,8.5909,8.5909,8.5909,8.5909,8.593,8.6062,8.6044,8.6118,8.6302,8.6474,8.6582,8.6653,8.6794,8.6891,8.6934,8.6969,8.6986,8.6986,8.6986,8.6986,8.6986,8.6986,8.6986,8.6986,8.6986,8.6986,8.6986,8.6986,8.6986,8.6986,8.6986,8.6986,6.0721,5.9893,5.9628,5.9164,5.8899,5.9042,6.0056,0.0,6.0666,6.2176,0.0,6.3426,6.5282,0.0,0.0,6.5823,6.7233,6.7613,6.5546,6.7324,6.9401,7.0894,7.1852,7.2428,7.2529,7.3702,7.4255,7.3657,7.4897,7.5709,7.5709,7.5709,7.6014,7.6758,7.6758,7.713,7.7887,7.7887,7.8259,7.8978,7.8978,7.9317,7.9951,8.0131,8.1131,8.2738,8.2907,8.4058,8.574,8.574,8.5788,8.5873,8.5692,8.5619,8.5619,8.5728,8.5764,8.5764,8.5873,8.5909,8.5909,8.5909,8.5909,8.5909,8.5909,8.5909,8.5909,8.5909,8.5909,8.5909,8.5909,8.5909,8.5909,8.5909,8.5909,8.5909,8.5909,8.5909,8.5909,8.5909,8.5909,8.5909,8.5909,8.5909,8.5919,8.5901,8.5911,8.5986,8.6109,8.6043,8.6108,8.642,8.6438,8.6555,8.6733,8.6891,8.6986,8.6986,8.6986,8.6986,8.6986,8.6986,8.6986,8.6986,8.6986,8.6986,8.6986,8.6986,8.6986,8.6986,8.6986,8.6986,6.4321,6.346,6.2875,6.1726,6.114,6.0908,6.1206,6.0964,6.081,6.1417,0.0,0.0,0.0,0.0,0.0,0.0,6.5249,6.5724,6.4684,6.6756,6.8663,6.9379,7.0208,7.0927,7.1491,7.2607,7.3375,7.3488,7.4458,7.5236,7.5676,7.6149,7.6555,7.6893,7.7299,7.7874,7.8619,7.8653,7.9025,7.9735,7.9735,7.9904,8.0209,8.0209,8.0927,8.2187,8.2187,8.3285,8.5048,8.5048,8.5369,8.5909,8.5909,8.5909,8.5909,8.5909,8.5909,8.5909,8.5909,8.5909,8.5909,8.5909,8.5909,8.5909,8.5909,8.5909,8.5909,8.5909,8.5909,8.5909,8.5909,8.5909,8.5909,8.5909,8.5909,8.5909,8.5909,8.5909,8.5909,8.5909,8.5909,8.5909,8.5909,8.5909,8.5909,8.5909,8.5909,8.5901,8.5995,8.5997,8.608,8.6201,8.632,8.6411,8.6501,8.6724,8.683,8.683,8.6925,8.6986,8.6986,8.6986,8.6986,8.6986,8.6986,8.6986,8.6986,8.6986,8.6986,8.6986,8.6986,8.6986,6.7137,6.6132,6.5216,6.4376,6.3482,6.2764,6.2807,6.2388,6.1947,6.1748,6.155,0.0,0.0,0.0,6.1682,6.2554,0.0,6.3819,6.3282,6.5213,6.7034,6.7904,6.8863,6.9725,7.0254,7.1513,7.2528,7.3138,7.4086,7.492,7.5676,7.6454,7.6995,7.7198,7.7921,7.8653,7.9384,7.9384,7.9667,8.0209,8.0209,8.0209,8.0209,8.0209,8.0727,8.1603,8.1603,8.253,8.4023,8.4023,8.4584,8.5502,8.5502,8.5673,8.5909,8.5909,8.5909,8.5909,8.5909,8.5909,8.5909,8.5909,8.5909,8.5909,8.5909,8.5909,8.5909,8.5909,8.5909,8.5909,8.5909,8.5909,8.5909,8.5909,8.5909,8.5909,8.5909,8.5909,8.5909,8.5909,8.5909,8.5909,8.5909,8.5909,8.5909,8.5909,8.5909,8.5909,8.5909,8.5969,8.6062,8.6062,8.6192,8.6311,8.6311,8.6492,8.6552,8.6386,8.6509,8.6494,8.6362,8.6546,8.6656,8.6656,8.6876,8.6986,8.6986,8.6986,8.6986,8.6986,8.6986,8.6986,6.7754,6.6496,6.558,6.6231,6.5315,6.4266,6.431,6.431,6.4089,6.3393,6.2664,6.2376,6.3128,6.2664,6.1935,6.1285,6.1803,0.0,0.0,6.1448,6.3534,6.6601,6.8449,6.93,6.8829,7.0737,7.2142,7.2405,7.3781,7.492,7.5676,7.6454,7.7232,7.7954,7.8686,7.9418,8.0175,8.0175,8.0175,8.0209,8.0209,8.0209,8.0209,8.0209,8.0727,8.1603,8.1603,8.2153,8.3031,8.3031,8.3585,8.4462,8.4462,8.5048,8.5909,8.5909,8.5909,8.5909,8.5909,8.5909,8.5909,8.5909,8.5909,8.5909,8.5909,8.5909,8.5909,8.5909,8.5909,8.5909,8.5909,8.5909,8.5909,8.5909,8.5909,8.5909,8.5909,8.5909,8.5909,8.5909,8.5909,8.5909,8.5909,8.5909,8.5909,8.5909,8.5909,8.5909,8.5909,8.5882,8.5919,8.5919,8.6034,8.6109,8.6109,8.6283,8.6145,8.56,8.5536,8.5293,8.4711,8.5416,8.5829,8.5829,8.6591,8.6986,8.6986,8.6986,8.6986,8.6986,8.6986,8.6986,6.9401,6.9389,6.9488,6.8274,6.8307,6.8407,6.7458,6.6485,6.5459,6.4288,6.2653,6.155,6.1781,6.0831,6.0258,6.0976,6.0887,6.0721,0.0,6.1593,6.2597,6.3667,6.6135,6.7981,6.8439,6.9727,7.1052,7.2304,7.3308,7.4187,7.492,7.6217,7.7244,7.7988,7.872,7.9452,8.0175,8.0209,8.0209,8.0209,8.0209,8.0209,8.0209,8.0209,8.0727,8.1603,8.1603,8.213,8.2987,8.2987,8.3185,8.3521,8.4158,8.4605,8.4972,8.5637,8.5909,8.5909,8.5909,8.5909,8.5909,8.5909,8.5909,8.5909,8.5909,8.5909,8.5909,8.5909,8.5909,8.5909,8.5909,8.5909,8.5909,8.5909,8.5909,8.5909,8.5909,8.5909,8.5909,8.5909,8.5909,8.5909,8.5909,8.5909,8.5909,8.5909,8.5909,8.5909,8.5909,8.5909,8.5909,8.5909,8.5939,8.5977,8.5977,8.5645,8.5655,8.6063,8.5606,8.5204,8.5009,8.5387,8.5603,8.5584,8.5989,8.6481,8.6986,8.6986,8.6986,8.6986,8.6986,8.6986,7.0825,7.0891,7.0924,6.9777,6.981,6.9943,6.9247,6.8142,6.7115,6.6464,6.4564,6.3162,6.3703,6.2179,6.1162,6.2113,6.1417,6.0854,0.0,6.1527,6.1792,6.1792,6.4508,6.689,6.8283,6.9178,7.0568,7.2642,7.3218,7.3827,7.4547,7.607,7.7244,7.7988,7.872,7.9452,8.0175,8.0209,8.0209,8.0209,8.0209,8.0209,8.0209,8.0209,8.0517,8.1087,8.1087,8.1472,8.1991,8.1991,8.2199,8.254,8.3163,8.3823,8.4534,8.5531,8.5909,8.5909,8.5909,8.5909,8.5909,8.5909,8.5909,8.5909,8.5909,8.5909,8.5945,8.6235,8.609,8.5945,8.6226,8.609,8.5909,8.5909,8.5909,8.5909,8.5909,8.5909,8.5909,8.5909,8.5909,8.5909,8.5909,8.5909,8.5909,8.5909,8.5909,8.5909,8.5909,8.5909,8.5909,8.5909,8.5909,8.5909,8.5909,8.556,8.5491,8.5828,8.5373,8.4999,8.4779,8.5158,8.5265,8.4982,8.568,8.6135,8.6355,8.6709,8.6891,8.6891,8.6952,8.6986]},{"header":{"parameterUnit":"m.s-1","parameterCategory":1,"la1":30.6,"la2":29.2853,"lo1":-89.7004,"lo2":-87.6739,"dx":0.0162,"dy":0.0183,"nx":112,"ny":82,"refTime":"2022-12-15T06:00:00:Z","depth":0,"parameterNumber":3,"parameterNumberName":"V-component_of_WINDS"},"data":[0.0,0.0,0.0,0.0,0.0,0.0,0.0,0.0,0.0,0.0,0.0,0.0,0.0,0.0,0.0,0.0,0.0,0.0,0.0,0.0,0.0,0.0,0.0,0.0,0.0,0.0,0.0,0.0,0.0,0.0,0.0,0.0,0.0,0.0,0.0,0.0,0.0,0.0,0.0,0.0,0.0,0.0,0.0,0.0,0.0,0.0,0.0,0.0,0.0,0.0,0.0,0.0,0.0,0.0,0.0,0.0,0.0,0.0,0.0,0.0,0.0,0.0,0.0,0.0,0.0,0.0,0.0,0.0,0.0,0.0,0.0,0.0,0.0,0.0,0.0,0.0,0.0,0.0,0.0,0.0,0.0,0.0,0.0,0.0,0.0,0.0,0.0,0.0,0.0,0.0,0.1808,0.1812,0.1881,0.1909,0.1899,0.1851,0.1794,0.1718,0.0,0.0,0.0,0.0,0.0,0.0,0.0,0.0,0.0,0.0,0.0,0.0,0.0,0.0,0.0,0.0,0.0,0.0,0.0,0.0,0.0,0.0,0.0,0.0,0.0,0.0,0.0,0.0,0.0,0.0,0.0,0.0,0.0,0.0,0.0,0.0,0.0,0.0,0.0,0.0,0.0,0.0,0.0,0.0,0.0,0.0,0.0,0.0,0.0,0.0,0.0,0.0,0.0,0.0,0.0,0.0,0.0,0.0,0.0,0.0,0.0,0.0,0.0,0.0,0.0,0.0,0.0,0.0,0.0,0.0,0.0,0.0,0.0,0.0,0.0,0.0,0.0,0.0,0.0,0.0,0.0,0.0,0.0,0.0,0.0,0.0,0.0,0.0,0.0,0.0,0.0,0.0,0.0,0.0,0.0,0.0,0.0,0.0,0.0,0.0,0.0,0.0,0.0,0.0,0.1819,0.1884,0.1941,0.1969,0.1903,0.1884,0.1855,0.179,0.0,0.0,0.0,0.0,0.0,0.0,0.0,0.0,0.0,0.0,0.0,0.0,0.0,0.0,0.0,0.0,0.0,0.0,0.0,0.0,0.0,0.0,0.0,0.0,0.0,0.0,0.0,0.0,0.0,0.0,0.0,0.0,0.0,0.0,0.0,0.0,0.0,0.0,0.0,0.0,0.0,0.0,0.0,0.0,0.0,0.0,0.0,0.0,0.0,0.0,0.0,0.0,0.0,0.0,0.0,0.0,0.0,0.0,0.0,0.0,0.0,0.0,0.0,0.0,0.0,0.0,0.0,0.0,0.0,0.0,0.0,0.0,0.0,0.0,0.0,0.0,0.0,0.0,0.0,0.0,0.0,0.0,0.0,0.0,0.0,0.0,0.0,0.0,0.0,0.0,0.0,0.0,0.0,0.0,0.0,0.0,0.0,0.0,0.0,0.0,0.0,0.0,0.0,0.1789,0.1887,0.1947,0.1984,0.1992,0.1963,0.1921,0.1869,0.1807,0.1675,0.0,0.0,0.0,0.0,0.0,0.0,0.0,0.0,0.0,0.0,0.0,0.0,0.0,0.0,0.0,0.0,0.0,0.0,0.0,0.0,0.0,0.0,0.0,0.0,0.0,0.0,0.0,0.0,0.0,0.0,0.0,0.0,0.0,0.0,0.0,0.0,0.0,0.0,0.0,0.0,0.0,0.0,0.0,0.0,0.0,0.0,0.0,0.0,0.0,0.0,0.0,0.0,0.0,0.0,0.0,0.0,0.0,0.0,0.0,0.0,0.0,0.0,0.0,0.0,0.0,0.0,0.0,0.0,0.0,0.0,0.0,0.0,0.0,0.0,0.0,0.0,0.0,0.0,0.0,0.0,0.0,0.0,0.0,0.0,0.0,0.0,0.0,0.0,0.0,0.0,0.0,0.0,0.0,0.0,0.0,0.0,0.0,0.0,0.0,0.0,0.0,0.0,0.1858,0.1919,0.1995,0.2002,0.1994,0.2001,0.1944,0.1868,0.18,0.1669,0.0,0.0,0.0,0.0,0.0,0.0,0.0,0.0,0.0,0.0,0.0,0.0,0.0,0.0,0.0,0.0,0.0,0.0,0.0,0.0,0.0,0.0,0.0,0.0,0.0,0.0,0.0,0.0,0.0,0.0,0.0,0.0,0.0,0.0,0.0,0.0,0.0,0.0,0.0,0.0,0.0,0.0,0.0,0.0,0.0,0.0,0.0,0.0,0.0,0.0,0.0,0.0,0.0,0.0,0.0,0.0,0.0,0.0,0.0,0.0,0.0,0.0,0.0,0.0,0.0,0.0,0.0,0.0,0.0,0.0,0.0,0.0,0.0,0.0,0.0,0.0,0.0,0.0,0.0,0.0,0.0,0.0,0.0,0.0,0.0,0.0,0.0,0.0,0.0,0.0,0.0,0.0,0.0,0.0,0.0,0.0,0.0,0.0,0.0,0.0,0.0,0.0,0.1863,0.192,0.1994,0.2001,0.2001,0.2003,0.1932,0.1875,0.1801,0.1669,0.0,0.0,0.0,0.0,0.0,0.0,0.0,0.0,0.0,0.0,0.0,0.0,0.0,0.0,0.0,0.0,0.0,0.0,0.0,0.0,0.0,0.0,0.0,0.0,0.0,0.0,0.0,0.0,0.0,0.0,0.0,0.0,0.0,0.0,0.0,0.0,0.0,0.0,0.0,0.0,0.0,0.0,0.0,0.0,0.0,0.0,0.0,0.0,0.0,0.0,0.0,0.0,0.0,0.0,0.0,0.0,0.0,0.0,0.0,0.0,0.0,0.0,0.0,0.0,0.0,0.0,0.0,0.0,0.0,0.0,0.0,0.0,0.0,0.0,0.0,0.0,0.0,0.0,0.0,0.0,0.0,0.0,0.0,0.0,0.0,0.0,0.0,0.0,0.0,0.0,0.0,0.0,0.0,0.0,0.0,0.0,0.0,0.0,0.0,0.0,0.0,0.0,0.2404,0.2298,0.3154,0.2542,0.2062,0.2062,0.2009,0.1921,0.1801,0.0,0.0,0.0,0.0,0.0,0.0,0.0,0.0,0.0,0.0,0.0,0.0,0.0,0.0,0.0,0.0,0.0,0.0,0.0,0.0,0.0,0.0,0.0,0.0,0.0,0.0,0.0,0.0,0.0,0.0,0.0,0.0,0.0,0.0,0.0,0.0,0.0,0.0,0.0,0.0,0.0,0.0,0.0,0.0,0.0,0.0,0.0,0.0,0.0,0.0,0.0,0.0,0.0,0.0,0.0,0.0,0.0,0.0,0.0,0.0,0.0,0.0,0.0,0.0,0.0,0.0,0.0,0.0,0.0,0.0,0.0,0.0,0.0,0.0,0.0,0.0,0.0,0.0,0.0,0.0,0.0,0.0,0.0,0.0,0.0,0.0,0.0,0.0,0.0,0.0,0.0,0.0,0.0,0.0,0.0,0.0,0.0,0.0,0.0,0.0,0.0,0.0,0.4346,0.3781,0.3533,0.3954,0.3283,0.2613,0.2143,0.204,0.1951,0.1846,0.0,0.0,0.0,0.0,0.0,0.0,0.0,0.0,0.0,0.0,0.0,0.0,0.0,0.0,0.0,0.0,0.0,0.0,0.0,0.0,0.0,0.0,0.0,0.0,0.0,0.0,0.0,0.0,0.0,0.0,0.0,0.0,0.0,0.0,0.0,0.0,0.0,0.0,0.0,0.0,0.0,0.0,0.0,0.0,0.0,0.0,0.0,0.0,0.0,0.0,0.0,0.0,0.0,0.0,0.0,0.0,0.0,0.0,0.0,0.0,0.0,0.0,0.0,0.0,0.0,0.0,0.0,0.0,0.0,0.0,0.0,0.0,0.0,0.0,0.0,0.0,0.0,0.0,0.0,0.0,0.0,0.0,0.0,0.0,0.0,0.0,0.0,0.0,0.0,0.0,0.0,0.0,0.0,0.0,0.0,0.0,0.0,0.0,0.0,0.0,0.0,0.0,0.5608,0.5995,0.5693,0.4168,0.4158,0.3687,0.2241,0.2069,0.1996,0.0,0.0,0.0,0.0,0.0,0.0,0.0,0.0,0.0,0.0,0.0,0.0,0.0,0.0,0.0,0.0,0.0,0.0,0.0,0.0,0.0,0.0,0.0,0.0,0.0,0.0,0.0,0.0,0.0,0.0,0.0,0.0,0.0,0.0,0.0,0.0,0.0,0.0,0.0,0.0,0.0,0.0,0.0,0.0,0.0,0.0,0.0,0.0,0.0,0.0,0.0,0.0,0.0,0.0,0.0,0.0,0.0,0.0,0.0,0.0,0.0,0.0,0.0,0.0,0.0,0.0,0.0,0.0,0.0,0.0,0.0,0.0,0.0,0.0,0.0,0.0,0.0,0.0,0.0,0.0,0.0,0.0,0.0,0.0,0.0,0.0,0.0,0.0,0.0,0.0,0.0,0.0,0.0,0.0,0.0,0.0,0.0,0.0,0.0,0.0,0.0,0.0,0.0,0.5784,0.5213,0.4674,0.4123,0.3313,0.3046,0.3607,0.3509,0.3435,0.3509,0.0,0.0,0.0,0.0,0.0,0.0,0.0,0.0,0.0,0.0,0.0,0.0,0.0,0.0,0.0,0.0,0.0,0.0,0.0,0.0,0.0,0.0,0.0,0.0,0.0,0.0,0.0,0.0,0.0,0.0,0.0,0.0,0.0,0.0,0.0,0.0,0.0,0.0,0.0,0.0,0.0,0.0,0.0,0.0,0.0,0.0,0.0,0.0,0.0,0.0,0.0,0.0,0.0,0.0,0.0,0.0,0.0,0.0,0.0,0.0,0.0,0.0,0.0,0.0,0.0,0.0,0.0,0.0,0.0,0.0,0.0,0.0,0.0,0.0,0.0,0.0,0.0,0.0,0.0,0.0,0.0,0.0,0.0,0.0,0.0,0.0,0.0,0.0,0.0,0.0,0.0,0.0,0.0,0.0,0.0,0.0,0.0,0.0,0.0,0.0,0.0,0.0,0.6583,0.5706,0.4877,0.418,0.3466,0.3151,0.3438,0.3324,0.3268,0.3311,0.0,0.0,0.0,0.0,0.0,0.0,0.0,0.0,0.0,0.0,0.0,0.0,0.0,0.0,0.0,0.0,0.0,0.0,0.0,0.0,0.0,0.0,0.0,0.0,0.0,0.0,0.0,0.0,0.0,0.0,0.0,0.0,0.0,0.0,0.0,0.0,0.0,0.0,0.0,0.0,0.0,0.0,0.0,0.0,0.0,0.0,0.0,0.0,0.0,0.0,0.0,0.0,0.0,0.0,0.0,0.0,0.0,0.0,0.0,0.0,0.0,0.0,0.0,0.0,0.0,0.0,0.0,0.0,0.0,0.0,0.0,0.0,0.0,0.0,0.0,0.0,0.0,0.0,0.0,0.0,0.0,0.0,0.0,0.0,0.0,0.0,0.0,0.0,0.0,0.0,0.0,0.0,0.0,0.0,0.0,0.0,0.0,0.0,0.0,0.0,0.0,0.0,0.7718,0.7063,0.6022,0.4478,0.4417,0.3981,0.269,0.259,0.2509,0.232,0.0,0.0,0.0,0.0,0.0,0.0,0.0,0.0,0.0,0.0,0.0,0.0,0.0,0.0,0.0,0.0,0.0,0.0,0.0,0.0,0.0,0.0,0.0,0.0,0.0,0.0,0.0,0.0,0.0,0.0,0.0,0.0,0.0,0.0,0.0,0.0,0.0,0.0,0.0,0.0,0.0,0.0,0.0,0.0,0.0,0.0,0.0,0.0,0.0,0.0,0.0,0.0,0.0,0.0,0.0,0.0,0.0,0.0,0.0,0.0,1.0084,0.975,0.0,0.0,0.0,0.0,0.0,0.0,0.0,0.0,0.0,0.0,0.0,0.0,0.0,0.0,0.0,0.0,0.0,0.0,0.0,0.0,0.0,0.0,0.0,0.0,0.0,0.0,0.0,0.0,0.0,0.0,0.0,0.0,0.0,0.0,0.0,0.0,0.0,0.0,0.0,0.0,0.7992,0.8022,0.7552,0.6074,0.5939,0.5834,0.5533,0.5925,0.5763,0.4736,0.5822,0.0,0.0,0.0,0.0,0.0,0.0,0.0,0.0,0.0,0.0,0.0,0.0,0.0,0.0,0.0,0.0,0.0,0.0,0.0,0.0,0.0,0.0,0.0,0.0,0.0,0.0,0.0,0.0,0.0,0.0,0.0,0.0,0.0,0.0,0.0,0.0,0.0,0.0,0.0,0.0,0.0,0.0,0.0,0.0,0.0,0.0,0.0,0.0,0.0,0.0,0.0,0.0,0.0,0.0,0.0,0.0,0.0,0.0,0.0,1.055,1.0336,0.0,0.0,0.0,0.0,0.0,0.0,0.0,0.0,0.0,0.0,0.0,0.0,0.0,0.0,0.0,0.0,0.0,0.0,0.0,0.0,0.0,0.0,0.0,0.0,0.0,0.0,0.0,0.0,0.0,0.0,0.0,0.0,0.0,0.0,0.0,0.0,0.0,0.0,0.0,0.0,0.8437,0.8031,0.7597,0.7123,0.6991,0.6966,0.7065,0.6802,0.6337,0.5679,0.6496,0.0,0.0,0.0,0.0,0.0,0.0,0.0,0.0,0.0,0.0,0.0,0.0,0.0,0.0,0.0,0.0,0.0,0.0,0.0,0.0,0.0,0.0,0.0,0.0,0.0,0.0,0.0,0.0,0.0,0.0,0.0,0.0,0.0,0.0,0.0,0.0,0.0,0.0,0.0,0.0,0.0,0.0,0.0,0.0,0.0,0.0,0.0,0.0,0.0,0.0,0.0,0.0,0.0,1.1151,1.1226,1.1258,1.1258,1.1274,1.1291,1.1037,1.097,1.1025,1.0832,0.0,0.0,0.0,0.0,0.0,0.0,0.0,0.0,0.0,0.0,0.0,0.0,0.0,0.0,0.0,0.0,0.0,0.0,0.0,0.0,0.0,0.0,1.0603,1.0664,1.0547,1.032,0.9907,0.0,0.0,0.0,0.0,0.0,0.0,0.0,0.0,0.0,0.0,0.0,0.9206,0.8399,0.7978,0.8483,0.8413,0.8307,0.8219,0.7335,0.6677,0.6419,0.7066,0.7055,0.0,0.0,0.0,0.0,0.0,0.0,0.0,0.0,0.0,0.0,0.0,0.0,0.0,0.0,0.0,0.0,0.0,0.0,0.0,0.0,0.0,0.0,0.0,0.0,0.0,0.0,0.0,0.0,0.0,0.0,0.0,0.0,0.9356,0.9522,0.0,0.0,0.0,0.0,0.0,0.0,0.0,0.0,0.0,0.0,0.0,0.0,0.0,1.097,1.1137,1.1122,1.1153,1.1177,1.1193,1.1291,1.1459,1.1459,1.1564,1.1726,1.1794,0.0,1.1161,1.1019,0.0,0.0,0.0,0.0,0.0,0.0,0.0,0.0,0.0,0.0,0.0,0.0,0.0,0.0,0.0,0.0,0.0,0.0,0.0,0.0,0.0,0.0,1.1788,1.179,1.1764,1.1706,1.1528,1.0391,0.9416,0.9476,0.9475,0.9516,0.0,0.0,0.0,0.0,0.0,0.0,1.0707,1.1075,1.1351,1.1444,1.1575,1.1183,0.9986,1.0159,0.9791,0.8496,0.894,0.9553,1.0206,0.9491,0.0,0.0,0.0,0.0,0.0,0.0,0.0,0.0,0.0,0.0,0.0,0.0,0.0,0.0,0.0,0.0,0.0,0.0,0.0,0.0,0.0,0.0,0.0,0.0,0.0,0.0,0.0,0.0,0.0,0.9608,0.9616,0.9905,0.9835,0.9811,0.0,0.0,0.0,0.0,0.0,0.0,0.0,0.0,0.0,1.1143,1.1126,1.1248,1.1533,1.1435,1.1461,1.1649,1.1649,1.1761,1.1955,1.1955,1.1996,1.2077,1.2134,1.2037,1.181,1.1752,1.1663,1.1557,0.0,0.0,0.0,0.0,1.1368,1.1456,1.1456,1.149,1.1533,1.1508,0.0,0.0,0.0,0.0,0.0,0.0,0.0,1.185,1.2181,1.2207,1.22,1.2307,1.2106,1.1867,1.1816,1.1103,1.0424,1.0295,1.0177,1.0163,1.0329,1.047,0.0,0.0,0.0,1.1255,1.1688,1.1883,1.2204,1.2728,1.2875,1.2702,1.2162,1.1696,1.1125,1.0369,0.9968,0.9892,1.0205,1.0208,1.0103,0.0,0.0,0.0,0.0,0.0,0.0,0.0,0.0,0.0,0.0,0.0,0.0,0.0,0.0,0.0,0.0,0.0,0.0,0.0,0.0,0.0,0.0,0.0,0.0,0.0,0.0,0.0,0.0,1.0572,1.0412,1.0799,1.0451,1.0246,0.0,0.0,0.0,0.0,0.0,0.0,1.1187,1.125,1.1354,1.1492,1.1437,1.155,1.1856,1.1752,1.1826,1.2086,1.2086,1.2159,1.2304,1.2304,1.2304,1.2296,1.2353,1.2377,1.2369,1.232,1.2207,1.2086,1.2086,1.2028,1.193,1.193,1.1954,1.1995,1.1995,1.2027,1.2028,1.189,1.1809,1.1744,1.1606,0.0,0.0,0.0,0.0,1.2159,1.2515,1.2483,1.2418,1.2613,1.2355,1.2059,1.2059,1.1834,1.152,1.1087,1.0886,1.0838,1.1016,1.1047,0.0,1.1729,1.1565,1.1637,1.2284,1.2402,1.269,1.3373,1.3499,1.3563,1.3666,1.2808,1.219,1.2047,1.1257,1.0711,1.0498,1.0929,1.0819,1.0123,0.0,0.0,0.0,0.0,0.0,0.0,0.0,0.0,0.0,0.0,0.0,0.0,0.0,0.0,0.0,0.0,0.0,0.0,0.0,0.0,0.0,0.0,0.0,0.0,0.0,0.0,0.0,0.0,0.0,1.2534,1.1606,0.0,0.0,0.0,0.0,1.1163,1.1171,1.1187,1.1195,1.1372,1.1492,1.15,1.1802,1.1965,1.1989,1.2167,1.2272,1.2272,1.2272,1.228,1.2304,1.2304,1.2304,1.2312,1.2499,1.258,1.2572,1.2377,1.2288,1.2272,1.2272,1.2288,1.2264,1.2264,1.2401,1.2556,1.2556,1.2637,1.275,1.2742,1.2653,1.2539,1.2531,1.2401,0.0,0.0,1.2288,1.2337,1.2547,1.2588,1.2613,1.2767,1.2766,1.2742,1.2742,1.2639,1.2338,1.1689,1.1555,1.1591,1.1732,0.0,1.1323,1.1743,1.1886,1.2101,1.2529,1.3135,1.3532,1.3575,1.3756,1.388,1.3888,1.3645,1.3506,1.3497,1.3311,1.3134,1.2933,1.2057,1.1896,1.2618,1.0652,0.0,0.0,0.0,0.0,0.0,0.0,0.0,0.0,0.0,0.0,0.0,0.0,0.0,0.0,0.0,0.0,0.0,0.0,0.0,0.0,0.0,0.0,0.0,0.0,0.0,0.0,0.0,0.0,1.1602,1.1317,0.0,1.1201,1.1315,1.1388,1.1388,1.1508,1.163,1.1705,1.177,1.1883,1.2012,1.2126,1.2191,1.2191,1.2256,1.2361,1.2491,1.2491,1.2532,1.2613,1.2613,1.2613,1.2637,1.2694,1.2726,1.2718,1.2653,1.2613,1.2613,1.2613,1.2613,1.2613,1.2613,1.267,1.2726,1.2637,1.2637,1.2645,1.2515,1.245,1.2417,1.2417,1.245,1.2491,1.2491,1.2556,1.2645,1.271,1.2726,1.2734,1.2791,1.2807,1.2831,1.2978,1.2968,1.289,1.2781,1.2378,1.2124,1.2404,1.231,1.2399,1.2873,1.2705,1.2657,1.3066,1.3213,1.3364,1.3574,1.3781,1.3904,1.3904,1.3829,1.3748,1.3617,1.357,1.3465,1.3296,1.2831,1.2402,1.2039,1.1105,1.0419,0.0,0.0,0.0,0.0,0.0,0.0,0.0,0.0,0.0,0.0,0.0,0.0,0.0,0.0,0.0,0.0,0.0,0.0,0.0,0.0,0.0,0.0,0.0,0.0,0.0,1.3521,1.3041,1.3027,1.276,1.2611,1.2683,1.2469,1.2314,1.2314,1.2108,1.2004,1.2102,1.211,1.2167,1.2304,1.2361,1.2393,1.2393,1.2515,1.2645,1.2775,1.2841,1.2914,1.3002,1.3002,1.3002,1.3002,1.3002,1.3002,1.3002,1.3002,1.3002,1.2986,1.2848,1.2807,1.2807,1.2889,1.2856,1.2799,1.2783,1.2816,1.2849,1.2702,1.267,1.2653,1.2588,1.267,1.2751,1.2686,1.2726,1.2807,1.2807,1.2848,1.2905,1.2905,1.2953,1.3035,1.3165,1.3238,1.3295,1.3377,1.3008,1.2733,1.2956,1.2887,1.2978,1.3461,1.3169,1.3043,1.3414,1.341,1.3444,1.3681,1.3813,1.3904,1.3904,1.3992,1.3959,1.3724,1.3812,1.3756,1.3474,1.3465,1.3118,1.239,1.1774,1.1046,1.0217,0.0,0.0,0.0,0.0,0.0,0.0,0.0,0.0,0.0,0.0,0.0,0.0,0.0,0.0,0.0,0.0,0.0,0.0,0.0,0.0,0.0,0.0,0.0,1.7951,1.7228,1.6748,1.692,1.5936,1.5325,1.5529,1.4514,1.3833,1.3858,1.2886,1.2296,1.2312,1.2305,1.2344,1.2392,1.2547,1.2653,1.2685,1.2963,1.31,1.3108,1.3304,1.3402,1.3402,1.3402,1.3402,1.3402,1.3402,1.3402,1.3402,1.3402,1.3402,1.3353,1.297,1.2823,1.284,1.3043,1.2994,1.2848,1.3043,1.3239,1.3402,1.3402,1.3402,1.3353,1.3174,1.31,1.3068,1.2864,1.2823,1.2823,1.2823,1.2962,1.31,1.31,1.3255,1.341,1.341,1.3514,1.3561,1.3442,1.3419,1.3401,1.341,1.3092,1.2972,1.335,1.3243,0.0,1.3573,1.3789,1.3912,1.392,1.392,1.392,1.392,1.4219,1.4267,1.3937,1.4219,1.416,1.365,1.3985,1.4093,1.3888,1.2645,1.1816,1.1458,0.0,0.0,0.0,0.0,0.0,0.0,0.0,0.0,0.0,0.0,0.0,0.0,0.0,0.0,0.0,0.0,0.0,0.0,0.0,0.0,0.0,1.9004,1.8537,1.7561,1.6701,1.6086,1.58,1.4798,1.4192,1.4343,1.3245,1.2572,1.2731,1.2461,1.2361,1.2499,1.2605,1.3216,1.4435,1.3637,1.368,1.4762,1.3815,1.3312,1.3312,1.3361,1.3402,1.3402,1.3402,1.3402,1.3402,1.3402,1.3402,1.3402,1.3402,1.3402,1.3394,1.3279,1.3239,1.3247,1.3296,1.3279,1.3247,1.3296,1.3345,1.3402,1.3402,1.3402,1.3394,1.3328,1.3312,1.3304,1.3255,1.3239,1.3239,1.3239,1.3279,1.3312,1.3312,1.3353,1.3426,1.3521,1.3577,1.3633,1.3742,1.3758,1.3717,1.357,1.3563,1.3644,1.3758,1.3728,1.3773,1.3992,1.4075,1.4148,1.4251,1.4267,1.4267,1.4267,1.4357,1.4354,1.4276,1.4261,1.418,1.4034,1.3862,1.3683,1.354,1.2333,1.2094,0.0,0.0,0.0,0.0,0.0,0.0,0.0,0.0,0.0,0.0,0.0,0.0,0.0,0.0,0.0,0.0,0.0,0.0,0.0,0.0,0.0,0.0,1.9826,1.9605,1.8599,1.7858,1.7408,1.7357,1.6806,1.6458,1.6526,1.5696,1.5084,1.4956,1.4753,1.4649,1.4612,1.4205,1.4416,1.5397,1.4113,1.3814,1.4677,1.3872,1.381,1.4457,1.4501,1.4866,1.5463,1.4831,1.4527,1.451,1.3884,1.3613,1.3613,1.3613,1.3572,1.3482,0.0,0.0,0.0,0.0,1.3483,1.3597,1.3506,1.353,1.3613,1.3613,1.3613,1.3597,1.3506,1.3482,1.3474,1.3427,1.3402,1.3402,1.3402,1.3442,1.3482,1.3482,1.3556,1.362,1.3708,1.3732,1.3789,1.3985,1.4036,0.0,1.3941,1.4002,1.4042,1.4097,1.4105,1.4146,1.427,1.4286,1.43,1.4387,1.4395,1.4395,1.4395,1.4551,0.0,0.0,0.0,1.4491,1.4399,1.4178,0.0,0.0,0.0,1.2924,1.3402,1.2244,0.0,0.0,0.8722,0.6883,0.0,0.0,0.0,0.0,0.0,0.0,0.0,0.0,0.0,0.0,0.0,0.0,0.0,0.0,0.0,0.0,2.0532,2.0641,2.0399,1.9922,1.9761,2.0197,2.0155,2.009,2.013,1.9598,1.9075,1.8554,1.813,1.7694,1.7213,1.6362,0.0,0.0,0.0,1.4044,1.4216,1.4162,1.4824,1.6188,1.6135,1.6801,1.8068,1.6517,1.5813,1.5714,1.4424,1.3872,1.3872,1.3896,1.3797,1.3617,1.3474,1.3418,1.3426,1.3459,1.3645,1.3862,1.3708,0.0,0.0,1.3904,1.3904,1.3872,1.3682,1.3624,1.3601,1.3491,1.3467,1.3467,1.3467,1.3571,1.3666,1.3642,1.3805,1.3953,1.3937,1.3945,1.401,1.419,1.4223,1.428,1.4413,1.4318,1.4261,1.4371,1.4395,1.4403,1.4419,1.4427,1.4435,1.447,1.447,0.0,1.447,1.4781,1.4849,1.4495,1.4773,1.4881,1.4665,1.4676,1.4521,1.4207,1.4174,1.3922,1.3418,1.2448,1.1955,1.1867,1.0453,0.8519,0.0,0.0,0.0,0.0,0.0,0.0,0.0,0.0,0.0,0.0,0.0,0.0,0.0,0.0,0.0,2.0632,2.0842,2.1082,2.1301,2.1018,2.0735,2.0617,1.9898,1.9465,1.9627,1.8617,1.7989,1.8028,1.7955,1.7332,1.6011,1.7008,1.7611,1.7611,1.7496,1.8007,1.9197,1.805,1.7617,1.7896,1.6678,0.0,1.6329,1.4798,1.4031,1.3905,1.3733,1.3658,1.3666,1.3829,1.388,1.3813,1.3625,1.3561,1.3577,1.375,1.3839,1.3896,1.3863,1.3872,1.3904,1.3904,1.3904,1.3896,1.3846,1.3838,0.0,1.3807,1.3798,1.3798,1.3798,1.3937,1.4034,1.3888,1.4081,1.4276,1.4174,1.4229,1.4306,1.4357,1.4365,1.4422,1.4608,1.4486,1.4373,1.4405,1.4395,1.4462,1.4616,1.4632,1.4708,1.4865,1.4881,1.4881,1.4881,1.4966,1.4974,1.489,1.4797,1.4676,1.4478,1.4462,1.4391,1.4198,1.4034,1.3839,1.3561,1.3234,1.2645,1.1777,1.0062,0.8862,0.0,0.0,0.0,0.0,0.0,0.0,0.0,0.0,0.0,0.0,0.0,2.0857,2.0558,0.0,2.1186,2.1154,2.1263,2.147,2.1797,2.1784,2.1657,2.1379,2.0909,2.0633,2.074,2.0447,2.0162,1.9978,2.0226,1.9984,1.9048,1.9221,1.9341,1.9341,1.8726,1.8746,1.9489,1.8764,1.8764,1.9489,1.8584,1.8665,1.9541,1.7739,1.704,1.7211,1.6374,1.5999,1.5999,1.5999,1.5599,1.4982,1.4894,1.4401,1.3765,1.3854,1.3904,1.3904,1.3904,1.3904,1.3904,1.3904,1.3904,1.392,1.401,1.406,1.4058,1.4121,1.4146,1.413,1.4066,1.4172,1.4261,1.4083,1.4219,1.4371,1.4308,1.4357,1.4419,1.4535,1.4551,1.4608,1.4825,1.4776,1.47,1.47,1.47,1.4732,1.4841,1.4857,1.489,1.4998,1.5006,1.5006,1.5006,1.5006,1.5006,1.5006,1.4906,1.4757,1.4559,1.4551,1.447,1.431,1.4194,1.4105,1.3998,1.3927,1.3628,1.3075,1.2173,1.0724,0.0,0.0,0.0,0.0,0.0,0.0,0.0,2.0809,2.1072,2.0593,2.1,2.1438,2.1298,2.1385,2.1534,2.1744,2.1765,2.1886,2.2227,2.246,2.2485,2.2211,2.2168,2.2168,2.2168,2.2612,2.2693,2.2208,2.2626,2.265,2.209,2.1414,2.0906,2.0612,1.9733,1.9269,1.9269,1.9325,1.9953,2.1131,2.0665,2.1319,2.2828,2.0869,2.0212,2.0544,1.9135,1.8547,1.8561,1.8413,1.7693,1.6708,1.6708,1.5792,1.445,1.4127,1.4002,1.4002,1.4002,1.4002,1.4002,1.4002,1.4002,1.4034,1.418,1.4247,1.4253,1.4373,1.4395,1.4381,1.4261,1.4359,1.4422,1.427,1.4383,1.4511,1.4478,1.45,1.4597,1.4762,1.4819,1.4911,1.5069,1.5093,1.5077,1.5044,1.5036,1.5052,1.5085,1.5093,1.5093,1.5093,1.5093,1.5093,1.5093,1.5093,1.5093,1.5093,1.506,1.4979,1.4795,1.4773,1.4657,1.4452,1.4503,1.4486,1.4395,1.4446,1.4446,1.4395,1.4395,1.2838,1.9975,2.002,2.0006,2.0079,2.0181,2.04,0.0,2.1145,2.1263,2.1493,2.2018,2.2259,2.1674,2.2042,2.2428,2.2402,2.234,2.2459,2.2843,2.313,2.3168,2.2834,2.28,2.28,2.28,2.2853,2.2867,2.28,2.2853,2.2284,2.0887,2.1975,2.2022,2.0647,2.1781,2.2413,2.2413,2.2641,2.2824,2.2977,2.1871,2.1392,2.1386,1.9844,1.9067,1.8976,1.8946,1.9036,1.9203,1.9181,1.9073,1.8932,1.8932,1.7982,1.6388,1.4883,1.4338,1.4338,1.4338,1.4338,1.4338,1.4338,1.4338,1.4357,1.4381,1.4389,1.4389,1.4405,1.4395,1.4405,1.4371,1.4519,1.4616,1.443,1.4659,1.4881,1.4708,1.4908,1.5116,1.5132,1.5298,1.5411,1.5427,1.5435,1.5379,1.5197,1.5184,1.5249,1.5411,1.5435,1.5435,1.5435,1.5435,1.5435,1.5435,1.5435,1.5435,1.5435,1.5281,1.5176,1.514,1.5025,1.4873,1.4665,1.4849,1.4768,1.4395,1.4576,1.4576,1.4395,1.4395,1.4032,2.0706,2.1072,2.132,2.1116,2.135,2.1628,2.1759,2.2052,2.2285,2.2237,2.272,2.3112,2.2816,2.2989,2.3221,2.3351,2.319,2.3242,2.3792,2.38,2.3765,2.3816,2.3441,2.3116,2.2911,2.2893,2.2893,2.2893,2.2893,2.2619,2.1971,2.2551,2.2602,2.1953,2.2722,2.314,2.314,2.3434,2.3581,2.3581,2.2878,2.269,2.2919,2.1948,2.1558,2.1678,2.1754,2.183,2.1839,2.0868,2.0043,1.9269,1.8283,1.7038,1.5792,1.5843,1.5237,1.4395,1.4395,1.4395,1.4411,1.4535,1.4576,1.4616,1.48,1.4865,1.4889,1.5014,1.4965,1.486,1.4773,1.4797,1.4857,1.4776,1.4935,1.513,1.5171,1.5273,1.5359,1.5359,1.5444,1.5492,1.5492,1.5492,1.5508,1.5545,1.5444,1.5411,1.5484,1.5492,1.5492,1.5492,1.5492,1.5492,1.5492,1.5492,1.5492,1.5492,1.5427,1.5359,1.5359,1.5325,1.5252,1.516,1.5252,1.5212,1.5046,1.5119,1.5119,1.5046,1.5046,1.4969,2.1408,2.1818,2.214,2.1906,2.2169,2.2462,2.233,2.2725,2.3046,2.29,2.334,2.3717,2.3708,2.3715,2.381,2.4092,2.3851,2.3834,2.4416,2.4292,2.4139,2.419,2.3901,2.3526,2.3082,2.3047,2.2996,2.2911,2.2979,2.2996,2.2893,2.3077,2.3117,2.301,2.3391,2.3535,2.3429,2.3865,2.4013,2.3906,2.3843,2.3986,2.4302,2.3857,2.379,2.4026,2.4026,2.408,2.4056,2.2851,2.1847,2.0957,1.9755,1.8443,1.7348,1.8271,1.6927,1.4622,1.467,1.4695,1.473,1.4868,1.4916,1.4976,1.5216,1.5278,1.5302,1.546,1.5403,1.5265,1.5155,1.5134,1.5134,1.5134,1.522,1.5322,1.5403,1.5492,1.5577,1.5508,1.5573,1.5638,1.5638,1.5638,1.5687,1.5829,1.5719,1.5638,1.5638,1.5638,1.5638,1.5638,1.5638,1.5638,1.5638,1.5638,1.5638,1.5638,1.5598,1.5585,1.5585,1.5525,1.5492,1.5492,1.5541,1.5561,1.5492,1.5561,1.5541,1.5492,1.5492,1.5492,2.2169,2.2184,2.2199,2.2184,2.2199,2.2287,2.2534,2.2856,2.3193,2.3501,2.3837,2.4061,2.4003,2.3992,2.4106,2.4438,2.4207,2.4105,2.4445,2.4478,2.4224,2.3526,2.4037,2.4173,2.3458,2.3389,2.3253,2.2911,2.3201,2.3236,2.2911,2.3521,2.3701,2.3296,2.3934,2.4101,2.379,2.4449,2.4566,2.4195,2.4842,2.4941,2.4586,2.4572,2.4559,2.4572,2.4572,2.4751,2.5056,2.4999,2.5116,2.5312,2.5254,2.4265,2.2867,2.2894,1.9631,1.5205,1.5403,1.5468,1.5468,1.5468,1.5468,1.5476,1.5484,1.5484,1.5492,1.5492,1.5492,1.5484,1.5484,1.5476,1.5476,1.5476,1.5484,1.5444,1.5245,1.552,1.5735,1.5545,1.5756,1.5991,1.5991,1.5991,1.5991,1.5999,1.5991,1.5991,1.5991,1.5991,1.5991,1.5991,1.5991,1.5991,1.5991,1.5991,1.5991,1.5991,1.5861,1.5784,1.5784,1.5601,1.5492,1.5492,1.5683,1.5683,1.5492,1.5703,1.5703,1.5492,1.5492,1.5492,2.274,2.2798,2.2798,2.2798,2.2798,2.2886,2.3193,2.3354,2.3588,2.4146,2.4351,2.4494,2.4698,2.474,2.4769,2.4885,2.4798,2.4764,2.4883,2.4899,2.4815,2.4561,2.4495,2.4394,2.4139,2.3696,2.3458,2.3611,2.3701,2.3776,2.3897,2.4065,2.4229,2.4366,2.4549,2.47,2.4857,2.5256,2.5263,2.4869,2.4817,2.4728,2.4613,2.4818,2.493,2.4943,2.5112,2.5258,2.5295,2.4221,2.3831,2.3791,2.2717,2.1981,2.1507,2.1665,2.0576,1.8868,1.7645,1.7232,1.7061,1.6023,1.5711,1.5727,1.5809,1.5829,1.5829,1.5829,1.578,1.5711,1.5711,1.5601,1.5525,1.5678,1.5711,1.5699,1.5723,1.5849,1.5914,1.5837,1.5926,1.6007,1.6007,1.6007,1.6007,1.6007,1.6007,1.6007,1.6007,1.6007,1.6007,1.6007,1.6007,1.6007,1.6007,1.6007,1.6007,1.6007,1.5971,1.593,1.593,1.5882,1.5877,1.6032,1.6097,1.6154,1.6219,1.6154,1.6097,1.6032,1.5877,1.5829,2.3031,2.309,2.309,2.309,2.3178,2.334,2.3545,2.3795,2.4073,2.4514,2.469,2.4836,2.5073,2.5102,2.5102,2.5102,2.5188,2.52,2.51,2.5171,2.5149,2.4914,2.4781,2.4706,2.4684,2.4257,2.4017,2.4137,2.4233,2.4383,2.4568,2.4787,2.4955,2.5079,2.5266,2.5433,2.5542,2.5866,2.5856,2.5543,2.5038,2.4906,2.5144,2.52,2.5332,2.5459,2.5495,2.5571,2.5588,2.4572,2.4197,2.4188,2.314,2.2749,2.2741,2.2886,2.2925,2.2585,2.0079,1.9214,1.9045,1.8048,1.7315,1.6813,1.6893,1.6492,1.6007,1.6007,1.5938,1.5869,1.5869,1.5837,1.5821,1.5955,1.6036,1.6077,1.6007,1.6056,1.6076,1.5955,1.6028,1.6117,1.6117,1.6174,1.6214,1.6214,1.6214,1.6174,1.6023,1.6007,1.6007,1.6007,1.6007,1.6007,1.6007,1.6007,1.6007,1.6007,1.6007,1.6007,1.6007,1.6064,1.6165,1.63,1.6373,1.6462,1.6605,1.6462,1.6397,1.6397,1.6263,1.6214,2.309,2.3105,2.3135,2.3135,2.3384,2.3618,2.3663,2.4146,2.4602,2.4617,2.488,2.5102,2.5102,2.5102,2.5102,2.5102,2.5315,2.5386,2.513,2.5315,2.5249,2.4621,2.4895,2.5111,2.5054,2.5048,2.4907,2.4525,2.4852,2.5032,2.4978,2.5627,2.5848,2.5492,2.6082,2.6221,2.5855,2.6235,2.6369,2.6257,2.5522,2.5515,2.6091,2.5722,2.5755,2.608,2.5711,2.5738,2.6011,2.6011,2.6185,2.6406,2.6406,2.6406,2.6406,2.6406,2.6406,2.5931,2.2611,2.1424,2.1323,2.1242,2.0079,1.8728,1.8626,1.7439,1.6102,1.6028,1.6015,1.6015,1.6015,1.6165,1.6316,1.6316,1.6454,1.6508,1.6104,1.6182,1.6219,1.5898,1.6109,1.6316,1.6316,1.6462,1.6597,1.6589,1.6589,1.6446,1.6072,1.6031,1.6031,1.6031,1.6031,1.6031,1.6031,1.6031,1.6031,1.6031,1.6031,1.6031,1.6031,1.6206,1.6324,1.6332,1.6503,1.6622,1.663,1.6622,1.6614,1.6614,1.6605,1.6605,2.309,2.3281,2.3471,2.3471,2.372,2.4044,2.4278,2.4485,2.4675,2.491,2.5027,2.5102,2.5102,2.5102,2.5102,2.5102,2.5159,2.5188,2.51,2.5159,2.521,2.5251,2.5334,2.5483,2.5717,2.5761,2.5813,2.5953,2.5826,2.5851,2.6084,2.6207,2.638,2.6594,2.6466,2.6491,2.6692,2.6739,2.6882,2.7084,2.6593,2.6274,2.6104,2.6246,2.622,2.6026,2.6124,2.6232,2.6299,2.6299,2.6339,2.6406,2.6406,2.6406,2.6406,2.6406,2.6406,2.6268,2.537,2.4223,2.2923,2.1625,2.0888,2.0282,1.8983,1.828,1.7676,1.6369,1.6117,1.6214,1.6214,1.6373,1.6511,1.6511,1.6565,1.6573,1.6462,1.65,1.65,1.641,1.6467,1.6511,1.6511,1.6573,1.6557,1.6397,1.6373,1.6389,1.6438,1.6446,1.6446,1.6446,1.6446,1.6446,1.6446,1.6446,1.6446,1.6446,1.6446,1.6446,1.6446,1.6508,1.6576,1.6663,1.672,1.6822,1.6974,1.6822,1.6744,1.6758,1.6641,1.6605,2.3281,2.3457,2.3648,2.3779,2.4073,2.4382,2.4558,2.4719,2.4866,2.5056,2.5102,2.5102,2.5102,2.5102,2.5102,2.5102,2.5186,2.523,2.5132,2.5335,2.5491,2.5486,2.5634,2.5854,2.6175,2.6219,2.6369,2.6691,2.6409,2.6362,2.6705,2.6681,2.6765,2.6983,2.6928,2.704,2.7389,2.7211,2.7268,2.7564,2.7182,2.6908,2.6757,2.6781,2.6635,2.6433,2.6418,2.6406,2.6406,2.6406,2.6406,2.6406,2.6406,2.6406,2.6406,2.6406,2.6406,2.6433,2.6533,2.5955,2.4937,2.384,2.245,2.1031,2.014,1.8809,1.7416,1.6501,1.6349,1.6422,1.6422,1.656,1.6698,1.6698,1.6755,1.6795,1.6714,1.6698,1.6674,1.6614,1.6532,1.6508,1.6589,1.6605,1.6565,1.6438,1.6422,1.6462,1.6589,1.6446,1.6349,1.6349,1.6349,1.6381,1.6454,1.6483,1.6516,1.6597,1.6605,1.6605,1.6605,1.6657,1.6725,1.6809,1.6882,1.6993,1.7112,1.6993,1.6922,1.6922,1.6839,1.6812,2.3515,2.3662,2.3793,2.4088,2.4426,2.4675,2.4675,2.488,2.5102,2.5102,2.5102,2.5102,2.5102,2.5102,2.5102,2.5102,2.5303,2.5374,2.513,2.5579,2.5839,2.5605,2.5868,2.619,2.653,2.6574,2.6691,2.6987,2.672,2.6691,2.6969,2.7045,2.7071,2.7115,2.7393,2.77,2.7951,2.7667,2.7674,2.7951,2.759,2.7518,2.7673,2.7333,2.715,2.7071,2.6643,2.6485,2.6485,2.6426,2.6406,2.6406,2.6406,2.6413,2.6453,2.6453,2.6466,2.6547,2.68,2.686,2.6841,2.6607,2.4474,2.2,2.1935,1.9815,1.7404,1.7353,1.7349,1.7375,1.7375,1.7468,1.7504,1.7274,1.7347,1.734,1.6893,1.6793,1.6749,1.6609,1.6446,1.6389,1.6573,1.66,1.6622,1.6573,1.6589,1.6581,1.654,1.6255,1.6072,1.6072,1.6072,1.6157,1.6324,1.6341,1.6422,1.6609,1.6638,1.6646,1.667,1.6782,1.6841,1.6841,1.7009,1.7112,1.7112,1.7112,1.7112,1.7112,1.7112,1.7112,2.3574,2.4,2.4439,2.4499,2.4763,2.4998,2.4998,2.5073,2.5102,2.5102,2.5102,2.5102,2.5102,2.5102,2.5102,2.5102,2.5144,2.5159,2.5117,2.5374,2.5678,2.5883,2.6205,2.6544,2.6866,2.691,2.6943,2.7002,2.6958,2.6943,2.7002,2.7265,2.751,2.7736,2.7794,2.7984,2.8306,2.8263,2.839,2.8715,2.8637,2.8452,2.8191,2.8113,2.7863,2.7476,2.7077,2.6913,2.6874,2.6544,2.6406,2.6406,2.6406,2.6533,2.6727,2.6727,2.6907,2.7141,2.7195,2.7208,2.7208,2.7155,2.6742,2.5975,2.4557,2.3724,2.2958,2.1536,2.1274,2.1376,2.1376,2.1499,2.1212,1.9718,1.9398,1.8936,1.7188,1.6709,1.6638,1.6605,1.6573,1.6565,1.6597,1.6685,1.6663,1.6397,1.6479,1.647,1.6157,1.632,1.6508,1.6508,1.6508,1.6524,1.6549,1.6549,1.6609,1.6752,1.676,1.6847,1.7015,1.7047,1.7041,1.7041,1.7074,1.7112,1.7112,1.7112,1.7112,1.7112,1.7112,1.7112,2.4029,2.4368,2.4646,2.4822,2.4968,2.5102,2.5102,2.5102,2.5102,2.5102,2.4954,2.488,2.5073,2.4954,2.4895,2.5056,2.5102,2.5102,2.5102,2.5476,2.5824,2.5985,2.6457,2.6822,2.6969,2.7002,2.7075,2.725,2.7265,2.7265,2.7265,2.7554,2.7857,2.816,2.816,2.8321,2.8666,2.8647,2.8739,2.8905,2.8905,2.8686,2.8309,2.8309,2.804,2.7594,2.7412,2.7396,2.7568,2.737,2.7246,2.7182,2.7182,2.7136,2.7054,2.7054,2.7168,2.7322,2.7462,2.7516,2.7542,2.771,2.6951,2.5812,2.5081,2.4222,2.3346,2.2573,2.2438,2.2503,2.2503,2.1859,2.097,2.0112,1.9143,1.8165,1.7173,1.6822,1.6701,1.6701,1.6568,1.6438,1.6438,1.6511,1.6457,1.619,1.6324,1.6373,1.6182,1.623,1.6279,1.6279,1.6279,1.6341,1.643,1.6549,1.6657,1.6801,1.689,1.7001,1.7104,1.7112,1.7112,1.7112,1.7112,1.7112,1.7112,1.7112,1.7112,1.7112,1.7112,1.7112,2.4441,2.4661,2.4763,2.5027,2.5102,2.5102,2.5102,2.5102,2.5088,2.5015,2.4836,2.4863,2.5342,2.5273,2.5228,2.5513,2.5541,2.5438,2.5207,2.5652,2.6029,2.6102,2.6632,2.7002,2.7002,2.7056,2.7221,2.747,2.7631,2.7686,2.7686,2.7901,2.816,2.8501,2.8515,2.8632,2.8905,2.8905,2.8905,2.8905,2.8905,2.8744,2.8431,2.8431,2.8279,2.7987,2.7889,2.8032,2.8328,2.8247,2.8146,2.8043,2.8043,2.7839,2.7546,2.7546,2.7525,2.7523,2.773,2.781,2.785,2.8112,2.696,2.5483,2.5652,2.4734,2.3661,2.3778,2.3802,2.3802,2.3802,2.2729,2.1489,2.0667,1.8723,1.7033,1.7033,1.6895,1.6752,1.6752,1.6539,1.6365,1.6365,1.6397,1.6344,1.6165,1.6287,1.6368,1.6316,1.6165,1.6047,1.6007,1.6039,1.6133,1.6292,1.647,1.6657,1.6801,1.696,1.705,1.7112,1.7112,1.7112,1.7112,1.7112,1.7112,1.7112,1.7112,1.7112,1.7112,1.7112,1.7112,2.4499,2.4822,2.5056,2.5086,2.5102,2.5102,2.5102,2.5102,2.4998,2.4705,2.4866,2.5357,2.6362,2.6733,2.6905,2.7002,2.6953,2.6593,2.5587,2.5781,2.6102,2.6427,2.6778,2.7002,2.7002,2.728,2.747,2.7499,2.8022,2.8306,2.8306,2.8335,2.8515,2.8842,2.8842,2.8856,2.8905,2.8905,2.8905,2.8905,2.8905,2.8866,2.8827,2.8827,2.8988,2.922,2.8843,2.8851,2.9076,2.8712,2.8564,2.8551,2.8551,2.8433,2.8303,2.8303,2.8218,2.8133,2.816,2.8138,2.8173,2.82,2.8054,2.788,2.7894,2.7801,2.7675,2.768,2.7693,2.7693,2.7693,2.7553,2.6588,2.3159,1.9516,1.6833,1.6833,1.6709,1.663,1.663,1.6597,1.6573,1.6573,1.6668,1.6717,1.6581,1.6668,1.6639,1.6349,1.6292,1.6198,1.6023,1.6165,1.6284,1.63,1.647,1.6657,1.6801,1.6825,1.6906,1.7082,1.7112,1.7112,1.7112,1.7112,1.7112,1.7112,1.7112,1.7112,1.7112,1.7112,1.7112,2.4514,2.4836,2.5102,2.5102,2.5102,2.5305,2.6116,2.5678,2.5295,2.5965,2.6072,2.5991,2.5785,2.6354,2.665,2.6051,2.6602,2.6727,2.5648,2.6528,2.7069,2.6546,2.6793,2.7089,2.728,2.7412,2.766,2.8003,2.8442,2.871,2.871,2.871,2.8769,2.8905,2.8905,2.8905,2.8905,2.8905,2.8905,2.8905,2.8905,2.9008,2.9198,2.9198,2.9374,2.9696,2.9536,2.9644,2.9914,2.9751,2.9641,2.9565,2.9565,2.9367,2.9042,2.875,2.8732,2.8794,2.8351,2.8312,2.8412,2.8245,2.82,2.82,2.82,2.82,2.82,2.82,2.82,2.82,2.82,2.7363,2.5853,2.3223,2.1418,2.029,2.029,2.0244,1.9885,1.8798,1.8494,1.8059,1.6918,1.676,1.6744,1.663,1.6717,1.676,1.6606,1.6535,1.6487,1.6485,1.6376,1.63,1.63,1.6555,1.6736,1.6809,1.6906,1.7017,1.7112,1.7112,1.7112,1.7112,1.7112,1.7112,1.7112,1.7112,1.7112,1.7112,1.7112,1.7112,2.4613,2.4836,2.5102,2.5102,2.5029,2.5237,2.627,2.6023,2.5845,2.6779,2.7228,2.7311,2.6895,2.7491,2.7818,2.7055,2.7466,2.749,2.6418,2.7046,2.7382,2.6729,2.6939,2.725,2.747,2.7675,2.7993,2.8515,2.8769,2.8905,2.8905,2.8905,2.8905,2.8905,2.8905,2.8905,2.8905,2.8905,2.8964,2.9052,2.9052,2.9227,2.9555,2.9555,2.9731,3.0053,3.0053,3.0229,3.0536,3.0536,3.0461,3.0373,3.0373,3.0102,2.9677,2.9425,2.9331,2.924,2.8806,2.8679,2.8698,2.8505,2.8425,2.8425,2.8425,2.8393,2.8326,2.8326,2.8259,2.82,2.82,2.68,2.5075,2.3738,2.3009,2.26,2.26,2.26,2.2213,2.0948,2.057,1.9893,1.8044,1.7719,1.7504,1.6841,1.6822,1.6866,1.6817,1.6717,1.669,1.672,1.6571,1.6441,1.6441,1.6725,1.6882,1.6882,1.7025,1.7112,1.7112,1.7112,1.7112,1.7112,1.7112,1.7112,1.7112,1.7112,1.7112,1.7112,1.7112,1.7112,2.4846,2.4836,2.5102,2.5102,2.4851,2.469,2.5029,2.5938,2.6693,2.671,2.8014,2.9518,3.0635,3.1063,3.124,3.1224,3.0363,2.9312,2.8223,2.7168,2.6635,2.6958,2.7294,2.7499,2.7499,2.8033,2.853,2.8856,2.8905,2.8905,2.8905,2.8905,2.8905,2.8905,2.8905,2.8905,2.8905,2.8905,2.9066,2.9388,2.9388,2.9564,2.9892,2.9892,3.0082,3.039,3.039,3.0545,3.0796,3.0796,3.0796,3.0776,3.0776,3.054,3.0208,3.048,3.0042,2.9337,2.9603,2.9366,2.8988,2.8988,2.8988,2.8988,2.8988,2.881,2.8604,2.8604,2.8398,2.82,2.82,2.68,2.5394,2.5385,2.3952,2.26,2.26,2.26,2.26,2.2579,2.2579,2.1997,2.0168,1.9873,1.9242,1.7367,1.7104,1.7025,1.6833,1.6809,1.6758,1.6622,1.6717,1.6779,1.6779,1.6985,1.7112,1.7112,1.7112,1.7112,1.7112,1.7112,1.7112,1.7112,1.7112,1.7112,1.7112,1.7112,1.7112,1.7112,1.7112,1.7112,2.6999,2.7034,2.6987,2.6577,2.6899,2.7442,2.7834,2.8163,2.8685,2.9643,3.0282,3.0447,2.9856,3.0588,3.0985,3.003,3.0659,3.0901,2.9817,2.9582,2.9338,2.8899,2.8406,2.812,2.812,2.8505,2.8783,2.8886,2.8905,2.9008,2.9227,2.9242,2.9139,2.892,2.9125,2.9242,2.9242,2.9462,2.9643,2.9745,2.9745,2.9921,3.0243,3.0243,3.0399,3.0671,3.0671,3.0729,3.0796,3.0796,3.0796,3.0796,3.0796,3.0728,3.0625,3.0607,3.0361,3.0021,2.9772,2.9536,2.9312,2.9068,2.9001,2.9028,2.9285,2.8991,2.8564,2.8371,2.8259,2.82,2.82,2.7757,2.7321,2.7321,2.6864,2.6439,2.6439,2.6439,2.6045,2.4755,2.452,2.3909,2.2062,2.071,1.97,1.9099,1.7906,1.7066,1.7017,1.7009,1.6985,1.695,1.6977,1.696,1.6817,1.6993,1.7112,1.7112,1.7112,1.7112,1.7112,1.7112,1.7112,1.7112,1.7112,1.7112,1.7112,1.7112,1.7112,1.7112,1.7112,1.7112,2.8232,2.8157,2.8174,2.7949,2.8291,2.8769,2.9113,2.9535,3.0128,3.1109,3.1723,3.1819,3.0936,3.1499,3.1859,3.1152,3.1696,3.2014,3.1485,3.1375,3.1042,3.0205,2.9098,2.8437,2.8574,2.8783,2.8944,2.9081,2.9095,2.9227,2.9564,2.9599,2.9491,2.9286,2.9476,2.9599,2.9599,2.9804,2.9965,3.0082,3.0082,3.0258,3.0545,3.0545,3.0642,3.0796,3.0796,3.0796,0.0,3.0796,3.0796,3.0796,3.0796,3.0884,3.0988,3.1034,3.0859,3.0544,3.0364,3.0015,2.9619,2.941,2.9344,2.9357,2.9459,2.9254,2.8871,2.8585,2.8425,2.8326,2.824,2.82,2.82,2.82,2.82,2.82,2.82,2.82,2.7862,2.6673,2.5875,2.4797,2.2923,2.11,1.9656,1.8946,1.7849,1.7112,1.7112,1.7169,1.7185,1.712,1.7169,1.7123,1.6922,1.7025,1.7112,1.7112,1.7112,1.7112,1.7112,1.7112,1.7112,1.7112,1.7112,1.7112,1.7112,1.7112,1.7112,1.7112,1.7112,1.7112,0.0,2.8595,2.8892,2.9275,2.9216,2.914,2.9309,3.0247,0.0,3.1372,3.2457,3.3383,3.3324,3.3383,3.3578,3.3981,3.3284,3.2852,3.3258,3.265,3.1781,3.0746,2.9332,2.8559,2.8856,2.8934,2.9047,2.9374,2.9418,2.9579,2.9921,2.9936,2.995,2.9945,2.9945,2.9965,2.9936,2.9965,3.0126,3.0434,3.0434,3.056,3.0796,3.0796,3.0796,3.0796,3.0796,3.0796,3.0796,3.0796,3.0796,3.0811,3.0826,3.1016,3.1323,3.171,3.1433,3.0931,3.1217,3.0683,2.9891,2.9891,2.9891,2.9838,2.9593,2.9521,2.9419,2.9081,2.881,2.8537,2.8286,2.8205,2.82,2.82,2.82,2.82,2.82,2.82,2.82,2.82,2.68,2.5053,2.3288,2.1381,1.9504,1.7762,1.7274,1.7128,1.709,1.7283,1.7331,1.7106,1.7274,1.7315,1.7145,1.712,1.7112,1.7112,1.7112,1.7112,1.7112,1.7112,1.7112,1.7112,1.7112,1.7112,1.7112,1.7112,1.7112,1.7112,1.7112,1.7112,3.1188,0.0,3.0813,3.0811,3.1331,3.1668,0.0,3.1859,3.2728,3.25,3.2948,3.3207,3.2593,3.3277,3.3864,3.3597,3.4215,3.4869,3.5256,3.3911,3.1886,2.9267,2.8869,2.8812,2.8886,2.9139,2.9315,2.9388,2.9643,2.9936,3.0258,3.0273,3.039,3.0577,3.0598,3.0481,3.0273,3.0501,3.0642,3.0715,3.0715,3.0738,3.0796,3.0796,3.0796,3.0796,3.0796,3.0796,3.0796,3.0796,3.0796,3.0826,3.1074,3.122,3.1373,3.1959,3.1641,3.0931,3.1217,3.0683,2.9891,2.9891,2.9891,2.9878,2.9833,2.9659,2.9419,2.9081,2.881,2.8591,2.8524,2.8345,2.82,2.82,2.82,2.82,2.82,2.82,2.82,2.82,2.7841,2.7405,2.6948,2.4156,2.1824,2.1381,1.9038,1.7266,1.7128,1.7366,1.7439,1.7123,1.7274,1.7372,1.7323,1.7193,1.7112,1.7112,1.7112,1.7112,1.7112,1.7112,1.7112,1.7112,1.7112,1.7112,1.7112,1.7112,1.7112,1.7112,1.7112,1.7112,3.1964,3.2007,3.1888,3.2179,3.2672,3.2921,3.239,3.2707,3.3051,3.2832,3.2969,3.3047,3.2808,3.3492,3.4137,3.4297,3.5081,3.5957,3.676,3.5335,3.3366,3.1105,3.0477,2.9948,2.9184,2.9432,2.9681,2.9848,3.0024,3.0273,3.0574,3.0589,3.0642,3.0796,3.0796,3.0723,3.0589,3.0744,3.0796,3.0796,3.0796,3.0796,3.0796,3.0796,3.0796,3.0796,3.0796,3.0796,3.0796,3.0796,3.0899,3.1045,3.122,3.149,3.1798,3.217,3.1909,3.1392,3.1304,3.0683,2.9891,2.9891,2.9891,2.9891,2.9891,2.9806,2.9619,2.9325,2.901,2.8756,2.8623,2.8398,2.82,2.82,2.82,2.82,2.82,2.82,2.82,2.82,2.749,2.6906,2.6906,2.3835,2.136,2.136,1.9096,1.7348,1.725,1.7528,1.7642,1.7358,1.7518,1.7599,1.751,1.739,1.7333,1.7333,1.7333,1.7293,1.7242,1.7242,1.7201,1.709,1.7112,1.7112,1.7112,1.7112,1.7112,1.7112,1.7112,1.7112,3.1964,3.2198,3.2378,3.3187,3.3402,3.3383,3.3324,3.3031,3.2773,3.2715,3.2808,3.2988,3.3265,3.3848,3.4508,3.5176,3.5784,3.6498,3.7414,3.6434,3.5061,3.3596,3.2458,3.1183,2.962,2.9789,3.0097,3.0375,3.0434,3.056,3.0782,3.0796,3.0796,3.0796,3.0796,3.0796,3.0796,3.0796,3.0796,3.0796,3.0796,3.0796,3.0796,3.0796,3.0796,3.0796,3.0796,3.0796,3.0811,3.0855,3.103,3.1315,3.1417,3.1798,3.2317,3.2361,3.2222,3.1921,3.1374,3.0616,2.9891,2.9891,2.9891,2.9891,2.9891,2.9891,2.9838,2.9619,2.9277,2.8956,2.8716,2.8438,2.82,2.82,2.82,2.82,2.82,2.82,2.82,2.82,2.6906,2.5844,2.5881,2.3041,2.0783,2.0874,1.9145,1.7867,1.789,1.7919,1.7853,1.7619,1.7788,1.7828,1.7651,1.7658,1.7674,1.7698,1.7627,1.7552,1.7429,1.7404,1.7315,1.7153,1.7128,1.7112,1.7112,1.7112,1.7112,1.7112,1.7112,1.7112,3.1964,3.2198,3.2378,3.3187,3.3402,3.3304,3.2969,3.2832,3.2711,3.2359,3.2832,3.3226,3.2949,3.416,3.5098,3.4844,3.6094,3.6809,3.5976,3.5999,3.51,3.2407,3.1921,3.1276,2.9944,3.0126,3.0331,3.041,3.0618,3.0753,3.0796,3.0796,3.0796,3.0796,3.0796,3.0796,3.0796,3.0796,3.0796,3.0796,3.0796,3.0796,3.0796,3.0796,3.0796,3.0796,3.0796,3.0796,3.0826,3.1124,3.125,3.1373,3.1915,3.2214,3.2332,3.261,3.241,3.1877,3.0995,3.0361,2.9891,2.9891,2.9891,2.9891,2.9891,2.9891,2.9878,2.9838,2.9437,2.8988,2.8948,2.8585,2.82,2.82,2.82,2.82,2.82,2.82,2.82,2.82,2.7968,2.7836,2.8078,2.612,2.4736,2.5236,2.2248,1.998,2.0101,1.8955,1.8005,1.7635,1.7788,1.7885,1.7853,1.7853,1.794,1.811,1.7788,1.7578,1.7577,1.7461,1.7394,1.7348,1.7193,1.7112,1.7112,1.7112,1.7112,1.7112,1.7112,1.7112,3.2203,3.2461,3.2672,3.3246,3.3402,3.3363,3.3184,3.2969,3.2812,3.2832,3.3129,3.348,3.3769,3.4687,3.5547,3.6035,3.6973,3.7523,3.7224,3.7551,3.7017,3.476,3.4852,3.414,3.1748,3.1823,3.1633,3.0695,3.0723,3.0796,3.0796,3.0796,3.0796,3.0796,3.0796,3.0796,3.0796,3.0796,3.0796,3.0796,3.0796,3.0796,3.0796,3.0796,3.0796,3.0796,3.0796,3.0899,3.1074,3.1256,3.152,3.1871,3.2185,3.2419,3.258,3.2742,3.2454,3.1943,3.1521,3.104,3.066,3.066,3.066,3.0616,3.0348,3.0294,3.0227,2.9958,2.9477,2.9001,2.9001,2.8591,2.82,2.82,2.82,2.82,2.82,2.82,2.82,2.82,2.82,2.8232,2.8358,2.6719,2.5539,2.5969,2.3721,2.1668,2.0829,2.0153,1.9277,1.8064,1.8005,1.8054,1.8054,1.8054,1.8095,1.8191,1.7909,1.7763,1.7763,1.7601,1.7504,1.7504,1.7348,1.7258,1.7258,1.7161,1.7112,1.7112,1.7112,1.7112,3.2409,3.2627,3.2773,3.3285,3.3402,3.3402,3.3402,3.3148,3.3066,3.348,3.3636,3.3968,3.4844,3.5469,3.6208,3.7266,3.7775,3.8205,3.8671,3.9101,3.8778,3.7235,3.7557,3.6609,3.3339,3.3249,3.2669,3.0921,3.0796,3.0796,3.0796,3.0796,3.0796,3.0796,3.0796,3.0796,3.0796,3.0796,3.0796,3.0796,3.0796,3.0796,3.0796,3.0796,3.0796,3.0811,3.0884,3.106,3.1308,3.1476,3.1827,3.2317,3.239,3.258,3.28,3.28,3.2454,3.1988,3.1988,3.1685,3.1293,3.1293,3.1293,3.1204,3.075,3.0593,3.0504,3.0025,2.9517,2.9103,2.9015,2.8644,2.8272,2.8205,2.82,2.82,2.82,2.8245,2.8286,2.8286,2.8353,2.8419,2.8486,2.7247,2.6354,2.6711,2.5202,2.3616,2.2406,2.1971,2.1028,1.9099,1.889,1.868,1.8246,1.8199,1.8199,1.8199,1.8054,1.7981,1.7981,1.778,1.766,1.766,1.7512,1.7429,1.7411,1.7242,1.7153,1.7112,1.7112,1.7112,3.2409,3.2446,3.2418,3.3207,3.3402,3.3402,3.3402,3.3383,3.348,3.3961,3.4352,3.4883,3.5745,3.6601,3.7324,3.7775,3.8242,3.869,3.9101,3.9551,3.9336,3.7988,3.7867,3.6715,3.3655,3.3392,3.2669,3.0921,3.0796,3.0796,3.0796,3.0796,3.0796,3.0796,3.0796,3.0796,3.0796,3.0796,3.0796,3.0796,3.0796,3.0796,3.0796,3.0796,3.0796,3.0826,3.1118,3.1285,3.1359,3.1959,3.2258,3.2332,3.2639,3.2771,3.28,3.28,3.2454,3.1988,3.1988,3.1685,3.1293,3.1293,3.1293,3.1204,3.075,3.0593,3.0504,3.0025,2.9686,2.9392,2.909,2.8783,2.8497,2.8259,2.82,2.82,2.82,2.8398,2.8577,2.8577,2.877,2.9037,2.9339,2.9043,2.8947,2.9526,2.7698,2.635,2.6522,2.4933,2.3045,2.1098,2.089,2.0149,1.8363,1.8199,1.8199,1.8199,1.8191,1.8175,1.8175,1.7989,1.7877,1.7877,1.7698,1.752,1.7411,1.7394,1.7283,1.7112,1.7112,1.7112,3.3124,3.3151,3.3086,3.3688,3.3844,3.3844,3.3844,3.4023,3.4336,3.4821,3.5234,3.5764,3.666,3.7267,3.7814,3.8262,3.8691,3.9121,3.957,4.0,4.0084,3.9586,3.9776,3.9088,3.684,3.6637,3.545,3.2628,3.2417,3.1943,3.0859,3.0796,3.0796,3.0796,3.0796,3.0796,3.0796,3.0796,3.0796,3.0796,3.0796,3.0796,3.0796,3.0796,3.0913,3.1118,3.1235,3.1549,3.1929,3.22,3.2419,3.2624,3.2742,3.28,3.28,3.28,3.2653,3.2498,3.2498,3.2387,3.2232,3.2232,3.2232,3.2085,3.1285,3.104,3.0884,3.0115,2.9833,2.9624,2.9121,2.8796,2.8577,2.8457,2.8452,2.8484,2.8657,2.877,2.885,2.885,2.8921,2.9028,2.917,2.9068,2.9157,2.9593,2.8919,2.8029,2.7123,2.6332,2.5104,2.3114,2.1826,2.0797,2.0066,1.889,1.8199,1.8199,1.8199,1.8199,1.8199,1.8134,1.8079,1.8079,1.7877,1.7755,1.7713,1.7599,1.7488,1.7415,1.7331,1.7283,3.3622,3.3605,3.3519,3.3981,3.4114,3.4212,3.4606,3.4902,3.5254,3.572,3.623,3.6779,3.7383,3.7931,3.8418,3.8749,3.9258,3.9708,4.0039,4.0449,4.0723,4.0723,4.1015,4.0529,3.8764,3.8606,3.7157,3.3654,3.3408,3.2644,3.088,3.0796,3.0796,3.0796,3.0796,3.0796,3.0796,3.0796,3.0796,3.0796,3.0796,3.0796,3.0811,3.0913,3.1074,3.1308,3.1534,3.1871,3.2317,3.2419,3.2595,3.28,3.28,3.28,3.28,3.28,3.28,3.28,3.28,3.28,3.28,3.28,3.28,3.2609,3.1596,3.1293,3.1093,3.016,2.9891,2.9784,2.929,2.901,2.8858,2.8743,2.8729,2.8783,2.8948,2.9068,2.9157,2.9157,2.9304,2.941,2.9304,2.937,2.9477,2.9606,2.9619,2.9205,2.8051,2.7918,2.716,2.5172,2.3206,2.1757,2.1144,1.988,1.8843,1.8246,1.8199,1.8199,1.8199,1.8199,1.8199,1.8199,1.8062,1.7973,1.7893,1.7763,1.765,1.7536,1.7445,1.7378,3.3702,3.362,3.3519,3.3981,3.4114,3.445,3.5706,3.6018,3.6135,3.6619,3.7344,3.7912,3.7912,3.8633,3.9199,3.9219,3.9922,4.0508,4.0508,4.0898,4.1191,4.1191,4.1191,4.0509,3.8784,3.8626,3.7197,3.3715,3.3429,3.2649,3.0921,3.0811,3.0796,3.0796,3.0796,3.0796,3.0796,3.0796,3.0796,3.0796,3.0811,3.0811,3.0826,3.1147,3.1294,3.1359,3.2002,3.2302,3.2332,3.2654,3.28,3.28,3.28,3.28,3.28,3.28,3.28,3.28,3.28,3.28,3.28,3.28,3.28,3.2609,3.1618,3.1293,3.1106,3.0182,2.9913,2.9847,2.9588,2.9508,2.9428,2.909,2.9001,2.9001,2.9001,2.9285,2.9508,2.9508,2.9976,3.0283,2.9944,3.019,3.0283,2.9944,2.9891,2.9891,2.9891,2.9891,2.9159,2.7228,2.5241,2.3252,2.1319,2.1144,2.0311,1.8386,1.8246,1.8223,1.8199,1.8199,1.8199,1.8199,1.8199,1.8095,1.7893,1.7893,1.7737,1.7419,1.7419,1.7291,3.3736,3.3887,3.4,3.443,3.498,3.5625,3.6345,3.6502,3.668,3.7402,3.7736,3.8087,3.8693,3.9043,3.9414,4.0001,4.0332,4.0606,4.0957,4.1113,4.1191,4.1191,4.1191,4.1016,4.047,4.0431,3.9491,3.7237,3.5914,3.4474,3.271,3.1482,3.0796,3.0796,3.0796,3.0796,3.0796,3.0796,3.0796,3.0811,3.103,3.1147,3.1168,3.125,3.1563,3.2002,3.2214,3.2434,3.2654,3.2756,3.28,3.28,3.28,3.28,3.28,3.28,3.28,3.28,3.28,3.28,3.28,3.28,3.28,3.2675,3.201,3.1788,3.1663,3.1062,3.0884,3.0856,3.0795,3.0768,3.0521,2.9573,2.9352,2.9406,2.9597,2.9704,2.978,2.978,3.0123,3.0373,3.027,3.0323,3.0373,3.027,3.0047,2.9891,2.9891,2.9891,2.9689,2.9115,2.7273,2.5878,2.5298,2.3951,2.2885,2.231,2.1005,1.9625,1.8269,1.8199,1.8199,1.8199,1.8199,1.8175,1.8118,1.8118,1.8069,1.7963,1.7819,1.7729,3.4048,3.4379,3.4665,3.4922,3.5491,3.6213,3.6992,3.7185,3.7402,3.8262,3.8419,3.8634,3.9355,3.9609,3.9883,4.041,4.0645,4.0879,4.1152,4.1191,4.1191,4.1191,4.1191,4.1191,4.1191,4.1191,4.047,3.8724,3.7616,3.5974,3.3531,3.2397,3.1523,3.0817,3.0796,3.0796,3.0796,3.0796,3.0869,3.1001,3.106,3.1235,3.1505,3.1637,3.1915,3.2317,3.2449,3.261,3.28,3.28,3.28,3.28,3.28,3.28,3.28,3.28,3.28,3.28,3.28,3.28,3.28,3.28,3.28,3.2712,3.2165,3.1988,3.1899,3.144,3.1293,3.1293,3.1293,3.1293,3.1073,3.0153,2.9935,2.9922,2.9896,2.9891,2.9891,2.9891,3.0247,3.0524,3.0426,3.0578,3.0644,3.0417,3.0114,2.9891,2.9891,2.9891,2.9891,2.9891,2.8854,2.785,2.7057,2.5901,2.4853,2.4054,2.2908,2.1734,2.0543,1.9029,1.8199,1.8199,1.8199,1.8199,1.8199,1.8199,1.8167,1.807,1.7965,1.7853,3.4441,3.4972,3.541,3.5466,3.5859,3.6545,3.7756,3.8048,3.8302,3.9043,3.9238,3.9414,3.9863,4.0254,4.0508,4.0567,4.0918,4.1191,4.1191,4.1191,4.1191,4.1191,4.1191,4.1191,4.1191,4.1191,4.0529,3.8961,3.8685,3.7157,3.3817,3.349,3.2603,3.0859,3.0796,3.0811,3.0855,3.0826,3.0972,3.13,3.1016,3.1206,3.1812,3.2076,3.2229,3.2273,3.258,3.2727,3.2742,3.2742,3.2771,3.28,3.28,3.28,3.28,3.28,3.28,3.28,3.28,3.28,3.28,3.28,3.28,3.2697,3.221,3.2077,3.1988,3.1552,3.1426,3.1426,3.1426,3.1426,3.1307,3.0794,3.0616,3.0495,3.0088,2.9976,2.9944,2.9993,3.0448,3.0755,3.0511,3.0875,3.1022,3.0471,3.0114,2.9891,2.9891,2.9891,2.9891,2.9891,2.9891,2.9182,2.7408,2.7273,2.6468,2.4648,2.4374,2.4259,2.4259,2.0705,1.8657,1.8479,1.8447,1.8386,1.8199,1.8199,1.8118,1.794,1.794,1.7828,3.4103,3.4792,3.5469,3.5784,3.6953,3.8202,3.8789,3.9219,3.9414,3.9238,3.9492,3.9883,4.0293,4.045,4.0625,4.0996,4.1133,4.1191,4.1191,4.1191,4.1191,4.1191,4.1191,4.1191,4.1191,4.1191,4.1055,4.0665,3.9374,3.7675,3.5551,3.4127,3.2603,3.0859,3.0796,3.0928,3.1177,3.0928,3.0972,3.1294,3.149,3.1666,3.1783,3.1607,3.1666,3.19,3.1973,3.2149,3.2405,3.2405,3.2566,3.28,3.28,3.28,3.28,3.28,3.28,3.28,3.28,3.28,3.28,3.28,3.28,3.2778,3.2653,3.2631,3.2609,3.2498,3.2476,3.2476,3.2476,3.2476,3.2254,3.1374,3.0861,3.0639,3.0818,3.0555,3.035,3.0555,3.0889,3.1092,3.1049,3.1119,3.1022,3.0471,3.0114,2.9891,2.9891,2.9891,2.9891,2.9891,2.9891,2.9734,2.9317,2.9272,2.9092,2.8652,2.7205,2.6355,2.6355,2.4054,2.2034,2.052,2.0473,1.9741,1.8199,1.8199,1.8175,1.8142,1.8142,1.8118,3.4092,3.4684,3.5312,3.635,3.7754,3.8926,3.9141,3.9726,4.0137,3.9864,4.0019,4.0332,4.0762,4.084,4.0937,4.1152,4.1191,4.1191,4.1191,4.1191,4.1191,4.1191,4.1191,4.1191,4.1191,4.1191,4.1191,4.1191,4.0353,3.9078,3.7337,3.6376,3.4701,3.2128,3.2198,3.1963,3.1315,3.13,3.1446,3.1783,3.1783,3.1798,3.1798,3.1944,3.2105,3.2288,3.2288,3.239,3.2537,3.2537,3.2639,3.28,3.28,3.28,3.28,3.28,3.28,3.28,3.28,3.28,3.28,3.28,3.28,3.28,3.28,3.28,3.28,3.28,3.28,3.28,3.28,3.28,3.2675,3.2129,3.1463,3.0858,3.0573,3.0321,3.0257,3.0551,3.0822,3.1039,3.1173,3.1092,3.0915,3.0631,3.0194,2.9891,2.9891,2.9891,2.9891,2.9891,2.9891,2.9891,2.9891,2.9891,2.9891,2.9891,2.8944,2.8391,2.8391,2.7363,2.5468,2.254,2.2494,2.1988,2.0982,2.0982,2.0982,2.0959,2.0019,1.9578,3.4195,3.4822,3.5488,3.6934,3.832,3.9316,3.9316,4.0,4.0625,4.0625,4.0625,4.0742,4.1133,4.1191,4.1191,4.1191,4.1191,4.1191,4.1191,4.1191,4.1191,4.1191,4.1191,4.1191,4.1191,4.1191,4.1191,4.1191,4.1191,4.0431,3.8685,3.8661,3.7243,3.4041,3.3982,3.3327,3.1949,3.1852,3.1959,3.2302,3.2017,3.1915,3.1988,3.2551,3.2727,3.2624,3.2624,3.2654,3.2712,3.2712,3.2742,3.28,3.28,3.28,3.28,3.28,3.28,3.28,3.28,3.28,3.28,3.28,3.28,3.28,3.28,3.28,3.28,3.28,3.28,3.28,3.28,3.28,3.2778,3.2675,3.2018,3.1209,3.0407,3.0173,3.0186,3.0426,3.0644,3.0862,3.1092,3.0915,3.0738,3.0738,3.0261,2.9891,2.9891,2.9891,2.9891,2.9891,2.9891,2.9891,2.9891,2.9891,2.9891,2.9891,2.9891,2.9891,2.9891,2.9891,2.8359,2.5081,2.4693,2.4351,2.4008,2.4008,2.4008,2.3962,2.2356,2.1596,3.4402,3.5706,3.7012,3.7246,3.8555,3.9805,3.9805,4.0488,4.1113,4.1113,4.1113,4.1133,4.1191,4.1191,4.1191,4.1191,4.1191,4.1191,4.1191,4.1191,4.1191,4.1191,4.1191,4.1191,4.1191,4.1191,4.1191,4.1191,4.1191,4.0431,3.8685,3.8935,3.8195,3.6229,3.5043,3.4435,3.4517,3.2716,3.1959,3.2302,3.2258,3.239,3.2668,3.2756,3.2478,3.1929,3.1929,3.209,3.2375,3.2375,3.2537,3.28,3.28,3.28,3.28,3.28,3.28,3.28,3.28,3.28,3.28,3.28,3.28,3.28,3.28,3.28,3.28,3.28,3.28,3.28,3.28,3.28,3.2675,3.221,3.201,3.1837,3.1598,3.1239,3.0904,3.0767,3.0791,3.0808,3.0849,3.0631,3.0444,3.0444,3.0127,2.9891,2.9891,2.9891,2.9891,2.9891,2.9891,2.9891,2.9891,2.9891,2.9891,2.9891,2.9891,2.9891,2.9891,2.9891,2.9644,2.9115,2.7454,2.5741,2.4008,2.4008,2.4008,2.3985,2.3733,2.3619,3.4254,3.5662,3.6983,3.7496,3.8398,3.9315,3.9785,4.0371,4.0879,4.1133,4.1191,4.1191,4.1191,4.1191,4.1191,4.1191,4.1191,4.1191,4.1191,4.1191,4.1191,4.1191,4.1191,4.1191,4.1191,4.1191,4.1289,4.1523,4.1543,4.1287,4.0765,3.9953,3.9157,3.8464,3.6032,3.4805,3.5002,3.323,3.2434,3.258,3.258,3.2654,3.28,3.28,3.2639,3.2361,3.2361,3.2449,3.258,3.258,3.2668,3.28,3.28,3.28,3.28,3.28,3.28,3.28,3.28,3.28,3.28,3.28,3.28,3.28,3.28,3.28,3.28,3.28,3.28,3.28,3.28,3.28,3.2741,3.2498,3.2454,3.2342,3.1981,3.1337,3.0781,3.0602,3.0698,3.0795,3.0795,3.0578,3.04,3.04,3.0114,2.9891,2.9891,2.9891,2.9891,2.9891,2.9891,2.9891,2.9891,2.9891,2.9891,2.9891,2.9891,2.9891,2.9891,2.9891,2.9891,2.9891,2.907,2.8188,2.7308,2.7308,2.7308,2.7273,2.6196,2.5673,3.4235,3.5438,3.6561,3.7618,3.8236,3.8846,3.9824,4.0274,4.0625,4.1094,4.1191,4.1191,4.1191,4.1191,4.1191,4.1191,4.1191,4.1191,4.1191,4.1191,4.1191,4.1191,4.1191,4.1191,4.1191,4.1289,4.1484,4.1777,4.1894,4.207,4.2382,4.123,4.0616,4.0716,3.7954,3.6467,3.6526,3.4965,3.3946,3.3477,3.3477,3.3249,3.28,3.28,3.28,3.28,3.28,3.28,3.28,3.28,3.28,3.28,3.28,3.28,3.28,3.28,3.28,3.28,3.28,3.28,3.28,3.28,3.28,3.28,3.28,3.28,3.28,3.28,3.28,3.28,3.28,3.28,3.28,3.28,3.28,3.2609,3.1966,3.1173,3.0527,3.032,3.0421,3.0568,3.0568,3.0417,3.027,3.027,3.006,2.9891,2.9891,2.9891,2.9891,2.9891,2.9891,2.9891,2.9891,2.9891,2.9891,2.9891,2.9891,2.9891,2.9891,2.9891,2.9931,3.0034,3.0034,3.0034,3.0034,3.0034,3.006,3.0095,2.863,2.7958,3.462,3.5348,3.6141,3.7483,3.82,3.8925,4.0176,4.0489,4.0625,4.1094,4.1191,4.1191,4.1191,4.1191,4.1191,4.1191,4.1191,4.1191,4.1191,4.1191,4.1191,4.1191,4.1191,4.1191,4.1191,4.1523,4.1777,4.1797,4.2148,4.2382,4.2402,4.2731,4.2945,4.2945,4.1476,4.0677,4.0695,3.8856,3.7074,3.5352,3.5352,3.445,3.28,3.28,3.28,3.28,3.28,3.28,3.28,3.28,3.28,3.28,3.28,3.28,3.28,3.28,3.28,3.28,3.28,3.28,3.28,3.28,3.28,3.28,3.28,3.28,3.28,3.28,3.28,3.28,3.28,3.28,3.28,3.28,3.28,3.252,3.1552,3.095,3.0473,3.0007,2.9931,2.9967,2.9967,2.9953,2.994,2.994,2.9904,2.9891,2.9891,2.9891,2.9891,2.9891,2.9891,2.9891,2.9891,2.9891,2.9891,2.9891,2.9891,2.9891,2.9891,2.9891,3.0047,3.0373,3.0364,3.0364,3.0364,3.0364,3.0497,3.0755,3.065,3.0603,3.4947,3.5463,3.6082,3.7754,3.8356,3.8721,3.9433,4.0073,4.0547,4.0723,4.0996,4.1191,4.1191,4.1191,4.1191,4.1191,4.1191,4.1191,4.1191,4.1191,4.1191,4.1191,4.1426,4.1602,4.1602,4.1953,4.2324,4.2598,4.2754,4.2969,4.3222,4.229,4.2282,4.3435,4.0706,3.9197,3.9197,3.8537,3.7874,3.723,3.723,3.6885,3.6232,3.5068,3.4522,3.4478,3.3301,3.28,3.28,3.28,3.28,3.28,3.28,3.28,3.28,3.28,3.28,3.28,3.28,3.28,3.28,3.28,3.28,3.28,3.28,3.28,3.28,3.28,3.28,3.28,3.28,3.28,3.28,3.28,3.28,3.2609,3.1899,3.1374,3.0906,3.0437,3.0361,3.0249,2.9958,2.9891,2.9891,2.9891,2.9891,2.9891,2.9891,2.9891,2.9891,2.9891,2.9891,2.9891,2.9891,2.9891,2.9891,2.9891,2.9891,3.0007,3.0217,3.023,3.0364,3.0658,3.0658,3.0658,3.0658,3.0658,3.0711,3.0795,3.0795,3.0795,3.4928,3.5316,3.576,3.7466,3.8167,3.8624,3.9159,3.9906,4.0504,4.0703,4.0976,4.1191,4.1191,4.1191,4.1191,4.1191,4.1191,4.1191,4.1191,4.1191,4.125,4.1387,4.1621,4.1855,4.1992,4.2402,4.2754,4.3067,4.3223,4.3438,4.3691,4.2553,4.2449,4.367,4.1325,4.0044,4.0044,4.0044,3.9748,3.9133,3.9133,3.8494,3.7251,3.6053,3.5177,3.4529,3.3323,3.28,3.28,3.28,3.28,3.28,3.28,3.28,3.28,3.28,3.28,3.28,3.28,3.28,3.28,3.28,3.28,3.28,3.28,3.28,3.28,3.28,3.28,3.28,3.28,3.28,3.2815,3.291,3.2924,3.2865,3.2624,3.2042,3.1396,3.0928,3.0839,3.0683,3.0227,3.0137,3.0093,2.9913,2.9891,2.9891,2.9891,2.9891,2.9891,2.9891,2.9891,2.9891,2.9891,2.9891,2.9891,2.9891,3.0007,3.0176,3.04,3.0493,3.0658,3.0929,3.0942,3.0982,3.1112,3.0982,3.0982,3.1112,3.1112,3.1112,0.0,0.0,0.0,3.6587,3.7678,3.8643,3.949,4.007,4.059,4.1073,4.1191,4.1211,4.1191,4.1191,4.1191,4.1191,4.1191,4.1191,4.1191,4.1211,4.1367,4.1758,4.1816,4.1992,4.2382,4.2832,4.3126,4.3126,4.3476,4.3711,4.3711,4.3711,4.3711,4.3711,4.3711,4.3711,4.3711,4.3711,4.2822,4.1089,4.1047,3.9129,3.5668,3.5553,3.4538,3.2874,3.2808,3.28,3.28,3.28,3.28,3.28,3.28,3.28,3.28,3.28,3.28,3.28,3.28,3.28,3.28,3.28,3.28,3.28,3.28,3.28,3.28,3.28,3.2815,3.2815,3.2815,3.2815,3.2903,3.3143,3.3216,3.3304,3.3633,3.2827,3.1905,3.1446,3.1343,3.1201,3.0732,3.0643,3.0464,3.003,2.994,2.9918,2.9918,2.9918,2.9918,2.9918,2.9918,2.9918,2.9918,2.9918,2.9918,2.9918,3.023,3.0426,3.0426,3.0684,3.0942,3.1213,3.1213,3.1383,3.1687,3.1383,3.1383,3.1687,3.1687,3.1687,3.4635,0.0,0.0,0.0,0.0,0.0,3.9215,4.0298,4.1204,4.0727,4.1164,4.156,4.125,4.1191,4.1191,4.1191,4.1191,4.1191,4.1191,4.1445,4.168,4.1797,4.2364,4.2794,4.2911,4.3281,4.3535,4.3535,4.3633,4.3711,4.3711,4.3711,4.3711,4.3711,4.3711,4.3711,4.3711,4.3711,4.3443,4.2946,4.1635,4.0482,3.9384,3.6724,3.5243,3.4682,3.3367,3.28,3.28,3.28,3.28,3.28,3.28,3.28,3.28,3.28,3.28,3.28,3.28,3.28,3.28,3.28,3.28,3.28,3.28,3.28,3.2844,3.3019,3.3092,3.3151,3.3385,3.3443,3.3458,3.3537,3.3552,3.3604,3.3692,3.3447,3.309,3.2622,3.2532,3.2373,3.191,3.1523,3.1204,3.109,3.077,3.0555,3.0555,3.0555,3.0555,3.0555,3.0555,3.0555,3.0555,3.0555,3.0555,3.0555,3.0644,3.0791,3.0982,3.1039,3.1249,3.1567,3.1567,3.1607,3.1687,3.1607,3.1607,3.1687,3.1687,3.1687,3.4936,3.5418,3.5981,3.6742,0.0,0.0,3.8752,4.0108,4.1279,4.0777,4.1416,4.203,4.1992,4.1699,4.1504,4.1719,4.1445,4.1191,4.1191,4.1406,4.166,4.2011,4.25,4.2949,4.3321,4.3555,4.3711,4.3711,4.3711,4.3711,4.3711,4.3711,4.3711,4.3711,4.3711,4.3711,4.3711,4.3711,4.3711,4.369,4.2616,4.174,4.0921,3.8125,3.6415,3.5607,3.391,3.3173,3.3173,3.3173,3.3034,3.28,3.28,3.28,3.2815,3.2924,3.2968,3.2983,3.3129,3.3173,3.3173,3.3173,3.3173,3.3173,3.3173,3.3173,3.3217,3.3348,3.3406,3.345,3.3663,3.3706,3.3736,3.3882,3.3911,3.3955,3.4087,3.4116,3.3936,3.3408,3.3282,3.3145,3.2665,3.2331,3.1978,3.1565,3.1266,3.1026,3.0841,3.0795,3.0795,3.0795,3.0795,3.0795,3.0795,3.0795,3.0795,3.0795,3.0902,3.1049,3.1199,3.1319,3.149,3.1687,3.1687,3.1687,3.1687,3.1687,3.1687,3.1687,3.1687,3.1687,3.5293,3.5402,3.5588,3.6002,3.7115,0.0,3.8257,3.961,4.0878,4.1004,4.167,4.2383,4.2853,4.2327,4.1955,4.2406,4.1856,4.1308,4.1211,4.123,4.1523,4.2246,4.2382,4.2734,4.3555,4.3633,4.3652,4.3691,4.3711,4.3711,4.3711,4.3711,4.3711,4.3711,4.3711,4.3711,4.3711,4.3711,4.373,4.3789,4.3563,4.2648,4.1091,3.9516,3.7786,3.5987,3.4608,3.3911,3.3706,3.3706,3.337,3.2903,3.2903,3.2903,3.2932,3.3165,3.326,3.3304,3.3604,3.3706,3.3706,3.3706,3.3706,3.3706,3.3706,3.3706,3.3721,3.375,3.3794,3.3823,3.3823,3.3823,3.3896,3.4174,3.4247,3.4335,3.4651,3.471,3.4511,3.3926,3.3823,3.3672,3.3268,3.3154,3.281,3.1891,3.173,3.1522,3.1051,3.1027,3.1027,3.0912,3.0958,3.0958,3.0912,3.0889,3.0889,3.0889,3.1106,3.1253,3.1253,3.153,3.1687,3.1687,3.1687,3.1687,3.1687,3.1687,3.1687,3.1687,3.1687,3.1687,3.52,3.5433,3.5981,3.6064,3.6887,0.0,3.8131,3.9038,3.9936,4.0352,4.0908,4.1422,4.1886,4.1836,4.186,4.2335,4.2266,4.1935,4.1289,4.1484,4.1738,4.1894,4.2207,4.2616,4.3165,4.3223,4.336,4.3691,4.3711,4.3711,4.3711,4.3711,4.3711,4.3711,4.3711,4.3711,4.3711,4.3711,4.3887,4.4237,4.273,4.2031,4.198,4.0154,3.8302,3.6486,3.6162,3.515,3.3706,3.3706,3.3633,3.3516,3.3516,3.3516,3.3531,3.3589,3.3596,3.3596,3.3692,3.3706,3.3706,3.3706,3.3706,3.3706,3.3706,3.3706,3.3765,3.4028,3.4291,3.4496,3.4496,3.4496,3.4534,3.4592,3.4607,3.4622,3.4695,3.471,3.4666,3.4534,3.4496,3.4496,3.4365,3.4001,3.3659,3.3449,3.3112,3.269,3.2173,3.2455,3.2432,3.1621,3.1867,3.1938,3.1574,3.1527,3.1527,3.1527,3.158,3.1607,3.1607,3.166,3.1687,3.1687,3.1687,3.1687,3.1687,3.1687,3.1687,3.1687,3.1687,3.1687,3.6324,3.6121,3.6209,3.668,3.6804,0.0,0.0,3.8722,3.9299,3.9853,4.068,4.1434,4.1904,4.183,4.1825,4.2274,4.2179,4.1912,4.1496,4.166,4.1797,4.1797,4.1992,4.2265,4.2715,4.2754,4.293,4.3359,4.3594,4.3711,4.3711,4.3711,4.3711,4.3711,4.3711,4.3808,4.4043,4.4043,4.4277,4.4686,4.3758,4.3427,4.3592,4.1902,4.061,3.9654,3.8881,3.7453,3.5662,3.5662,3.5081,3.416,3.3838,3.3706,3.3736,3.3896,3.3955,3.397,3.4145,3.4189,3.4189,3.4189,3.4189,3.4189,3.4189,3.4189,3.4233,3.4394,3.4578,3.471,3.471,3.471,3.471,3.471,3.471,3.471,3.471,3.471,3.471,3.471,3.471,3.471,3.471,3.4484,3.4212,3.3939,3.3704,3.3375,3.2856,3.2786,3.2611,3.209,3.2043,3.1948,3.1711,3.1687,3.1687,3.1687,3.1687,3.1687,3.1687,3.1687,3.1687,3.1687,3.1687,3.1687,3.1687,3.1687,3.1687,3.1687,3.1687,3.1687,3.7591,3.6949,3.6519,3.7198,3.6804,3.658,0.0,0.0,0.0,3.9309,4.0302,4.1268,4.1901,4.1753,4.1644,4.198,4.1823,4.1583,4.1322,4.1513,4.168,4.1798,4.1817,4.1933,4.2246,4.2441,4.2636,4.295,4.3418,4.3711,4.3711,4.3711,4.375,4.3828,4.3828,4.4062,4.4512,4.4512,4.4726,4.5135,4.5135,4.5174,4.5209,4.4027,4.3067,4.2291,4.1037,3.9163,3.7038,3.7038,3.6119,3.4651,3.4101,3.3896,3.3926,3.4189,3.4291,3.4321,3.4607,3.471,3.471,3.471,3.471,3.471,3.471,3.471,3.471,3.471,3.471,3.471,3.471,3.471,3.471,3.471,3.471,3.471,3.471,3.471,3.471,3.471,3.471,3.471,3.471,3.471,3.4554,3.4118,3.4056,3.3869,3.3398,3.3059,3.2776,3.2587,3.2209,3.1948,3.183,3.1735,3.1687,3.1687,3.1687,3.1687,3.1687,3.1687,3.1687,3.1687,3.1687,3.1687,3.1687,3.1687,3.1687,3.1687,3.1687,3.1687,3.7943,3.7425,3.726,3.697,3.6804,3.6871,3.7459,0.0,3.7885,3.8711,0.0,3.9513,4.0817,0.0,0.0,4.1056,4.1377,4.1205,4.0019,4.0552,4.1264,4.1734,4.1798,4.1816,4.1875,4.2579,4.2871,4.2499,4.3242,4.3711,4.3711,4.3711,4.3887,4.4316,4.4316,4.4531,4.494,4.494,4.5154,4.5627,4.5627,4.5822,4.613,4.5973,4.4022,4.0746,4.0577,3.8418,3.5023,3.5023,3.4906,3.4695,3.4622,3.4592,3.4592,3.4636,3.4651,3.4651,3.4695,3.471,3.471,3.471,3.471,3.471,3.471,3.471,3.471,3.471,3.471,3.471,3.471,3.471,3.471,3.471,3.471,3.471,3.471,3.471,3.471,3.471,3.471,3.471,3.471,3.471,3.4686,3.4625,3.4601,3.4414,3.3892,3.4165,3.4109,3.3201,3.3045,3.2847,3.2374,3.1948,3.1687,3.1687,3.1687,3.1687,3.1687,3.1687,3.1687,3.1687,3.1687,3.1687,3.1687,3.1687,3.1687,3.1687,3.1687,3.1687,4.0217,3.9678,3.9288,3.8547,3.8158,3.8013,3.8199,3.8071,3.8022,3.8378,0.0,0.0,0.0,0.0,0.0,0.0,4.0279,4.0325,4.0003,4.0509,4.1053,4.1302,4.1588,4.1753,4.1797,4.2131,4.2363,4.2402,4.2988,4.3437,4.3691,4.3965,4.4199,4.4394,4.4629,4.4961,4.5391,4.541,4.5625,4.6035,4.6035,4.6133,4.6308,4.6308,4.4801,4.2188,4.2188,3.9976,3.6375,3.6375,3.5716,3.471,3.471,3.471,3.471,3.471,3.471,3.471,3.471,3.471,3.471,3.471,3.471,3.471,3.471,3.471,3.471,3.471,3.471,3.471,3.471,3.471,3.471,3.471,3.471,3.471,3.471,3.471,3.471,3.471,3.471,3.471,3.471,3.471,3.471,3.471,3.471,3.4625,3.439,3.4282,3.4071,3.3657,3.3351,3.3116,3.288,3.2398,3.2114,3.2114,3.1853,3.1687,3.1687,3.1687,3.1687,3.1687,3.1687,3.1687,3.1687,3.1687,3.1687,3.1687,3.1687,3.1687,4.1977,4.1374,4.0776,4.0202,3.9644,3.9171,3.9175,3.8961,3.8709,3.8585,3.846,0.0,0.0,0.0,3.8543,3.9064,0.0,3.9396,3.9447,3.9963,4.0502,4.0952,4.1403,4.1637,4.1434,4.1758,4.2033,4.2226,4.2773,4.3282,4.3691,4.4141,4.4453,4.457,4.4959,4.541,4.5861,4.5861,4.5996,4.6308,4.6308,4.6308,4.6308,4.6308,4.5238,4.3389,4.3389,4.1514,3.8402,3.8402,3.7246,3.5498,3.5498,3.5186,3.471,3.471,3.471,3.471,3.471,3.471,3.471,3.471,3.471,3.471,3.471,3.471,3.471,3.471,3.471,3.471,3.471,3.471,3.471,3.471,3.471,3.471,3.471,3.471,3.471,3.471,3.471,3.471,3.471,3.471,3.471,3.471,3.471,3.471,3.471,3.4352,3.4118,3.4118,3.3681,3.3375,3.3375,3.2904,3.2522,3.2298,3.1968,3.1668,3.146,3.1527,3.1567,3.1567,3.1647,3.1687,3.1687,3.1687,3.1687,3.1687,3.1687,3.1687,4.2389,4.1602,4.1004,4.1436,4.0838,4.0158,4.0161,4.0161,3.9999,3.9564,3.9109,3.8906,3.9399,3.9109,3.8654,3.8295,3.8572,0.0,0.0,3.8327,3.9412,4.0838,4.1408,4.1357,4.0543,4.1615,4.223,4.1856,4.2598,4.3282,4.3691,4.4141,4.459,4.4979,4.543,4.5881,4.6289,4.6289,4.6289,4.6308,4.6308,4.6308,4.6308,4.6308,4.5238,4.3389,4.3389,4.2255,4.0413,4.0413,3.9254,3.7522,3.7522,3.6375,3.471,3.471,3.471,3.471,3.471,3.471,3.471,3.471,3.471,3.471,3.471,3.471,3.471,3.471,3.471,3.471,3.471,3.471,3.471,3.471,3.471,3.471,3.471,3.471,3.471,3.471,3.471,3.471,3.471,3.471,3.471,3.471,3.471,3.471,3.471,3.4672,3.4686,3.4686,3.4188,3.3892,3.3892,3.3445,3.2826,3.2058,3.2007,3.1651,3.0858,3.1089,3.1213,3.1213,3.1517,3.1687,3.1687,3.1687,3.1687,3.1687,3.1687,3.1687,4.3366,4.3385,4.3447,4.2663,4.2683,4.2745,4.2127,4.1545,4.0903,4.0123,3.9126,3.846,3.8605,3.7988,3.7653,3.8125,3.8046,3.7943,0.0,3.8464,3.8996,3.9494,4.0552,4.1125,4.0818,4.1252,4.1618,4.1797,4.2324,4.2832,4.3282,4.4004,4.4569,4.4998,4.5449,4.59,4.6289,4.6308,4.6308,4.6308,4.6308,4.6308,4.6308,4.6308,4.5238,4.3389,4.3389,4.23,4.0503,4.0503,4.0096,3.9391,3.8104,3.7199,3.6452,3.5171,3.471,3.471,3.471,3.471,3.471,3.471,3.471,3.471,3.471,3.471,3.471,3.471,3.471,3.471,3.471,3.471,3.471,3.471,3.471,3.471,3.471,3.471,3.471,3.471,3.471,3.471,3.471,3.471,3.471,3.471,3.471,3.471,3.471,3.471,3.471,3.471,3.4531,3.4437,3.4437,3.3791,3.3229,3.2821,3.2594,3.2334,3.2075,3.1845,3.1713,3.1653,3.1457,3.1476,3.1687,3.1687,3.1687,3.1687,3.1687,3.1687,4.4256,4.4298,4.4319,4.3575,4.3596,4.3678,4.3244,4.258,4.1938,4.1506,4.0344,3.9492,3.9806,3.8854,3.8195,3.8812,3.8378,3.8026,0.0,3.8423,3.8589,3.8589,3.9992,4.0965,4.1003,4.1182,4.1516,4.1993,4.2246,4.2597,4.3067,4.3946,4.4569,4.4998,4.5449,4.59,4.6289,4.6308,4.6308,4.6308,4.6308,4.6308,4.6308,4.6308,4.5612,4.4428,4.4428,4.3719,4.2568,4.2568,4.2165,4.1406,4.0141,3.8837,3.7361,3.5428,3.471,3.471,3.471,3.471,3.471,3.471,3.471,3.471,3.471,3.471,3.4724,3.4841,3.4783,3.4724,3.4865,3.4783,3.471,3.471,3.471,3.471,3.471,3.471,3.471,3.471,3.471,3.471,3.471,3.471,3.471,3.471,3.471,3.471,3.471,3.471,3.471,3.471,3.471,3.471,3.471,3.4216,3.3756,3.3323,3.3093,3.2868,3.257,3.2343,3.2171,3.2038,3.1955,3.1964,3.2045,3.1989,3.1948,3.1948,3.1782,3.1687]}]]